GFSCGP_925_spd_000.txt.gz
Wind_Speed
5 8 7 12 8 7 10 7 7 14 7 3 9 8 10 6 5 5 5 7 7 16 23 24 18 13 9 9 2 12 18 10 6 5 4 8 10 11 10 10 10 13 13 13
5 6 8 6 7 6 6 5 6 6 5 5 8 10 11 6 9 10 9 9 14 14 14 16 14 13 16 16 23 17 16 10 9 7 9 8 8 5 8 11 16 15 19 22
13 10 4 4 5 8 3 6 9 8 7 8 10 6 14 11 10 11 13 14 14 12 12 11 17 18 18 20 19 20 17 14 12 10 10 9 8 9 10 13 17 21 28 25
8 4 3 1 5 8 3 6 5 8 7 7 13 3 13 14 12 12 12 11 10 9 10 12 18 16 18 19 19 16 12 10 8 8 3 3 1 3 8 10 20 21 13 16
5 4 5 4 6 6 6 5 6 8 9 10 10 6 13 16 14 13 10 9 9 10 11 11 14 15 15 13 12 8 6 5 2 1 1 2 9 14 15 11 12 14 12 17
7 3 7 6 4 2 6 9 9 8 9 3 11 2 6 2 12 12 9 7 7 7 8 9 12 14 12 10 7 5 5 2 5 6 4 10 9 9 12 13 12 16 17 18
8 6 5 7 10 5 8 8 4 2 2 3 5 2 10 11 12 12 8 10 8 6 6 4 7 10 7 5 3 5 12 15 12 7 6 7 7 10 12 14 15 18 18 16
7 6 5 7 7 7 5 6 3 3 4 2 4 3 8 14 11 10 9 5 5 6 4 5 6 4 5 7 9 9 9 14 16 10 8 8 10 13 14 15 16 15 15 17
5 7 6 7 5 8 7 5 3 1 2 1 5 17 14 11 8 9 5 0 3 4 5 3 5 7 1 4 8 7 8 10 15 8 7 9 11 13 13 11 11 14 13 13
4 3 5 3 3 4 5 1 2 3 2 3 8 5 7 4 6 5 7 6 6 4 3 4 9 11 13 17 19 17 13 9 10 11 10 9 16 10 10 12 15 10 15 19
7 4 3 5 8 8 0 2 2 3 1 2 3 2 4 7 5 5 5 6 7 7 6 1 14 21 22 24 18 12 12 12 14 12 12 14 13 12 13 13 12 15 16 18
4 3 2 8 5 3 3 5 3 1 1 2 1 6 7 8 11 6 7 7 10 12 13 14 18 19 19 17 19 18 17 13 13 13 14 17 15 15 17 14 15 16 16 15
5 2 2 7 5 3 3 3 1 6 2 3 2 3 5 14 11 11 8 9 10 9 9 9 12 15 19 21 21 20 18 13 9 11 12 15 15 15 15 16 14 13 15 17
3 1 2 2 5 7 7 8 8 8 3 5 6 14 14 4 6 5 8 10 11 11 10 10 13 16 18 19 19 16 19 12 16 16 13 12 12 10 10 13 13 16 17 19
3 3 6 8 9 9 10 11 11 12 10 8 10 13 9 10 10 15 13 13 11 10 11 12 12 16 16 17 18 20 20 23 18 17 14 15 14 10 11 8 11 16 18 17
5 2 3 3 4 9 12 14 14 15 14 9 12 13 7 15 12 12 11 11 12 12 13 13 16 16 16 18 20 24 24 27 13 16 19 20 20 14 8 10 13 16 17 16
3 2 1 2 9 9 2 4 5 4 6 9 5 8 12 10 10 12 8 10 12 12 13 13 13 15 17 19 23 24 27 30 26 23 19 12 9 11 7 12 13 18 17 19
5 2 2 2 5 3 3 12 12 9 7 7 7 8 7 11 13 12 10 9 11 11 12 13 15 17 18 22 23 25 28 30 33 30 22 12 10 9 13 7 10 18 18 20
4 2 3 1 3 9 11 4 6 5 10 10 7 7 10 13 10 4 9 10 8 10 14 16 18 20 22 22 24 28 29 30 31 32 19 20 5 13 9 9 12 18 20 21
5 5 1 2 2 3 2 7 6 8 8 8 9 10 8 12 6 6 13 13 14 17 18 19 21 21 22 23 27 26 27 28 28 28 19 13 14 13 11 12 16 16 17 16
2 1 3 4 4 6 9 4 4 3 2 5 5 9 8 6 4 9 11 11 17 18 20 23 21 20 20 24 24 24 26 27 23 19 16 15 17 16 15 13 15 15 18 17
7 7 4 3 3 6 2 2 1 4 6 4 2 4 6 8 9 10 9 12 17 18 22 22 23 20 23 23 23 22 23 24 22 18 17 16 16 17 14 13 14 19 18 11
4 6 4 9 5 8 2 5 4 2 3 2 3 6 8 7 10 10 10 12 16 20 21 24 21 23 25 21 21 21 23 19 19 18 21 18 17 15 10 16 18 16 10 12
3 7 3 2 7 9 5 3 8 6 2 2 4 5 10 8 8 10 10 13 16 19 22 20 25 25 21 24 24 20 21 20 19 18 18 18 16 17 15 15 15 11 12 9
5 5 6 9 12 9 8 5 6 3 5 5 6 10 6 7 9 11 12 16 19 21 20 25 23 22 23 25 23 20 18 16 14 15 16 19 14 14 15 14 9 8 8 9
6 10 7 8 4 2 4 4 3 4 3 6 4 5 8 11 11 16 15 20 21 23 25 24 24 25 25 24 21 20 14 9 10 12 15 16 16 14 14 11 12 15 15 12

GFSCGP_925_spd_003.txt.gz
Wind_Speed
6 6 3 3 3 4 5 5 12 5 5 2 4 6 8 13 10 15 15 19 17 17 20 30 37 33 37 29 27 24 21 11 17 14 13 11 9 8 8 9 5 6 10 11
4 5 3 5 2 4 4 6 6 3 4 3 1 5 9 14 10 11 17 16 15 14 16 24 34 35 33 31 28 26 24 24 20 16 15 11 7 4 3 6 6 9 12 19
7 2 4 3 8 9 7 5 5 3 6 6 2 3 9 9 14 18 15 11 11 13 14 14 23 29 29 28 25 22 19 17 15 9 5 2 2 4 8 11 14 19 13 12
7 1 3 5 7 6 4 6 5 6 3 3 5 2 6 14 15 15 15 15 15 15 12 14 19 22 23 21 18 16 12 10 7 7 6 8 9 10 13 15 11 11 11 12
2 7 8 8 4 5 3 0 3 3 4 3 7 5 1 14 12 10 8 10 11 10 11 9 18 17 14 12 12 10 7 8 9 10 4 2 6 8 4 10 5 7 13 18
4 5 4 5 5 3 5 4 5 3 2 2 6 5 2 5 8 5 9 9 8 9 9 16 20 14 8 5 4 5 6 4 9 11 6 6 8 5 3 3 5 11 17 16
5 4 3 3 4 1 4 5 3 4 4 3 5 6 2 6 6 8 10 9 9 9 8 9 14 15 9 4 3 2 2 6 6 4 9 5 4 6 6 8 12 16 14 16
5 4 6 7 5 2 5 4 4 1 1 4 8 4 2 11 10 9 8 9 9 8 7 7 9 7 5 4 8 4 6 8 7 7 8 11 12 10 10 14 17 13 15 7
3 3 3 6 4 3 4 5 2 5 4 3 2 4 4 9 8 8 7 3 8 8 8 6 9 8 18 14 13 12 8 6 11 11 9 8 11 12 18 17 14 12 9 12
5 4 3 2 2 4 5 2 6 4 2 2 1 2 3 3 4 7 6 7 7 6 8 9 19 17 17 22 22 20 19 18 14 12 11 13 12 14 11 8 8 10 14 18
5 3 2 2 5 4 5 3 4 3 4 4 1 4 4 7 7 7 8 9 10 10 8 7 12 15 18 20 20 20 19 17 14 14 16 13 13 8 3 4 5 8 12 17
3 4 3 3 3 2 2 3 4 4 3 1 4 5 3 8 10 8 11 8 7 8 7 9 16 19 19 19 25 22 20 13 10 16 13 13 13 9 10 8 5 6 7 8
3 2 3 5 4 4 2 3 5 6 3 3 4 5 3 6 7 7 8 7 8 8 9 10 17 17 18 20 21 19 23 18 25 21 16 13 13 12 15 6 4 3 5 8
3 3 5 5 3 1 3 4 3 6 4 4 6 6 5 8 7 7 7 7 8 9 8 7 11 15 17 16 18 22 25 27 31 28 16 18 20 20 5 2 4 8 10 12
3 3 5 4 6 5 4 5 6 4 6 6 9 8 13 6 8 6 6 8 9 7 7 7 6 13 14 17 20 23 24 28 30 32 31 29 25 8 4 1 2 11 13 9
5 1 2 3 7 9 5 8 8 7 7 6 3 7 9 6 7 7 9 10 8 8 8 7 10 11 12 16 19 21 24 27 30 31 32 35 15 5 7 11 15 13 4 8
4 4 3 2 4 5 5 4 3 2 2 2 1 5 8 10 10 8 8 7 6 5 6 6 10 10 13 16 18 21 22 25 28 31 30 22 14 13 9 7 20 8 9 11
5 4 3 2 3 2 5 4 3 6 6 7 13 11 10 7 7 8 6 5 4 3 5 9 9 13 12 13 18 19 21 24 26 24 26 22 17 13 9 9 11 7 11 15
5 4 3 2 1 5 7 2 3 4 4 9 10 8 7 5 4 4 5 3 2 4 6 7 11 8 11 15 19 18 19 21 23 19 19 17 13 13 11 16 14 13 12 11
6 5 4 2 4 6 7 4 6 4 2 4 7 6 4 2 2 3 6 6 4 9 10 10 11 11 11 14 16 14 16 19 15 16 16 19 19 17 17 17 22 14 11 13
3 3 4 4 3 7 8 2 5 5 6 5 5 4 1 1 4 5 8 3 8 11 9 13 10 6 11 17 14 13 16 17 14 15 17 18 21 22 24 23 5 13 13 6
7 6 4 2 2 7 6 2 7 5 4 6 5 5 3 3 5 5 2 5 11 9 12 12 9 12 18 13 13 16 15 14 14 16 16 18 17 18 9 12 16 15 6 7
2 7 6 8 6 7 6 6 5 6 6 5 4 2 2 5 3 2 4 6 8 12 15 14 19 19 14 14 18 15 9 12 17 20 16 16 17 14 16 14 11 6 6 9
3 5 3 4 4 4 7 4 5 5 6 6 6 6 4 4 1 4 4 7 12 16 18 19 19 16 17 22 19 10 13 14 16 11 14 16 17 17 16 12 9 6 10 11
5 3 1 3 3 5 5 6 6 6 5 7 6 4 4 1 5 6 5 10 12 14 17 19 19 19 23 24 18 19 22 15 10 10 13 13 15 17 17 11 6 10 10 9
4 5 3 6 4 4 4 7 7 6 7 7 6 4 8 14 7 11 8 12 16 18 21 20 22 24 25 21 22 26 25 13 9 10 9 11 13 15 12 8 9 12 15 14

GFSCGP_925_spd_006.txt.gz
Wind_Speed
6 6 3 3 4 4 3 3 7 3 5 5 7 7 6 8 17 15 16 17 16 15 20 30 33 29 28 22 20 16 18 14 14 18 17 13 11 7 8 9 6 6 10 15
6 2 3 4 5 5 4 7 5 5 7 5 9 10 7 9 9 16 17 15 14 14 17 24 32 34 31 29 26 20 17 16 15 15 10 5 3 6 5 5 5 10 12 10
6 4 2 5 7 7 5 7 3 2 2 8 15 7 9 7 10 11 10 10 11 14 15 15 22 28 26 23 19 19 17 14 12 10 5 4 2 1 5 10 11 9 5 6
5 6 5 5 4 1 2 2 4 3 3 6 1 4 3 6 12 13 12 11 12 13 12 15 19 21 20 17 16 15 12 8 5 4 5 5 3 4 6 4 4 1 7 12
4 4 6 5 0 2 3 1 2 1 3 3 2 7 5 5 8 9 7 9 8 9 12 9 17 18 14 12 10 6 4 4 4 4 5 4 3 5 2 2 1 7 11 14
4 2 3 1 3 1 1 1 6 4 3 3 4 5 6 4 6 5 5 7 7 8 8 12 13 12 11 7 5 3 0 3 5 6 7 7 5 4 5 5 8 14 15 14
5 4 5 4 4 5 8 5 4 4 4 4 4 7 1 1 5 11 9 8 8 8 8 7 8 7 5 2 1 3 4 7 8 8 7 5 3 10 9 12 19 18 16 9
4 4 4 6 2 1 3 5 5 4 2 3 5 3 2 6 12 10 8 8 7 8 7 6 6 3 11 18 21 14 12 14 11 12 16 14 9 7 11 16 16 16 7 4
4 0 2 1 2 1 3 4 4 6 3 3 1 4 3 5 6 10 7 9 6 8 7 8 10 25 26 27 24 19 15 13 10 8 9 12 17 17 18 21 14 9 8 2
2 4 2 3 5 5 5 2 4 4 2 1 3 3 4 5 5 7 6 8 9 9 8 9 17 21 21 17 15 13 11 11 10 13 16 17 12 14 12 17 11 11 7 3
2 4 4 4 3 1 5 3 5 4 3 4 2 5 5 6 8 10 7 8 9 8 7 7 14 15 14 14 13 13 14 11 14 19 20 20 19 18 14 7 6 5 4 8
2 5 3 1 3 1 1 3 4 4 2 2 4 4 3 6 10 13 10 9 9 9 7 9 12 10 10 13 16 19 19 21 24 23 22 22 22 18 16 11 8 12 13 5
2 2 3 6 6 6 4 2 5 6 3 3 5 5 3 3 8 7 10 9 7 6 6 6 8 10 13 15 16 17 21 22 24 27 27 26 26 28 24 16 13 5 2 10
2 3 4 6 4 3 0 2 3 5 3 4 6 6 5 6 10 7 9 8 7 6 5 5 8 9 9 11 14 15 17 20 23 25 27 28 27 25 17 5 3 8 12 14
3 4 2 2 3 1 1 2 1 4 4 5 7 7 6 6 7 6 8 7 7 6 5 5 3 2 5 10 11 13 15 18 19 19 22 20 22 18 13 16 19 15 16 13
4 2 1 0 5 6 3 5 5 4 4 4 9 5 5 5 8 6 6 6 5 3 2 3 4 3 6 8 8 10 13 13 14 17 15 20 19 17 15 15 15 17 18 7
4 4 3 3 5 6 5 4 3 1 4 3 6 6 6 5 6 6 5 6 5 3 4 5 0 2 7 5 6 8 9 10 11 10 12 18 18 17 18 17 14 18 12 15
5 4 3 2 4 1 5 5 4 9 3 10 11 7 6 7 5 6 5 5 6 6 5 2 1 2 4 1 5 7 6 8 11 10 15 17 16 19 18 10 12 13 13 18
4 4 3 3 3 5 6 4 6 5 3 4 9 7 5 7 5 3 5 5 5 4 3 2 3 5 6 3 6 6 7 10 12 13 14 16 17 18 20 19 22 17 20 7
6 6 4 3 4 6 6 2 4 5 4 9 7 8 7 6 3 4 7 3 3 4 5 4 3 5 3 9 13 8 8 10 12 13 15 16 16 18 21 22 21 17 6 3
3 3 4 3 2 8 7 7 2 5 7 8 8 7 7 5 5 4 1 2 4 4 5 6 5 5 13 14 7 9 11 12 11 11 15 16 16 16 13 10 6 9 3 8
7 6 4 3 2 7 7 5 7 6 3 7 6 6 6 6 5 4 4 2 8 12 13 13 12 13 11 8 17 16 14 11 10 15 16 13 12 12 13 11 10 5 7 5
2 7 5 9 7 5 6 6 2 6 5 6 7 6 7 6 4 6 4 8 12 10 11 11 11 10 12 20 22 18 14 12 16 13 9 10 12 12 13 9 1 5 4 3
4 5 3 3 5 7 7 2 5 5 6 6 6 7 6 4 5 7 6 7 8 9 9 10 12 15 18 22 16 12 16 20 20 14 9 10 9 11 11 8 3 4 3 4
5 4 4 4 4 2 2 3 7 7 7 7 8 8 6 10 7 7 5 6 4 5 8 13 16 17 20 20 22 24 22 23 22 14 9 7 6 8 7 4 4 6 6 5
4 7 4 7 7 6 5 7 8 8 8 8 8 10 11 13 7 9 6 3 3 7 14 18 18 20 19 23 25 25 16 17 12 13 12 7 6 6 1 2 4 6 7 8

GFSCGP_925_spd_009.txt.gz
Wind_Speed
4 6 2 4 1 4 2 3 5 4 1 8 5 8 10 7 14 11 9 11 12 12 10 20 22 17 17 14 12 9 10 12 14 15 15 12 11 9 8 5 5 6 9 10
7 2 1 6 5 3 5 4 2 4 8 11 12 12 9 8 5 8 11 11 13 11 12 19 28 27 23 22 18 13 15 16 14 11 10 6 4 4 5 5 6 7 8 9
5 2 3 5 6 5 4 2 3 6 8 6 12 9 8 6 8 9 7 7 8 13 10 7 19 24 22 18 16 16 14 12 8 4 2 3 3 2 3 3 4 6 7 9
6 5 5 5 5 3 3 2 3 9 5 4 4 3 2 3 4 5 5 7 7 6 9 9 16 20 21 18 14 12 9 7 6 5 4 5 7 6 3 1 4 6 8 11
4 2 5 5 1 2 3 2 2 2 4 4 4 6 3 6 3 4 5 6 7 6 8 8 17 19 16 14 11 8 5 2 2 3 6 7 5 3 3 6 8 13 12 10
3 1 3 1 1 0 2 5 6 4 3 3 2 5 6 8 7 6 3 4 7 8 6 11 16 13 10 5 4 4 4 5 4 5 6 7 4 2 7 8 13 18 17 21
5 4 5 2 2 2 5 5 3 3 4 4 3 2 5 12 10 9 11 8 8 8 7 7 9 12 11 8 4 4 4 8 7 7 8 10 11 6 2 10 17 25 28 24
3 5 4 5 1 2 3 4 5 5 3 2 4 2 4 5 9 10 7 7 5 3 5 7 15 20 20 20 17 15 14 14 13 13 11 9 13 15 17 18 21 21 22 18
4 1 3 1 2 2 1 3 3 6 3 3 3 3 5 5 7 9 10 6 6 7 7 10 19 19 16 14 13 12 12 11 12 13 14 15 17 17 19 19 22 19 12 8
5 4 2 4 3 4 4 4 3 4 3 1 2 3 4 8 9 4 5 9 7 8 8 8 14 13 13 13 13 12 12 13 13 12 13 15 17 18 21 22 23 15 11 10
2 3 4 2 3 1 4 2 6 5 3 4 2 5 5 9 7 7 7 8 10 8 7 7 11 12 11 12 14 15 13 11 11 13 15 16 17 19 21 23 20 16 12 6
1 5 3 1 5 3 1 2 4 4 3 1 3 5 3 8 9 11 9 8 7 7 7 9 10 10 12 13 13 12 10 10 12 14 17 19 20 21 23 23 16 8 9 5
2 2 3 6 6 5 2 3 5 6 3 4 5 5 2 6 6 3 12 10 7 6 6 5 6 10 12 9 9 8 7 8 11 16 19 21 22 23 23 21 16 18 15 17
5 3 5 6 4 3 3 2 3 4 3 3 5 4 4 5 8 7 6 6 7 6 5 4 5 11 10 8 7 4 3 7 12 15 18 19 19 19 19 18 14 18 22 21
4 3 1 3 4 2 1 3 5 6 4 5 6 7 7 9 9 8 7 6 6 5 5 5 4 9 6 7 5 1 3 8 11 13 14 16 16 17 17 19 20 22 19 16
4 3 1 1 6 6 3 5 6 5 4 6 3 4 3 5 6 7 7 7 6 5 4 3 1 7 7 9 7 5 6 7 8 9 13 14 17 18 18 18 18 16 18 19
4 5 3 3 4 5 6 7 6 4 3 6 6 7 7 5 9 8 8 7 6 6 5 4 6 11 11 14 11 9 8 8 9 11 13 15 16 17 18 18 15 14 13 8
5 4 3 2 3 2 6 4 6 4 1 3 3 9 10 8 5 6 7 7 7 7 6 7 12 12 15 14 10 9 11 11 10 13 14 15 18 20 19 18 16 17 15 11
3 5 3 4 3 5 6 5 6 6 7 5 8 6 5 4 3 4 7 6 7 7 12 12 12 10 10 8 9 13 13 11 13 17 16 17 19 21 21 22 21 16 14 11
5 6 4 2 4 6 6 3 4 4 5 10 8 9 8 7 3 5 8 6 9 11 6 3 4 2 2 9 11 9 9 14 18 18 16 17 20 19 18 17 11 6 5 3
2 3 4 3 3 8 7 4 2 5 7 8 11 11 9 8 5 3 6 7 5 4 7 8 7 3 5 5 10 16 18 18 20 17 16 18 15 13 12 13 13 9 7 5
7 6 4 3 1 8 7 4 7 6 1 9 8 8 11 7 5 6 6 6 12 12 8 7 6 6 5 11 16 18 18 18 16 17 20 18 12 11 10 10 8 5 5 7
3 7 5 9 6 4 6 5 4 6 6 7 8 6 9 7 6 5 6 7 9 7 6 4 4 6 10 12 13 14 16 19 20 22 25 18 12 10 9 7 4 4 5 3
4 4 3 2 5 8 8 5 4 7 6 6 7 8 9 7 7 7 6 8 7 5 3 3 6 9 12 14 13 17 20 20 19 23 23 13 12 8 8 5 3 4 2 4
5 5 4 5 7 5 7 7 6 6 5 6 7 8 9 8 7 8 6 7 6 4 1 5 8 11 15 15 16 19 20 16 14 19 16 11 9 10 4 2 3 3 4 6
5 7 4 7 8 6 6 6 7 9 9 8 8 6 7 12 9 10 8 6 5 3 3 7 10 14 17 17 22 21 18 16 16 17 17 16 11 8 6 5 4 3 5 7

GFSCGP_925_spd_012.txt.gz
Wind_Speed
5 8 3 3 4 4 4 3 3 2 3 8 4 6 8 8 8 8 7 7 7 6 6 11 17 19 23 22 20 16 14 11 15 19 14 10 8 5 4 3 3 3 5 7
7 4 2 2 4 5 5 5 3 4 5 8 8 9 7 8 4 4 6 7 7 6 7 14 19 26 27 23 17 16 17 19 16 12 6 4 6 6 4 3 4 4 5 6
6 2 2 2 5 6 4 5 2 6 7 6 6 6 6 5 6 6 6 3 4 6 8 8 17 21 24 24 24 22 19 16 10 6 7 5 3 3 2 1 4 6 6 7
5 3 4 5 6 3 2 3 3 8 4 4 3 2 1 1 2 3 1 2 4 7 6 7 15 18 20 19 18 17 14 11 9 5 3 1 3 2 1 2 5 4 8 12
2 2 5 6 1 3 2 5 5 3 5 5 3 5 3 4 4 6 6 5 5 4 5 12 12 13 14 13 12 9 8 6 3 2 3 4 2 2 4 5 3 9 19 22
3 2 4 0 3 2 3 5 7 5 3 2 3 5 4 7 8 5 4 6 5 4 3 11 12 10 7 9 8 7 5 6 7 6 9 10 7 5 2 6 11 14 21 21
6 4 5 2 3 3 6 6 3 4 3 4 3 3 6 11 7 10 12 8 6 2 4 4 6 14 10 9 9 10 13 19 18 18 17 15 12 10 12 16 18 18 23 22
4 5 3 4 2 3 2 5 5 5 3 3 3 4 4 6 8 10 6 5 7 6 4 5 9 17 21 20 19 18 17 16 14 13 11 9 10 11 14 18 20 23 26 23
4 1 3 1 1 3 2 2 3 6 2 2 3 4 4 4 6 7 8 7 7 6 6 7 11 16 17 17 16 16 14 11 9 10 11 12 12 14 16 19 22 24 25 23
5 3 2 3 2 5 2 5 3 3 2 2 3 4 4 5 8 8 7 8 8 7 8 7 13 15 16 17 17 15 11 10 10 10 12 13 15 17 18 20 22 22 20 11
3 4 4 1 3 1 2 2 6 5 3 4 1 5 5 10 11 10 8 8 11 11 8 6 11 13 15 18 16 12 9 6 6 8 11 13 14 15 17 20 20 19 17 14
1 5 2 2 2 3 2 3 4 4 3 1 3 5 3 8 8 8 9 7 6 7 7 8 11 13 13 14 12 10 5 3 4 7 10 11 12 14 17 19 19 18 15 15
4 2 3 6 6 4 2 3 4 6 3 4 4 5 3 5 7 5 8 7 7 7 6 6 8 12 13 11 8 5 4 2 3 6 8 9 12 15 17 19 19 18 18 16
6 3 5 6 4 2 3 4 4 5 3 3 6 4 5 6 7 7 8 7 7 7 6 5 6 11 9 8 9 11 8 5 5 7 8 11 13 15 18 20 20 20 20 19
4 4 1 2 3 2 2 4 6 6 5 5 5 7 6 11 11 9 8 7 7 7 6 6 5 10 11 12 15 12 9 8 8 9 10 12 14 16 19 21 21 21 20 18
3 3 0 1 4 5 3 6 6 4 4 7 4 8 6 3 8 8 10 9 7 7 7 6 8 14 18 18 17 13 11 10 11 12 13 15 16 17 20 23 22 20 18 17
3 5 3 4 3 5 6 9 9 5 5 6 6 8 6 4 9 12 9 9 8 7 7 7 8 14 20 18 15 13 10 13 14 13 15 18 18 18 22 23 22 21 19 17
5 4 3 2 3 2 6 2 3 5 4 7 3 5 8 4 3 6 6 8 8 7 6 7 10 11 13 12 11 10 13 15 15 15 18 19 18 19 24 24 23 24 20 17
4 4 3 4 3 6 6 5 7 8 8 9 7 4 5 4 4 4 7 6 7 7 12 9 7 7 8 7 6 10 14 13 13 18 21 19 16 20 23 22 21 17 12 8
5 5 4 3 3 6 7 3 3 3 5 8 8 8 8 6 3 8 9 8 10 10 5 4 4 3 3 1 5 6 11 16 19 21 20 17 16 20 19 18 13 14 11 7
3 3 4 3 3 8 8 2 2 5 7 6 9 8 8 6 6 2 4 6 7 7 9 9 8 5 2 2 6 11 14 14 16 17 18 19 22 20 16 16 15 15 12 7
7 6 4 3 2 7 6 3 7 6 2 6 8 8 13 6 7 5 6 7 13 16 13 8 6 4 2 5 9 11 11 15 19 20 21 24 25 16 14 15 14 12 6 6
2 6 4 9 6 4 6 5 4 2 3 5 7 7 12 9 7 8 6 9 14 13 11 6 4 2 5 7 9 9 15 17 20 19 18 23 16 9 13 13 12 8 5 5
4 4 3 2 4 8 8 6 6 6 8 4 6 7 10 7 8 6 7 8 11 11 7 3 1 4 8 10 10 11 17 18 19 15 16 18 11 11 10 11 9 6 4 6
4 5 4 5 9 6 9 8 10 7 6 5 4 6 8 9 7 11 9 10 10 8 5 1 2 5 9 11 12 15 18 15 16 15 16 20 17 15 10 8 7 6 7 9
5 7 4 6 10 5 7 5 2 7 9 8 7 6 5 7 10 13 8 11 6 5 3 2 4 7 11 13 16 17 12 11 13 16 17 19 17 17 9 10 10 9 9 8

GFSCGP_925_spd_015.txt.gz
Wind_Speed
2 3 3 3 1 2 5 3 4 3 2 7 6 5 8 6 6 5 5 6 7 5 5 7 11 14 18 19 19 19 15 12 10 18 17 13 8 6 6 4 2 1 2 3
4 3 2 4 5 5 4 6 4 4 3 6 6 9 6 6 3 2 6 7 8 8 9 9 12 14 15 17 16 15 15 18 20 18 14 7 8 6 6 3 2 1 3 5
4 2 2 4 3 6 2 6 4 5 7 7 6 3 3 5 5 4 4 6 8 11 13 12 15 17 14 14 17 19 20 19 15 9 8 7 7 7 3 1 1 4 9 15
5 3 4 3 3 2 4 2 8 12 2 3 2 3 1 2 3 4 6 7 9 12 12 14 14 14 19 16 18 17 17 13 10 7 4 4 3 2 2 2 4 6 10 12
1 1 3 5 1 1 3 6 8 3 4 4 1 2 2 6 7 9 9 7 8 8 9 12 16 18 20 22 19 16 12 11 8 8 9 10 10 9 6 5 6 9 12 15
3 2 3 2 2 4 9 5 6 3 2 1 1 3 5 9 14 14 10 8 9 9 6 10 10 13 16 14 16 18 19 21 20 19 18 17 15 11 8 8 11 12 17 20
5 3 2 2 4 2 3 4 1 1 0 4 1 3 5 14 11 17 16 14 12 8 7 6 8 8 8 13 16 20 20 20 18 16 14 12 10 8 9 12 13 18 18 19
3 1 3 4 2 3 2 3 4 5 3 1 1 5 2 2 11 16 16 13 11 9 8 7 7 9 11 15 19 18 17 17 15 14 13 11 10 9 10 14 17 18 19 20
3 1 2 3 1 1 3 2 2 6 2 0 2 3 5 1 8 12 14 14 14 12 9 9 11 12 13 14 17 17 15 16 15 13 9 8 8 9 11 15 19 21 23 23
5 3 1 1 1 6 1 6 3 2 3 3 2 5 6 5 12 13 15 16 14 11 10 10 12 11 11 14 16 14 15 15 12 9 7 7 8 11 14 19 21 22 21 20
3 2 2 1 1 4 3 2 5 4 1 2 2 4 4 9 14 16 17 15 14 12 12 11 11 11 11 14 13 14 12 9 6 5 5 7 9 11 15 18 20 20 20 19
1 4 2 1 0 2 1 3 4 3 4 1 0 5 1 6 8 9 12 10 11 13 13 13 13 13 13 12 14 12 6 3 2 0 3 6 8 11 13 16 18 19 19 17
5 1 3 3 2 1 2 2 4 5 2 5 3 3 1 3 5 9 12 10 11 14 13 12 13 14 14 14 11 7 3 7 6 3 4 6 8 11 13 15 18 20 19 17
4 2 4 7 3 1 4 4 5 3 3 4 6 4 4 5 7 8 9 11 13 14 13 11 10 13 12 11 9 4 11 12 7 5 7 8 9 12 14 17 19 19 19 17
2 4 2 1 1 2 2 4 8 7 4 6 3 8 6 9 13 12 10 12 14 14 12 10 9 13 13 14 15 13 13 10 8 8 11 11 12 13 15 18 22 20 19 16
2 4 1 4 1 3 3 6 7 8 4 10 6 14 11 1 6 11 14 16 15 14 12 11 12 15 18 19 14 12 12 9 8 11 13 13 14 15 17 19 23 21 18 16
2 5 3 3 2 2 5 9 11 5 6 7 9 8 5 5 10 14 15 16 16 14 13 12 13 15 17 14 13 12 10 7 9 13 14 14 17 17 17 19 20 19 17 16
5 4 2 2 1 2 4 2 2 10 6 13 4 4 5 3 3 7 13 17 15 14 12 11 13 13 9 9 9 8 6 7 12 13 13 17 18 17 16 18 17 17 16 12
3 4 3 2 3 5 5 3 5 6 6 12 13 6 3 4 2 5 12 13 15 13 13 12 11 8 7 7 7 4 3 6 9 13 16 17 17 16 14 15 15 15 12 10
4 5 3 3 2 5 5 2 3 3 4 2 9 7 8 8 3 5 13 14 11 11 10 9 7 9 10 8 4 1 3 8 10 12 14 16 15 15 16 15 14 14 12 11
2 3 3 2 4 7 6 1 2 3 4 1 7 7 11 7 6 2 6 9 16 15 16 17 15 11 10 7 2 2 6 7 9 14 17 15 14 17 16 12 12 13 11 9
5 5 3 3 1 6 5 3 5 4 2 2 7 9 14 9 6 5 6 10 14 16 17 17 16 13 8 2 2 4 5 7 12 14 14 12 15 16 9 9 10 10 9 6
3 5 3 8 5 3 5 4 1 1 3 2 3 5 8 6 7 9 10 11 16 18 16 12 13 10 4 1 3 4 5 11 13 14 12 11 14 11 9 10 9 8 6 5
3 3 2 1 3 7 10 8 8 7 10 6 7 7 9 11 9 8 9 11 13 13 11 8 7 5 2 2 4 6 9 13 13 10 10 13 13 14 12 11 9 7 6 6
3 6 4 4 8 5 8 9 11 9 7 8 6 6 10 10 12 13 12 12 15 18 10 9 6 4 2 4 6 8 11 11 7 8 10 14 15 15 13 12 10 7 7 8
6 6 4 5 8 4 6 4 2 4 5 6 6 2 3 7 11 16 10 15 14 10 10 6 4 2 3 5 8 9 9 7 7 9 10 12 12 13 12 11 9 11 11 12

GFSCGP_925_spd_018.txt.gz
Wind_Speed
6 6 6 11 8 3 6 6 11 8 4 5 5 7 4 5 8 10 11 11 11 10 8 8 8 10 12 14 16 16 16 17 14 12 13 12 9 6 5 5 6 5 5 5
4 4 3 5 5 4 5 9 8 5 3 4 9 6 5 4 5 6 10 11 11 9 10 11 12 12 13 14 13 14 14 13 13 12 9 7 8 6 6 5 5 5 5 6
8 5 2 4 6 6 4 4 10 6 7 3 9 7 8 4 5 6 6 6 8 10 10 11 14 14 14 14 14 16 16 16 11 8 7 7 7 6 4 2 3 3 4 6
3 3 4 6 5 3 5 1 9 13 12 8 7 7 9 7 7 7 8 9 9 11 12 14 15 15 16 16 16 16 15 11 8 6 7 5 4 4 4 3 3 3 5 8
3 5 5 5 2 1 3 7 9 7 4 5 10 7 8 8 9 12 11 12 13 14 14 13 15 17 15 15 15 13 13 12 10 10 10 9 9 8 5 3 6 8 10 12
4 2 2 3 5 2 11 10 6 3 2 6 4 7 6 8 15 15 15 14 14 14 14 15 16 15 14 12 12 12 13 14 13 13 13 13 10 7 6 8 10 12 16 17
6 3 4 3 9 6 6 9 4 5 6 8 2 6 11 3 4 17 19 17 16 15 14 14 16 16 15 13 13 15 15 15 12 13 12 11 10 8 7 10 12 15 17 18
9 7 4 2 3 3 7 6 4 5 5 4 3 6 1 1 5 11 17 18 18 17 15 14 16 15 15 16 14 14 14 14 11 10 10 9 9 7 7 9 12 14 16 18
5 4 4 2 2 2 5 6 2 2 1 3 6 5 10 4 8 13 19 19 19 18 16 14 15 15 17 18 16 14 14 13 11 10 8 5 7 6 6 9 12 14 16 17
3 3 2 4 1 6 3 8 3 3 3 4 3 6 4 6 10 15 20 20 19 18 16 13 15 16 17 17 15 14 14 13 10 7 5 3 3 4 6 9 13 14 16 17
5 3 5 3 6 6 4 4 1 0 2 3 3 1 3 1 8 16 19 20 19 17 16 14 16 17 17 17 15 15 13 9 8 9 7 5 2 2 6 9 13 14 16 17
3 1 4 6 4 2 3 4 7 4 4 0 2 4 3 1 3 10 16 18 17 16 16 15 18 19 19 18 17 15 12 11 8 7 6 3 1 4 7 10 13 14 16 17
6 4 4 5 5 5 7 8 4 5 1 6 3 2 3 2 5 8 13 15 14 15 16 15 19 20 20 19 17 16 11 5 8 9 6 4 5 6 9 11 14 15 17 17
2 3 5 7 1 1 6 11 11 10 4 4 9 9 7 7 7 7 11 14 16 16 17 16 17 20 20 18 18 15 6 9 10 9 7 7 8 9 10 12 14 16 17 17
3 5 4 1 1 3 4 8 13 15 13 8 7 11 7 6 9 9 9 12 15 16 18 18 17 19 20 19 19 9 11 11 11 9 9 9 9 10 12 14 15 17 18 17
1 2 1 3 2 2 7 11 12 16 16 14 18 19 14 9 7 8 11 14 16 17 18 18 17 20 20 21 20 12 11 12 10 9 10 10 10 12 14 15 15 16 18 17
2 5 4 2 2 2 6 15 17 13 12 14 13 15 4 6 8 10 11 14 16 17 18 18 18 19 19 19 15 12 12 10 9 9 9 10 10 13 15 15 15 17 17 15
5 5 1 1 2 3 1 1 2 13 16 16 17 11 7 5 3 5 9 13 15 16 17 16 18 16 16 13 10 10 9 9 8 7 7 9 12 14 15 15 15 17 15 12
1 3 3 3 4 7 11 4 4 5 6 5 13 13 6 3 4 9 10 12 14 15 17 18 16 15 13 12 11 9 9 7 6 6 8 9 10 13 14 15 16 16 14 13
4 3 2 3 3 4 3 4 1 2 6 6 4 4 7 7 4 3 9 12 12 16 18 16 17 16 15 13 10 12 9 7 6 6 7 9 12 13 15 16 16 13 12 12
2 0 4 4 4 6 2 1 3 3 3 5 3 5 9 7 7 3 2 10 15 16 17 17 17 16 13 10 9 7 5 4 4 6 8 10 11 12 14 14 11 11 11 10
5 6 3 2 3 4 5 5 3 4 3 5 6 6 9 10 3 3 3 8 13 15 15 16 15 14 14 12 7 5 5 3 6 8 10 11 10 11 12 10 10 12 11 9
3 3 1 6 1 2 7 6 3 3 8 8 8 6 9 10 10 7 6 7 12 16 16 16 16 11 5 8 5 3 4 5 7 10 11 11 10 11 11 12 14 13 11 10
4 4 3 2 2 7 8 9 11 10 12 11 11 12 11 13 11 9 7 9 12 13 14 14 12 7 8 4 3 3 6 7 9 10 10 10 10 10 11 11 14 14 11 9
1 7 4 5 11 7 7 5 6 7 8 10 10 9 9 9 8 5 8 9 12 15 11 9 3 4 3 2 2 3 6 8 9 9 10 10 10 11 12 12 13 14 12 10
5 3 4 5 9 5 8 8 11 10 11 10 9 7 5 5 0 7 8 13 12 12 10 2 3 3 2 2 3 6 7 8 8 10 11 10 11 11 12 13 12 13 15 13

GFSCGP_925_spd_021.txt.gz
Wind_Speed
8 2 9 8 12 8 10 6 10 12 5 10 10 8 11 11 13 14 15 15 15 14 12 10 9 9 10 12 14 15 15 14 13 11 11 10 11 10 8 7 6 4 3 3
5 12 6 2 4 4 3 5 12 8 9 7 9 10 10 12 14 15 14 13 14 13 11 10 11 12 12 13 14 16 13 14 12 12 13 12 11 9 9 7 5 3 3 3
10 8 0 4 8 10 4 5 7 10 12 14 10 14 14 11 8 8 10 13 14 14 13 11 13 13 12 13 13 14 14 14 13 12 10 9 9 8 8 5 3 2 4 5
6 8 10 1 3 3 9 2 8 4 12 14 17 12 17 16 15 13 14 12 11 13 12 12 15 16 15 15 15 15 17 14 11 10 10 8 4 6 5 3 3 3 5 7
3 10 11 12 2 5 13 4 6 8 13 7 17 9 11 17 15 15 13 14 13 13 14 15 16 18 18 17 17 16 14 12 11 9 8 6 6 5 4 2 3 5 7 10
9 5 4 7 2 3 4 4 5 7 11 7 15 12 13 13 14 15 14 13 14 16 16 17 20 21 19 17 16 16 15 14 12 12 11 11 8 5 3 3 5 7 10 11
12 10 5 4 6 4 8 8 7 8 6 9 2 7 12 9 7 10 17 17 16 16 16 17 17 19 19 18 17 16 15 15 14 13 12 11 9 7 5 6 6 9 10 11
12 10 12 8 11 4 9 12 7 6 7 11 6 7 2 9 3 5 17 17 17 17 16 17 18 18 18 18 18 16 16 15 14 13 12 10 7 4 2 2 6 7 10 11
9 7 6 1 3 6 5 9 6 5 1 6 11 17 11 6 5 8 16 17 18 18 17 17 18 18 18 18 18 18 17 15 14 13 9 7 7 5 1 2 5 7 9 12
2 3 3 5 4 6 8 3 4 6 5 9 7 7 0 6 5 9 15 18 18 18 17 15 17 17 18 19 19 18 17 16 13 9 9 10 8 5 2 3 6 9 10 12
6 7 6 4 10 10 7 9 7 5 3 4 4 2 8 3 2 9 12 17 18 18 18 16 16 19 20 21 21 20 19 16 12 11 12 10 7 6 5 6 7 9 12 13
4 4 7 11 5 5 10 8 10 5 6 2 3 7 3 4 2 7 9 13 16 18 17 16 19 20 22 23 23 22 19 13 12 13 12 10 9 8 8 8 9 11 13 14
6 7 7 7 6 8 9 10 9 4 1 7 3 3 6 5 4 5 9 13 15 18 18 16 19 21 23 24 23 22 17 13 12 12 12 12 11 10 10 10 11 12 13 15
1 11 10 10 5 3 11 13 11 12 7 9 11 13 6 9 7 6 8 10 15 17 17 17 16 20 23 24 24 22 17 12 14 15 14 13 11 11 12 12 13 14 14 16
4 8 12 14 6 6 9 9 12 16 16 14 12 14 8 8 6 8 7 9 13 14 15 16 16 18 23 24 23 22 17 12 16 14 13 12 12 12 13 14 14 15 14 16
5 4 2 5 8 8 11 12 14 14 16 17 18 17 15 10 8 6 8 8 11 13 15 16 17 21 23 24 23 23 15 15 15 14 13 13 12 12 14 14 15 16 15 16
5 4 4 3 4 5 6 15 16 17 16 13 15 16 13 7 5 8 8 7 10 12 13 16 17 21 22 23 23 22 16 13 14 12 12 12 12 13 14 15 16 16 16 16
5 4 2 1 1 1 2 1 4 7 13 15 13 14 13 6 7 7 7 9 9 10 13 14 17 19 21 20 19 19 14 13 12 9 9 11 11 14 14 15 16 16 16 16
3 4 2 2 6 8 11 6 1 3 6 9 7 10 9 6 5 14 10 6 7 9 10 13 16 18 17 16 20 15 12 11 8 10 10 9 10 12 15 16 16 16 16 15
3 1 4 3 3 4 4 4 1 1 5 8 8 8 8 2 5 6 3 3 6 9 11 13 14 14 14 12 12 12 8 5 7 5 6 8 10 12 15 15 15 16 14 14
3 2 5 6 3 5 2 2 2 5 3 7 8 9 6 6 4 7 8 8 8 9 10 10 9 10 11 10 11 7 7 1 4 7 8 10 12 13 14 14 15 13 13 12
6 6 3 3 3 5 5 6 1 5 6 7 8 9 7 9 10 10 8 9 7 7 5 4 6 8 10 8 7 9 2 1 3 6 10 12 13 13 13 15 15 15 15 12
4 4 1 6 1 4 4 4 5 5 8 8 9 10 10 11 12 13 7 7 7 1 4 5 12 15 10 9 8 0 5 2 6 8 11 13 12 12 14 15 17 17 15 13
4 2 3 1 2 3 5 6 3 4 6 8 10 11 11 11 11 10 6 0 2 8 11 13 13 11 10 4 1 2 3 5 8 11 12 11 12 13 14 14 14 16 16 13
3 6 5 6 10 5 5 3 6 9 10 10 9 10 7 9 10 7 4 4 8 16 13 13 15 9 5 3 1 3 6 7 9 9 11 11 13 14 16 15 13 14 15 14
4 2 3 4 7 5 7 10 9 7 9 9 8 7 11 9 7 11 13 16 15 14 12 12 7 2 3 6 6 6 6 7 8 8 9 12 13 15 15 16 16 15 16 19

GFSCGP_925_spd_024.txt.gz
Wind_Speed
9 7 4 9 13 12 15 13 15 12 12 10 11 14 13 13 11 13 11 14 14 11 14 15 10 10 15 26 28 26 23 21 19 16 10 11 9 11 12 11 9 7 7 5
6 2 7 14 13 13 15 10 8 8 5 7 11 11 15 14 15 14 13 15 16 16 15 15 13 11 9 19 24 22 19 17 16 15 16 15 17 14 15 11 9 7 6 3
6 5 17 19 9 12 13 3 8 6 9 9 9 13 15 13 14 15 15 14 15 16 16 13 15 15 13 18 23 20 17 17 18 18 18 16 18 16 14 9 13 8 4 2
9 22 23 6 13 10 6 11 4 11 11 7 6 6 6 16 12 14 12 13 14 14 15 14 14 15 18 22 21 17 21 20 15 16 14 13 13 14 13 13 9 5 1 3
11 10 12 9 2 12 3 15 12 16 8 4 11 6 10 20 11 15 12 11 11 13 13 14 15 21 19 18 22 24 20 16 14 8 15 11 16 14 12 10 6 2 3 6
6 10 2 6 9 13 12 10 13 9 8 2 15 11 7 14 19 8 10 11 10 9 11 13 19 21 20 18 19 19 18 16 13 13 12 16 15 14 15 9 4 3 6 6
10 11 6 12 10 3 8 9 6 6 6 4 14 7 9 17 10 17 24 16 12 10 12 13 14 19 19 18 18 18 19 18 17 16 16 16 15 13 10 5 4 2 4 7
7 8 9 7 11 6 17 11 2 4 3 11 9 5 3 17 14 21 20 14 13 12 11 13 17 19 20 20 20 21 21 20 19 18 18 18 13 9 10 10 6 2 3 6
6 4 18 5 3 4 6 2 3 9 14 3 4 17 6 8 9 5 17 15 14 14 13 14 18 21 21 20 21 21 22 21 20 20 16 12 11 13 12 7 4 2 4 6
9 5 27 8 4 7 6 7 3 2 2 4 8 13 4 6 5 3 11 13 14 13 15 13 16 19 20 20 21 20 21 23 22 19 16 12 15 13 10 7 4 2 4 6
5 18 6 6 7 9 6 6 7 8 4 1 3 3 7 7 5 5 5 14 14 15 14 13 15 21 20 20 20 19 20 23 20 16 15 15 15 14 10 7 5 3 6 8
6 3 4 10 2 6 8 9 10 3 4 2 1 7 4 5 4 3 4 6 15 15 14 14 17 19 18 19 20 20 20 20 19 16 16 16 16 13 13 8 5 6 7 9
1 2 4 8 7 8 8 11 10 5 3 5 3 4 4 4 1 1 4 6 8 13 14 14 16 17 18 20 21 20 21 18 16 16 18 16 16 13 10 7 6 7 9 10
4 5 8 6 10 4 7 12 10 10 3 3 8 13 8 9 9 6 7 4 6 9 11 12 15 18 21 20 22 21 22 18 15 16 14 18 18 16 8 6 7 9 11 11
2 7 10 13 15 3 10 11 8 12 10 10 10 14 12 9 8 4 3 6 5 8 11 11 11 12 20 20 22 23 22 18 14 14 19 18 12 6 8 8 9 10 11 13
5 1 3 3 11 14 12 14 13 15 13 14 14 13 10 6 7 8 8 6 2 6 7 5 5 10 16 19 20 21 20 19 14 19 19 8 6 7 5 9 10 13 15 14
6 3 2 2 5 6 5 9 16 15 14 12 10 10 7 11 5 5 4 6 3 5 6 6 3 6 11 16 20 20 18 15 15 16 10 9 5 6 9 11 11 13 15 14
3 3 1 1 1 1 7 3 5 5 8 10 11 9 10 13 11 6 6 5 6 1 4 5 4 8 12 12 15 18 17 15 14 8 2 6 9 7 9 11 14 15 13 13
6 4 2 2 4 7 11 2 2 1 3 11 10 11 11 10 8 9 9 8 7 8 5 5 7 5 7 9 11 16 11 7 11 8 10 7 6 10 12 12 13 13 15 16
3 4 1 3 2 4 0 4 2 2 2 9 9 8 8 9 3 4 11 9 3 7 8 8 5 4 3 10 11 12 17 14 13 9 8 16 11 11 13 14 14 16 15 15
2 1 4 3 2 5 3 5 1 2 3 4 6 7 7 6 4 3 4 6 14 12 10 8 19 24 25 22 21 23 20 18 13 13 6 8 9 10 12 15 15 15 16 17
6 6 3 2 2 5 5 5 3 4 4 7 7 7 5 6 6 7 9 6 7 12 16 25 27 27 27 24 25 22 18 9 3 4 7 9 11 11 12 11 14 16 18 20
3 4 2 7 4 5 3 3 3 5 4 4 5 6 7 7 8 9 8 6 8 19 26 26 24 22 19 19 18 14 7 3 2 10 9 10 11 11 11 12 14 16 15 18
4 4 1 2 4 5 3 1 0 5 7 9 9 8 9 8 10 9 6 9 12 21 21 20 19 18 16 14 11 5 3 7 6 8 10 11 10 11 13 14 15 15 9 15
1 8 6 6 8 5 7 12 10 8 9 10 10 13 13 9 9 12 15 15 19 20 18 17 17 15 9 5 4 6 7 5 8 10 10 10 11 13 15 15 16 11 14 15
6 3 3 3 8 3 9 11 9 11 10 11 11 13 15 16 15 17 14 17 16 16 14 12 10 8 7 8 6 6 7 9 9 9 10 10 12 13 14 16 16 15 18 19

GFSCGP_925_spd_027.txt.gz
Wind_Speed
6 1 3 4 2 4 9 6 10 9 6 9 8 8 9 9 7 9 8 6 12 10 14 25 26 33 33 40 38 38 34 29 27 27 17 12 14 17 15 18 16 11 8 8
6 2 3 1 8 8 13 9 14 5 7 5 3 8 10 9 7 15 12 10 9 8 10 17 16 24 31 34 37 38 34 28 25 27 19 16 19 19 21 17 13 11 10 6
2 6 4 8 10 13 4 4 8 3 2 3 3 5 6 3 8 13 14 17 15 15 13 9 16 26 31 32 38 35 32 27 23 25 23 22 22 24 19 16 15 12 7 5
2 10 5 7 14 3 4 6 5 4 5 1 4 1 4 4 3 2 9 10 16 12 14 13 17 20 30 28 32 29 26 24 26 26 23 29 29 26 20 21 16 11 9 8
4 4 9 8 14 4 7 4 3 2 2 1 1 5 6 4 8 5 5 7 10 16 18 16 16 24 30 31 26 26 22 23 23 23 29 31 25 23 26 22 18 15 9 6
7 6 2 7 7 3 7 2 3 3 2 2 5 5 3 5 20 4 5 9 7 10 11 11 23 27 28 24 21 24 21 22 20 26 25 27 31 29 26 20 16 11 6 4
7 8 5 2 3 5 5 5 3 5 6 4 10 2 11 13 8 15 19 13 3 10 13 12 13 17 22 23 23 27 27 22 22 23 27 29 29 25 20 16 11 9 7 3
3 3 4 4 3 4 4 5 4 4 2 4 11 4 6 18 14 15 14 4 5 9 10 13 15 20 27 27 27 25 26 25 22 22 23 23 20 18 13 12 11 9 6 2
4 1 5 10 4 2 4 1 6 6 4 4 5 8 6 10 7 4 6 5 8 9 9 12 17 24 27 23 21 22 25 23 21 20 21 18 15 12 14 13 9 6 3 2
5 2 3 8 7 12 4 3 1 3 4 4 4 3 2 5 5 9 8 9 9 9 10 11 16 23 28 25 22 19 25 25 24 23 20 15 11 13 14 11 9 6 3 4
5 4 5 3 5 12 1 3 2 3 5 4 1 4 3 5 5 10 10 13 15 14 13 13 16 25 31 30 29 23 25 27 26 23 18 11 13 13 13 10 10 6 5 4
10 5 4 15 15 6 4 5 5 5 5 2 4 5 3 6 5 7 8 12 13 15 15 14 21 25 28 32 33 29 26 30 27 21 15 11 14 14 13 11 9 7 7 5
2 0 2 7 6 5 3 4 4 4 3 4 5 5 1 5 5 5 6 7 10 12 12 13 16 23 27 28 34 32 29 32 27 22 16 14 15 15 13 12 10 8 6 6
4 3 6 6 7 2 3 3 5 5 4 3 5 5 10 6 8 7 7 5 9 13 15 15 13 19 27 31 33 35 31 31 28 23 16 16 17 18 13 15 8 5 6 7
4 4 1 3 5 5 4 3 6 5 6 6 8 7 10 0 6 5 6 4 4 7 4 7 12 12 21 23 26 31 31 30 27 21 19 16 14 18 15 5 3 2 7 11
1 1 2 2 6 7 4 6 7 7 6 2 3 6 6 7 7 8 7 7 7 6 7 8 9 11 18 22 26 31 33 31 28 25 18 13 9 11 9 4 6 7 8 11
5 5 3 3 4 5 6 7 7 5 4 4 4 5 10 11 9 7 6 8 7 5 7 8 7 10 17 25 32 31 33 32 25 17 13 15 11 5 6 7 12 14 17 16
5 5 3 3 3 1 8 1 5 5 5 8 8 8 8 6 8 13 9 9 9 8 7 6 5 6 20 25 28 29 31 27 16 19 20 13 9 6 9 9 11 15 14 14
4 5 2 4 4 5 7 3 2 3 4 5 7 8 7 7 6 7 8 8 6 5 4 6 9 9 11 15 24 25 25 26 25 21 21 17 14 10 6 9 16 15 14 18
6 5 4 2 4 6 6 3 5 4 2 4 8 8 7 7 5 3 5 6 8 21 21 26 26 29 31 26 32 35 28 29 25 22 18 15 8 4 10 13 11 15 18 17
3 3 5 2 2 7 6 5 2 6 6 4 5 5 6 3 4 3 3 6 24 23 24 27 32 30 27 28 34 31 28 25 21 16 10 4 3 9 9 10 16 10 13 18
6 6 3 3 3 6 6 3 6 6 3 6 4 3 4 3 6 6 9 14 18 21 23 25 28 26 26 26 29 24 22 13 9 5 3 4 7 9 10 10 10 15 18 17
1 6 5 6 6 7 3 7 6 7 6 5 6 6 6 8 6 7 13 14 18 21 21 22 24 22 21 21 20 18 11 7 6 2 5 10 8 11 8 12 14 16 17 15
1 4 4 5 2 2 3 10 9 9 10 12 12 10 8 7 12 14 13 12 16 18 19 19 20 17 15 12 11 11 7 4 4 7 9 10 9 10 12 14 14 16 19 11
5 4 6 2 2 11 10 7 11 13 13 15 16 15 12 14 13 13 12 12 15 15 14 15 14 13 11 9 8 7 6 9 8 10 12 13 12 12 13 14 14 15 11 15
3 6 4 4 2 9 5 7 12 15 13 12 13 14 15 15 11 13 9 12 12 13 15 16 13 10 7 5 3 7 7 10 13 14 14 14 14 15 14 16 16 13 18 16

GFSCGP_925_spd_030.txt.gz
Wind_Speed
2 4 2 5 5 2 2 5 7 13 9 5 8 7 9 10 8 10 9 10 12 18 22 32 35 34 32 34 40 37 36 35 33 30 23 17 15 17 16 15 14 14 12 13
4 2 3 4 2 4 5 7 8 12 8 6 6 6 8 9 11 14 13 12 14 11 14 22 32 32 34 39 38 40 40 39 35 32 26 17 15 19 16 18 16 14 12 10
5 5 3 2 3 4 6 5 6 5 4 6 5 5 1 3 5 8 12 17 14 19 20 18 27 33 32 31 37 40 38 36 35 31 24 17 19 18 23 22 18 15 10 7
3 1 2 3 3 4 7 6 5 6 4 0 3 2 4 4 7 13 7 6 13 15 16 14 24 27 34 36 36 37 37 36 31 32 29 26 28 27 27 26 20 15 11 8
6 5 3 2 7 2 9 4 2 2 4 3 3 3 5 2 6 10 12 13 11 13 17 15 20 29 32 37 40 39 35 32 30 31 30 29 31 31 28 25 21 16 13 10
4 3 5 7 6 5 5 3 6 5 3 2 4 4 5 4 10 6 6 9 14 11 9 7 18 25 26 32 33 32 33 30 27 28 28 30 34 30 28 25 21 18 14 10
4 4 6 3 2 3 3 5 3 4 4 5 5 4 8 7 8 11 12 7 8 11 12 11 14 20 24 28 34 34 30 25 25 28 30 32 34 32 30 26 22 17 14 9
4 4 3 3 4 2 5 5 5 4 2 4 4 5 6 7 10 8 3 9 7 9 11 14 15 22 26 29 31 28 29 25 23 27 28 30 30 30 28 23 18 15 11 7
5 4 5 5 4 5 4 2 4 6 4 2 4 5 6 5 5 2 6 7 7 8 10 12 14 21 26 28 32 34 33 28 26 26 27 27 26 23 19 15 12 11 8 5
7 1 5 6 3 4 6 4 1 3 3 3 4 4 4 2 4 4 2 6 7 7 8 10 14 21 27 30 32 33 31 30 27 26 26 24 19 15 15 15 12 10 7 5
6 4 3 2 3 7 2 0 2 4 4 4 1 5 5 7 7 8 9 9 11 14 14 15 17 26 32 34 34 33 32 32 31 31 29 24 20 17 17 14 12 11 8 5
8 5 3 10 8 2 4 6 6 5 4 1 4 5 4 7 8 7 8 8 9 13 16 16 22 26 28 33 35 39 39 38 37 34 30 25 20 19 20 17 15 14 9 12
7 1 2 7 6 4 5 6 4 4 4 6 5 5 3 4 5 8 10 9 11 12 11 13 13 21 27 30 34 39 42 40 37 34 30 24 22 22 22 19 17 16 14 12
8 4 7 7 6 3 2 1 3 5 3 4 6 5 7 9 8 8 7 8 10 11 11 12 12 17 24 28 26 24 28 34 36 35 30 26 25 23 23 19 15 17 15 11
4 5 4 4 4 1 1 5 4 5 5 5 8 8 10 3 2 7 7 3 3 6 5 6 7 7 15 18 19 23 32 35 38 36 31 27 24 22 22 19 16 13 6 3
2 3 1 2 3 3 3 6 5 5 3 5 5 4 6 5 5 8 7 8 7 6 5 3 10 12 17 22 25 27 33 35 37 35 30 23 21 18 16 17 13 7 5 4
5 6 3 4 4 4 5 7 7 6 3 4 4 4 4 7 7 5 5 8 8 7 6 5 6 10 16 23 30 32 32 33 31 22 20 17 20 22 17 13 10 10 6 12
6 5 3 3 3 2 7 5 3 9 5 6 9 5 5 9 5 7 5 6 7 6 7 7 6 6 13 18 20 17 18 21 20 20 21 24 22 21 18 14 9 4 11 13
3 4 2 4 3 5 6 4 5 5 1 1 6 5 4 6 5 6 5 7 7 7 9 13 17 19 20 19 21 27 27 27 27 23 24 23 20 15 10 6 3 11 7 10
7 6 4 3 4 7 7 4 3 5 1 5 7 4 4 4 3 3 6 7 11 15 14 16 21 26 29 25 28 34 28 30 29 26 21 11 7 4 1 5 9 8 13 9
4 3 5 2 3 7 8 6 2 5 6 6 6 6 5 3 4 4 9 12 15 16 17 20 24 26 25 25 31 29 26 23 16 11 7 0 3 1 7 8 10 11 7 12
7 6 3 3 2 7 6 4 7 6 4 7 5 4 7 7 9 10 10 11 12 15 17 20 23 22 22 21 22 21 17 9 4 3 4 1 3 9 8 9 8 10 13 14
2 7 6 8 6 5 2 3 4 6 7 4 7 4 8 8 8 10 10 10 12 14 16 17 19 19 17 15 14 15 9 9 8 4 1 7 7 8 9 8 12 13 13 15
2 5 4 4 4 3 6 7 6 5 10 7 6 7 10 13 11 12 10 9 11 13 13 13 17 17 17 16 15 12 8 4 2 4 6 8 10 10 12 14 14 14 15 18
5 7 6 4 1 9 8 6 10 13 12 14 13 12 12 14 12 11 9 9 13 13 14 16 16 15 13 10 8 7 7 7 8 11 13 14 14 14 16 16 16 16 17 15
5 7 5 5 11 5 4 5 7 12 10 10 15 13 12 14 12 14 10 13 13 14 15 14 13 11 9 8 8 10 11 12 12 15 17 18 18 19 19 20 23 20 20 19

GFSCGP_925_spd_033.txt.gz
Wind_Speed
3 4 2 4 4 2 3 2 2 4 5 5 8 5 14 11 6 8 8 10 14 17 23 24 26 29 27 26 30 30 33 33 32 32 28 24 22 18 16 15 15 16 18 16
4 1 5 5 7 4 6 5 10 9 7 8 7 6 5 10 12 12 13 12 14 14 12 20 24 26 27 32 36 36 36 37 38 37 32 26 21 18 18 20 18 14 14 14
4 5 1 1 2 1 2 3 7 8 4 4 6 3 4 4 4 6 8 14 14 18 19 16 23 29 29 33 41 43 41 40 40 36 30 21 20 20 20 21 18 16 13 12
4 3 2 2 2 4 5 3 6 4 1 2 4 3 4 6 13 9 13 11 16 17 17 17 23 28 32 36 35 36 39 41 40 37 32 28 27 24 22 26 21 18 14 11
6 4 3 2 5 6 9 3 5 1 3 3 4 4 5 0 8 15 15 16 15 17 17 17 21 28 31 28 34 37 39 38 39 38 35 29 28 28 26 25 22 18 14 11
5 4 3 5 2 6 3 2 4 4 2 2 3 4 5 5 12 11 15 17 14 11 9 9 19 22 23 28 35 38 36 38 37 36 36 29 26 27 26 25 22 19 16 13
2 3 2 2 2 4 5 5 3 4 4 4 2 1 8 7 8 9 10 14 13 12 12 12 14 22 23 31 36 32 33 34 36 34 31 29 25 27 26 30 26 22 18 14
4 4 4 1 4 4 1 5 4 3 3 4 3 4 6 5 6 6 6 9 6 9 14 16 19 24 26 29 30 28 31 34 33 31 26 28 27 29 29 31 27 23 20 15
4 4 2 3 2 3 3 2 3 6 3 2 3 6 10 6 4 6 5 6 8 9 12 15 17 23 23 27 30 35 36 30 30 30 30 30 28 28 30 28 23 20 17 13
6 1 3 4 2 4 2 6 1 3 2 3 4 4 5 5 6 3 7 8 8 6 7 8 12 19 23 29 32 36 35 34 33 30 30 30 27 29 32 30 28 23 17 15
5 4 4 1 5 9 2 2 3 4 5 4 1 5 7 6 5 7 8 6 8 8 10 11 13 22 27 30 30 31 34 35 33 32 32 33 32 30 28 27 25 22 19 18
8 6 4 9 3 4 3 2 5 4 4 1 4 6 4 8 6 5 9 5 6 7 10 12 14 18 23 29 32 37 39 40 38 34 32 31 31 29 28 28 25 20 20 17
7 1 2 7 6 4 1 4 4 4 3 6 5 6 3 5 7 7 8 8 7 7 6 5 7 13 20 25 27 27 26 27 33 33 31 32 31 30 31 28 25 23 22 19
9 4 7 7 8 4 2 3 4 5 3 3 6 6 6 8 7 8 9 8 6 7 9 7 6 9 17 19 21 24 25 29 31 32 34 33 33 33 31 29 27 24 22 18
6 5 4 3 3 4 5 5 6 7 5 6 8 7 8 4 7 7 6 2 1 6 7 7 6 6 13 14 19 23 26 28 29 34 35 36 34 30 27 25 20 19 14 10
2 3 3 3 3 3 4 7 6 5 4 7 5 6 3 3 2 6 7 7 7 6 5 8 9 11 15 20 21 23 27 32 33 33 28 21 19 15 11 10 15 15 11 7
5 6 4 4 2 2 6 8 7 7 6 6 6 8 2 2 4 5 6 7 7 7 7 8 6 4 10 17 25 27 25 25 23 16 14 14 14 18 23 20 15 10 5 3
6 6 3 3 3 1 7 2 7 5 2 4 5 5 4 5 4 5 4 6 7 6 7 7 9 9 7 5 9 11 13 16 17 18 21 24 27 25 17 13 8 2 3 7
2 6 3 4 4 4 4 4 6 5 3 3 6 7 6 5 4 7 7 8 6 6 7 10 14 15 18 18 18 23 25 26 28 26 29 24 18 13 7 3 6 8 5 7
5 6 4 3 5 8 8 4 4 6 2 5 5 6 7 3 3 3 4 5 8 12 13 13 17 20 22 21 23 30 26 29 28 25 18 13 9 8 5 1 3 6 10 14
3 4 5 2 3 7 8 5 5 6 7 8 8 7 6 5 3 5 7 9 12 13 15 18 21 22 21 22 27 29 26 22 15 10 6 2 0 2 2 6 10 11 14 12
7 7 4 3 3 7 6 5 8 6 2 7 5 6 6 8 8 9 9 8 10 12 15 17 20 20 19 19 22 18 17 11 7 5 3 2 1 4 8 9 10 12 12 16
2 7 6 8 6 4 3 4 3 5 8 6 7 6 10 11 6 9 8 7 9 13 16 19 21 22 19 16 14 16 11 9 9 6 3 4 6 7 9 11 11 14 17 18
3 4 4 4 2 4 2 3 4 3 5 5 4 7 8 12 11 11 10 8 10 14 16 17 18 17 17 17 16 13 8 6 6 6 7 9 10 12 13 14 16 17 19 21
5 8 7 1 1 3 4 3 6 10 10 12 10 7 13 15 11 12 10 8 12 14 15 16 16 15 14 12 12 10 9 8 9 10 12 14 16 17 19 19 20 21 23 22
5 7 6 6 11 5 5 7 8 10 9 9 14 11 10 13 13 15 9 13 14 14 16 16 15 14 13 14 15 15 14 13 12 14 16 18 20 21 22 25 28 27 29 30

GFSCGP_925_spd_036.txt.gz
Wind_Speed
3 4 2 5 5 4 3 2 3 5 4 6 9 5 11 12 8 7 9 7 8 11 13 17 22 25 26 24 23 25 25 25 24 25 24 23 24 21 16 16 13 13 14 16
5 3 6 4 3 4 2 4 6 6 3 5 4 6 12 13 16 15 15 12 14 13 7 13 20 26 30 31 29 28 29 29 29 30 29 26 24 20 18 14 12 12 15 17
5 4 2 3 3 4 4 2 5 4 5 1 4 2 5 5 5 7 9 11 9 12 13 12 18 26 31 34 36 34 34 31 31 32 30 23 22 18 18 17 17 17 17 18
4 4 3 1 2 4 2 5 3 5 1 1 3 3 4 5 15 8 13 10 13 12 9 10 17 22 27 27 30 34 34 32 32 32 33 31 31 23 24 25 22 20 19 18
8 2 5 3 5 5 8 3 2 2 2 3 3 4 4 4 7 18 15 15 14 14 14 13 18 27 30 31 31 33 35 37 34 35 36 34 28 27 21 25 24 23 20 16
5 2 4 5 4 6 1 2 6 4 3 2 3 4 5 5 12 17 15 15 16 13 13 13 19 19 24 30 31 34 34 36 36 38 38 36 33 25 21 28 27 23 22 19
2 3 2 3 2 2 3 5 3 3 4 4 3 2 8 8 4 8 11 16 17 15 13 10 11 17 22 28 30 32 31 29 31 34 36 37 31 26 28 33 33 29 26 23
5 5 6 3 6 7 3 6 5 2 2 3 3 5 6 2 5 7 8 7 8 9 11 13 14 21 25 28 29 29 32 33 36 35 34 34 33 29 30 34 36 33 29 26
4 4 1 1 1 2 3 2 4 6 3 2 3 6 9 3 4 6 6 2 8 9 12 15 12 22 23 27 31 34 32 36 34 37 39 37 33 33 35 36 35 33 29 27
7 2 1 1 2 2 2 6 3 3 2 3 4 4 5 7 4 2 5 7 6 4 7 6 8 17 22 25 30 30 33 39 39 36 37 34 32 34 35 35 36 34 31 28
5 4 4 0 5 8 2 2 4 5 4 4 1 5 7 7 6 6 5 8 8 7 7 7 7 16 22 24 27 33 35 33 33 32 30 32 32 31 29 31 36 34 32 27
7 6 4 9 3 3 5 6 6 5 4 1 4 6 5 8 6 5 9 4 5 7 7 6 6 11 19 26 27 28 30 30 32 28 27 27 28 25 26 32 35 35 33 23
7 1 2 7 5 4 4 4 3 5 3 6 5 6 3 6 7 5 7 8 3 5 7 6 6 10 14 14 17 24 25 25 26 25 24 25 27 28 31 33 35 32 28 18
7 4 7 8 8 4 4 6 5 5 4 4 6 6 8 8 6 9 8 6 6 6 7 6 6 6 9 12 16 20 22 23 25 24 26 28 29 26 25 24 24 24 19 20
7 7 5 4 4 4 5 4 8 7 5 6 7 8 9 7 5 7 6 3 3 3 4 4 4 4 8 11 11 14 18 18 19 19 22 23 23 22 21 19 20 18 16 15
1 5 4 2 2 2 3 5 5 4 3 5 6 7 7 3 1 4 4 5 7 7 6 4 3 1 4 10 14 16 17 18 17 20 21 16 15 12 13 15 17 16 19 17
7 7 4 4 3 4 7 9 9 6 5 7 7 10 6 2 3 3 5 6 8 8 8 9 9 11 11 2 8 10 10 12 13 12 12 11 11 13 16 19 19 17 13 8
8 7 2 3 2 2 7 1 3 8 7 6 5 3 6 7 4 6 6 5 8 7 9 8 10 14 18 15 14 13 12 14 17 17 17 18 21 24 21 16 14 9 7 8
2 6 3 5 4 5 4 5 7 8 8 7 6 6 7 7 5 6 7 8 7 6 6 9 15 17 18 18 17 20 22 23 24 23 24 24 22 19 14 10 7 4 10 11
5 6 5 3 5 8 8 5 5 4 4 8 8 9 9 6 4 3 5 4 7 11 14 16 18 20 21 18 20 25 25 26 26 25 22 16 12 7 4 1 6 7 9 11
3 3 5 2 3 7 8 4 4 6 8 8 11 8 8 5 3 7 8 8 12 14 16 19 22 22 21 21 26 27 25 22 17 13 10 6 3 3 6 5 6 10 12 15
7 7 3 3 3 7 7 4 9 7 1 6 7 8 7 8 9 9 9 8 10 14 16 19 22 23 21 22 25 22 18 11 9 8 8 7 4 2 5 8 9 11 14 15
3 6 7 9 7 4 6 5 5 4 6 7 8 6 10 12 6 7 9 9 10 15 19 21 23 24 21 18 19 21 14 12 10 9 8 7 7 7 8 10 12 14 16 18
3 3 4 4 5 6 5 3 2 2 4 5 4 8 9 10 11 12 10 9 11 16 19 22 24 21 21 19 18 15 12 10 10 10 11 11 12 12 13 14 15 17 20 23
4 8 7 3 4 2 6 5 4 4 7 9 8 5 11 15 12 12 10 9 13 16 18 18 18 19 19 18 19 17 14 11 12 11 12 13 14 15 17 17 18 20 21 21
5 7 6 7 9 7 5 9 7 7 6 8 14 10 8 11 13 13 10 14 16 17 18 19 19 21 20 19 18 16 15 14 13 14 14 15 17 18 19 21 23 21 20 21

GFSCGP_925_spd_039.txt.gz
Wind_Speed
1 2 5 8 5 4 4 3 0 2 3 3 9 6 13 14 10 10 11 10 11 12 10 15 19 20 20 21 22 23 23 22 20 20 18 16 18 20 20 19 16 15 16 16
1 3 3 3 5 5 3 1 2 1 2 6 5 6 2 13 11 13 13 12 13 11 9 14 19 21 25 26 26 24 25 25 24 22 22 16 18 20 21 19 17 17 17 20
4 3 2 3 3 4 2 1 2 3 1 2 2 2 2 6 10 9 12 10 12 13 13 12 19 23 23 26 26 25 24 26 26 24 24 21 19 17 17 18 18 18 20 21
4 1 2 2 4 3 2 1 3 3 1 2 1 2 4 5 10 11 14 13 16 15 14 14 21 24 25 26 26 28 28 29 27 27 23 26 21 18 17 20 20 21 22 22
4 4 3 5 5 5 4 3 1 1 2 2 1 1 1 1 9 17 18 17 17 17 17 18 21 24 24 26 27 28 25 26 24 27 25 28 23 21 21 22 21 21 22 22
3 2 5 5 3 4 4 2 4 3 2 1 1 2 3 4 7 8 16 18 18 17 18 19 24 22 23 22 23 24 22 19 22 26 28 30 25 27 22 25 24 23 23 23
0 3 2 3 3 1 2 2 1 1 1 2 3 1 6 5 6 9 11 17 20 18 17 17 18 22 23 24 25 25 23 25 27 27 30 31 33 32 28 28 30 29 28 26
6 3 7 4 5 6 5 4 4 3 3 1 1 4 2 3 6 8 8 11 9 14 15 17 19 23 24 24 23 24 25 27 29 29 31 32 31 31 29 29 33 34 34 32
4 4 1 2 2 3 3 3 2 6 2 0 1 4 8 1 1 3 3 5 7 8 12 17 16 21 21 23 27 27 24 25 32 25 29 28 28 28 31 31 31 34 35 33
6 1 1 2 2 3 2 6 2 1 3 3 2 3 3 3 2 3 7 5 6 6 7 9 10 15 17 19 19 20 23 27 32 26 23 25 24 26 31 31 31 31 35 35
5 2 2 2 5 7 3 3 4 3 1 3 2 4 6 6 2 4 5 6 7 7 6 5 7 9 12 14 17 21 21 20 19 23 26 24 24 26 27 28 30 34 37 33
5 4 4 7 1 2 3 6 6 3 5 1 0 5 3 7 5 5 7 4 4 6 7 4 6 7 9 12 13 14 16 18 21 22 23 24 24 25 27 29 31 32 34 29
7 2 2 2 1 1 4 5 4 4 2 7 4 4 1 3 6 5 8 5 3 4 5 5 4 4 6 7 8 11 14 17 19 18 16 15 16 17 18 22 23 25 25 28
9 4 6 10 7 4 4 5 5 5 3 4 6 6 7 7 6 9 6 7 8 5 3 2 2 2 2 4 6 7 7 8 8 8 8 9 11 12 13 16 18 24 28 29
6 7 6 4 3 5 5 6 11 9 6 7 8 9 8 7 6 5 6 5 4 5 4 3 3 4 4 4 5 5 6 7 7 7 7 8 9 10 11 12 13 16 20 21
3 4 5 4 3 5 5 3 9 10 2 8 5 10 9 3 3 1 2 4 8 9 10 10 8 6 4 2 2 5 8 7 7 7 8 9 10 9 10 10 12 13 13 15
4 7 4 4 1 1 4 8 10 4 5 6 8 11 4 6 6 5 6 8 8 8 9 10 10 11 11 10 7 8 8 9 10 10 10 11 12 13 13 15 19 22 20 14
6 4 2 3 2 7 2 1 3 11 9 10 8 7 6 4 6 6 4 9 8 7 9 9 10 12 13 14 16 16 15 15 15 14 14 14 16 19 21 21 16 13 10 6
3 5 3 5 5 4 2 5 7 7 15 11 13 6 6 12 8 4 3 6 8 8 9 12 12 14 15 16 17 20 20 18 18 17 16 16 18 17 15 12 7 4 5 9
5 3 3 3 5 9 4 3 5 4 13 8 11 11 17 12 7 5 8 7 9 11 12 14 15 16 18 17 18 23 21 21 21 19 18 15 12 9 7 3 1 5 6 8
3 2 5 3 3 6 6 4 6 6 12 6 12 14 16 9 1 11 12 10 11 13 15 16 18 20 19 19 22 25 22 19 15 13 11 10 8 7 5 4 3 5 7 9
7 8 4 3 2 6 8 6 10 6 2 5 10 12 11 10 13 14 13 12 13 16 17 18 22 21 19 18 21 20 17 12 13 14 13 10 7 6 5 5 6 8 9 10
4 6 7 9 7 2 10 4 8 4 4 5 11 10 13 16 11 14 14 13 14 18 19 19 22 22 19 18 19 20 13 12 13 13 11 10 8 7 7 6 7 9 9 11
3 3 4 3 6 7 7 3 3 5 5 5 7 14 16 15 17 16 14 14 15 19 20 21 23 22 19 17 17 16 14 12 12 11 10 8 8 7 8 8 8 10 12 14
3 7 6 3 4 2 9 11 6 6 6 9 9 9 13 19 17 17 15 15 19 20 20 20 21 20 19 16 18 17 15 11 11 10 8 8 8 10 10 10 10 10 10 12
5 7 5 7 9 7 8 14 10 11 11 13 14 13 13 16 19 18 15 20 22 21 21 21 20 21 17 17 17 14 12 11 9 9 8 9 9 9 9 10 11 10 10 12

GFSCGP_925_spd_042.txt.gz
Wind_Speed
7 9 9 8 6 6 4 6 6 1 2 4 8 10 7 13 12 12 11 11 13 13 17 21 22 25 26 25 25 26 24 20 18 16 17 15 16 17 15 13 13 13 13 14
6 10 1 2 5 6 6 6 4 1 2 5 7 7 5 12 13 12 12 12 12 12 14 20 23 25 25 27 28 28 28 24 21 18 17 15 16 16 15 14 13 14 14 16
12 5 5 6 8 8 9 7 3 3 1 6 6 7 8 9 11 11 12 12 13 14 16 16 23 26 26 28 28 27 26 24 22 20 17 16 15 13 16 16 15 15 15 17
10 4 6 6 7 10 11 2 3 5 6 4 3 4 7 9 12 15 14 15 14 15 15 16 20 25 27 26 25 25 24 24 22 22 20 21 20 18 19 17 15 15 17 18
10 9 10 8 10 8 7 1 4 5 6 4 6 6 8 5 9 14 17 18 17 17 18 19 22 26 26 25 26 26 26 25 24 24 23 22 22 19 16 16 16 16 16 17
9 1 4 3 4 8 5 3 4 4 5 6 4 6 4 5 5 3 6 17 18 18 18 18 22 23 24 26 27 27 28 28 26 21 21 21 21 21 16 19 19 19 19 19
13 12 6 5 9 7 9 7 6 6 6 7 3 6 8 2 3 6 8 7 14 19 19 19 20 24 25 28 28 29 29 30 27 29 25 29 25 22 24 23 24 24 22 21
14 12 14 11 12 11 13 11 6 4 5 4 3 6 2 3 5 7 7 8 8 12 17 20 19 23 24 26 28 28 29 28 29 28 29 21 22 25 23 24 22 23 26 24
14 12 6 8 6 9 7 8 1 2 1 4 4 5 8 1 2 2 3 4 3 6 12 15 18 23 23 22 25 27 26 26 26 27 25 22 24 23 22 22 21 21 27 27
7 10 6 7 7 4 5 9 5 4 5 6 4 5 2 4 4 1 2 3 3 1 3 6 8 12 16 19 20 21 23 24 23 23 23 19 18 19 19 20 22 24 24 25
10 9 7 7 11 12 6 6 4 3 3 5 5 5 2 6 2 3 1 2 4 3 1 3 5 7 10 13 15 17 18 18 19 19 20 17 17 17 17 19 19 20 22 25
15 9 8 14 5 2 7 9 10 6 6 3 5 8 5 9 6 5 4 3 4 5 3 2 5 7 8 9 10 11 12 14 15 15 16 15 13 11 13 14 14 14 17 24
13 10 11 10 6 4 8 10 10 6 2 11 7 5 5 3 6 7 7 5 5 4 3 3 5 6 9 9 9 10 9 10 10 11 10 10 9 9 10 13 14 16 18 19
16 13 16 12 13 8 8 12 14 14 7 10 11 13 9 12 11 10 5 3 5 6 5 4 6 5 6 8 9 9 9 9 9 8 7 7 7 8 8 8 9 12 12 14
11 15 16 16 16 15 17 15 14 16 16 13 13 14 13 12 12 9 2 3 3 4 5 4 5 6 8 9 9 9 9 9 8 8 7 6 6 6 6 6 7 8 10 12
8 12 10 12 12 13 15 16 16 18 17 13 17 18 14 14 6 7 3 3 5 6 6 7 7 8 9 10 12 11 11 10 9 9 10 9 9 9 9 9 9 10 12 14
8 9 7 14 10 9 10 14 16 15 14 16 16 16 15 11 12 9 5 6 8 10 10 10 10 10 12 12 13 14 14 13 13 13 12 11 11 11 12 12 13 14 13 13
6 9 6 6 4 8 12 4 16 18 18 17 16 17 14 11 4 5 5 10 11 11 11 10 11 13 15 16 17 17 16 16 16 15 14 13 13 14 13 13 12 11 10 8
12 8 4 5 9 10 5 6 9 12 18 15 18 17 9 5 8 6 5 7 10 10 9 11 12 14 16 18 18 20 19 18 18 17 16 16 15 14 12 10 8 5 4 4
7 7 8 4 7 9 9 13 10 4 16 9 12 14 12 13 9 7 13 11 10 12 13 14 15 16 18 17 18 20 19 19 19 18 17 14 12 10 8 5 3 1 2 3
5 4 11 10 7 6 3 10 12 9 14 3 8 10 14 14 5 18 17 13 13 13 15 15 15 17 18 18 20 21 20 19 17 15 14 12 11 10 7 5 3 2 3 4
9 9 5 7 6 10 12 11 11 12 2 6 8 10 15 10 13 17 17 15 14 16 16 16 17 18 17 17 19 20 19 16 15 15 13 10 9 7 5 4 4 4 5 6
4 7 5 9 6 4 20 14 17 7 6 7 9 11 15 15 17 17 17 16 15 18 18 18 20 19 17 16 16 19 17 16 15 13 11 10 8 6 5 5 5 5 6 7
6 4 4 2 9 12 13 15 6 11 9 7 9 14 18 19 19 18 17 15 15 19 19 20 21 19 18 16 16 17 15 14 13 12 10 8 7 5 5 4 4 5 7 8
8 8 7 7 12 4 11 14 15 10 7 7 10 17 21 20 20 20 18 17 19 21 21 21 20 19 18 17 16 14 12 12 12 10 8 7 6 5 4 5 4 5 5 6
7 8 6 7 10 9 15 7 14 15 15 13 15 17 17 19 21 20 18 21 23 23 22 21 20 21 19 17 16 13 10 10 10 9 7 6 5 5 4 4 2 6 6 7

GFSCGP_925_spd_045.txt.gz
Wind_Speed
16 12 14 17 14 16 9 10 10 5 5 4 11 8 5 13 10 11 12 13 16 16 18 18 25 27 23 26 28 26 26 27 18 18 19 18 18 19 18 17 16 15 15 14
12 13 15 4 8 8 10 10 12 2 1 7 10 13 3 14 12 13 13 15 14 17 20 23 26 28 27 28 27 27 28 27 24 19 19 18 18 20 19 18 16 16 16 17
15 3 6 7 9 11 10 13 3 8 7 10 12 13 9 9 12 12 14 14 16 16 19 20 25 26 28 29 29 29 29 27 25 22 19 16 15 16 19 19 19 19 20 19
14 12 7 11 11 12 12 12 4 9 11 6 14 2 19 14 13 14 14 15 17 19 19 20 23 27 28 29 28 28 29 28 25 23 20 20 20 21 19 18 19 18 20 18
16 14 12 13 12 10 10 1 6 10 13 14 11 8 13 10 14 18 17 16 16 19 19 21 23 29 30 30 30 29 29 29 28 27 25 21 19 17 17 20 18 19 18 20
17 13 14 16 12 6 8 6 10 10 11 9 13 10 14 8 13 13 19 19 19 18 20 20 27 29 30 31 31 30 30 30 29 28 25 21 19 20 20 15 18 18 19 18
19 15 15 9 8 11 10 13 9 8 6 10 7 5 3 15 5 2 2 9 20 20 18 20 21 24 29 31 31 31 32 33 32 28 26 28 27 24 24 23 20 16 17 19
16 18 20 13 16 14 15 16 7 5 7 6 5 6 4 9 3 4 6 5 7 15 20 20 22 26 29 30 32 32 32 32 31 29 31 29 30 31 23 23 27 28 25 23
16 19 13 19 14 18 18 18 13 4 8 5 7 7 6 6 3 4 3 3 7 11 15 22 22 27 27 29 29 30 28 29 28 28 31 32 31 22 20 19 24 26 24 21
13 10 12 12 10 16 13 13 10 9 6 9 11 10 1 6 5 4 2 2 3 2 4 10 14 23 27 26 24 27 27 26 24 22 28 32 26 18 18 18 21 25 21 22
18 13 11 12 14 16 13 9 9 6 8 6 7 5 5 3 2 4 2 1 2 2 7 5 7 10 14 17 21 23 24 25 29 29 24 26 19 16 18 18 18 20 20 21
22 11 10 16 18 22 15 19 17 10 12 7 7 12 13 7 9 3 8 5 2 3 1 6 7 9 11 13 15 19 20 22 22 30 23 24 18 15 15 17 18 19 18 20
20 12 12 14 10 11 12 13 11 13 9 12 9 7 4 0 5 6 9 9 5 6 4 5 6 8 11 13 15 15 17 17 17 17 22 20 16 14 12 13 15 15 17 17
15 16 19 14 18 15 18 18 17 16 9 12 13 17 11 12 12 12 11 8 5 6 7 7 8 9 12 12 12 13 12 12 12 13 12 12 11 9 9 8 9 10 11 11
14 22 21 22 20 15 20 20 21 21 18 17 15 16 13 12 9 10 6 2 4 6 7 7 9 9 12 12 12 14 12 13 13 12 12 11 9 10 10 10 9 9 9 11
17 16 21 22 21 18 17 18 19 19 18 18 18 19 13 12 12 10 10 5 8 6 6 6 7 9 10 12 13 14 14 13 12 14 13 13 12 12 11 11 11 11 11 11
17 13 17 16 17 18 17 18 20 18 18 16 17 15 15 14 12 9 11 7 7 8 8 9 9 9 11 13 14 15 15 16 16 17 16 15 14 14 13 12 12 11 10 11
9 12 13 10 3 18 10 16 20 21 21 19 18 18 18 17 14 6 2 7 9 10 10 11 11 14 16 17 18 18 18 18 18 18 17 16 15 15 14 13 13 11 10 9
12 9 9 9 12 14 18 14 11 15 17 18 18 17 16 13 2 6 5 8 12 13 13 14 16 17 18 18 18 19 18 18 18 18 17 16 16 15 14 13 11 9 8 7
12 12 10 7 14 18 13 16 14 14 15 16 14 13 8 5 7 10 15 14 14 14 15 17 17 18 18 18 18 19 19 18 18 18 17 15 14 12 11 10 8 4 4 4
3 5 12 12 8 8 10 13 12 15 11 5 4 7 8 10 11 6 17 16 17 17 17 18 18 17 18 18 19 19 19 18 18 17 16 14 11 10 9 9 7 5 4 2
9 8 6 9 13 16 4 9 12 15 17 7 9 9 9 7 9 16 17 18 17 16 19 18 18 18 19 19 19 19 18 18 17 16 14 13 11 9 8 7 5 3 2 1
14 11 7 9 6 9 14 13 17 16 13 10 11 9 10 14 15 18 18 18 17 20 21 20 19 19 18 17 18 19 19 18 16 15 14 12 10 8 6 4 3 2 2 3
16 4 7 13 11 12 9 15 15 9 15 13 10 10 12 17 18 19 18 17 17 21 21 21 21 20 19 18 16 17 17 16 16 14 13 11 9 7 5 4 3 3 3 3
12 11 13 17 18 18 15 11 12 14 11 11 9 11 14 16 19 20 19 18 17 20 21 21 20 20 19 18 18 17 16 16 15 13 11 9 7 5 5 5 5 5 5 4
13 12 10 8 11 8 11 10 5 13 14 13 13 13 15 18 19 20 18 18 20 20 22 21 21 21 20 19 17 15 14 14 14 13 9 7 6 5 4 3 5 3 2 5

GFSCGP_925_spd_048.txt.gz
Wind_Speed
16 13 15 20 19 19 15 15 11 15 9 7 10 4 17 6 14 14 14 15 15 16 20 21 27 31 27 31 28 29 31 32 31 28 29 27 24 21 26 23 26 26 25 22
16 18 19 20 13 11 12 14 15 6 8 4 11 8 20 18 20 15 16 17 17 15 17 20 29 31 32 34 34 33 33 33 33 32 33 25 24 24 25 24 25 21 21 21
19 19 14 11 10 11 12 15 7 9 9 10 11 13 12 15 14 16 16 16 19 20 20 18 24 28 31 33 35 35 36 35 34 28 27 24 24 23 25 23 20 23 20 20
19 21 12 11 11 13 14 9 11 6 9 10 4 10 6 11 13 12 15 16 17 18 21 20 25 31 34 35 37 35 33 34 36 33 29 24 22 20 23 22 22 25 23 22
19 20 17 12 14 14 12 4 9 9 11 12 5 8 1 10 14 15 14 16 17 19 20 23 23 30 36 34 37 36 37 38 35 30 26 29 23 22 24 30 27 26 21 20
21 18 17 14 15 13 8 8 10 12 11 9 14 9 4 4 9 12 18 16 17 19 21 21 30 30 30 32 33 37 36 36 33 35 32 24 22 22 19 22 29 25 20 20
21 22 19 13 18 13 9 9 8 6 7 8 9 6 6 13 17 13 16 19 18 17 18 19 22 24 30 32 35 32 32 29 30 33 36 32 20 23 26 21 14 17 10 14
17 14 23 12 16 14 13 14 7 6 3 7 10 5 7 13 4 4 3 4 11 17 17 19 20 27 30 33 34 34 33 34 30 32 29 33 34 31 30 26 26 22 19 35
16 22 19 18 13 17 15 14 16 7 7 7 5 7 14 11 7 5 7 5 6 6 14 18 19 28 33 35 37 38 34 32 32 35 39 42 37 27 26 22 25 27 25 26
17 12 19 22 20 19 17 11 10 9 4 4 8 12 5 10 8 8 5 4 6 3 4 8 17 22 31 36 41 42 41 38 36 34 37 40 39 35 23 17 18 20 22 25
20 14 12 13 12 16 12 16 9 15 10 6 4 1 6 12 3 7 4 8 2 3 7 2 5 4 23 30 39 42 37 33 29 29 29 27 30 26 20 18 16 18 20 27
24 4 9 15 16 16 18 17 16 8 8 4 2 6 2 6 7 5 7 5 4 3 1 8 2 2 4 3 8 31 30 29 27 30 29 29 29 22 19 19 18 18 23 23
18 14 10 14 12 17 16 15 13 13 10 12 8 6 4 7 2 6 3 6 9 9 6 6 8 5 5 3 5 10 16 16 19 26 27 23 25 19 19 18 17 18 18 15
0 14 13 10 15 14 15 15 18 13 5 8 10 13 14 7 6 8 6 12 11 6 8 5 9 7 10 12 10 10 11 12 13 22 20 24 21 18 14 14 14 14 15 16
6 15 17 15 18 18 20 21 20 20 15 14 11 16 17 12 6 3 6 4 3 4 4 5 6 10 13 11 13 13 14 12 18 25 23 20 16 13 11 10 10 10 11 12
8 10 12 15 16 20 13 22 19 19 21 19 19 17 15 13 11 14 8 8 9 5 6 6 6 12 14 16 16 16 16 13 15 24 23 23 21 18 15 16 16 16 14 15
10 6 11 12 15 18 19 18 19 15 15 12 15 12 12 8 13 9 7 7 6 6 5 4 5 9 16 15 20 17 17 16 18 18 19 19 19 18 16 17 16 17 16 16
2 11 6 4 1 22 10 13 15 14 15 18 16 13 12 11 11 11 4 3 7 9 8 5 5 11 18 19 19 20 19 19 20 20 19 18 18 18 17 17 17 15 15 13
3 4 2 5 10 12 16 16 11 11 16 19 19 17 16 14 3 2 3 2 7 8 8 8 10 13 17 20 22 21 22 21 21 21 20 19 19 20 19 18 17 15 14 12
10 9 6 2 8 17 9 14 16 14 14 11 13 13 12 10 3 3 9 6 10 11 14 15 17 18 19 20 22 22 22 22 20 21 21 20 19 19 18 17 15 14 13 10
7 8 9 9 7 5 6 14 16 19 8 9 10 15 6 1 1 6 11 10 12 14 17 20 19 18 20 22 23 21 20 19 21 21 20 19 19 18 16 14 13 13 11 13
7 7 6 6 6 13 1 7 18 9 10 7 10 7 3 4 8 10 13 14 14 15 19 22 19 19 21 21 21 21 20 22 22 21 20 18 18 16 17 15 12 11 11 10
7 9 4 7 3 13 10 11 6 7 6 7 6 7 6 10 8 12 13 14 15 14 19 21 20 19 19 20 20 21 21 22 21 20 19 18 16 15 14 14 11 11 11 9
6 17 9 5 14 17 10 6 5 8 8 10 9 9 2 11 12 13 12 13 13 16 18 20 21 19 17 18 19 20 20 20 19 19 18 17 16 14 12 12 9 11 10 8
7 7 13 11 14 17 17 10 17 6 5 7 6 5 7 6 12 12 13 14 13 16 19 20 19 18 19 20 21 21 20 20 19 19 16 14 14 14 13 14 12 8 8 6
10 13 9 4 7 7 5 5 14 6 6 12 5 5 6 5 10 12 11 12 15 16 19 18 18 19 19 19 19 18 18 18 19 18 17 15 13 11 13 12 10 7 5 5

GFSCGP_925_spd_051.txt.gz
Wind_Speed
6 4 9 12 12 17 17 15 9 5 7 4 11 12 12 12 7 9 13 15 13 11 18 24 23 23 24 27 31 32 30 37 37 33 29 30 31 28 24 27 24 26 25 25
9 14 15 16 17 18 13 5 8 4 4 5 10 11 15 13 13 13 17 16 16 13 15 23 26 26 26 28 32 31 34 37 36 23 33 29 30 26 22 27 25 31 31 28
14 10 17 20 20 8 7 6 7 3 3 6 3 5 10 7 4 3 16 19 18 20 19 19 26 29 29 30 31 32 32 41 32 27 27 27 27 25 28 29 33 30 33 32
12 17 19 17 10 5 6 9 4 9 0 3 3 3 9 10 15 20 17 18 19 20 19 18 24 28 30 33 34 35 35 37 35 34 29 31 27 23 28 31 32 32 31 30
11 9 14 14 7 7 10 7 2 4 6 5 5 3 5 19 18 20 14 20 21 22 21 22 24 33 35 34 36 37 40 40 39 39 39 36 32 29 33 34 33 32 29 29
14 10 14 13 7 9 8 3 3 3 2 4 10 5 4 7 10 16 20 21 24 23 23 23 33 34 35 36 37 39 41 43 43 46 45 36 33 35 32 34 35 31 31 29
16 19 16 12 6 5 6 1 3 5 3 6 5 6 8 11 9 16 19 23 22 24 24 22 23 28 34 38 39 40 43 43 45 44 44 42 39 35 39 34 33 37 29 28
13 12 17 13 12 8 7 7 5 5 2 4 6 4 5 8 7 6 12 22 21 23 23 25 26 33 38 43 42 43 41 41 41 43 43 40 44 43 42 35 28 31 36 34
10 17 7 19 6 8 5 5 8 5 2 4 5 5 5 4 4 3 6 9 16 18 20 23 24 35 37 41 44 44 42 40 38 42 44 46 47 35 39 36 31 24 26 28
5 6 14 18 13 10 11 4 3 2 5 4 6 5 4 5 8 6 3 5 6 8 16 19 22 32 39 43 44 45 46 46 48 44 46 49 48 34 33 28 24 21 20 24
19 10 11 7 11 15 5 9 3 5 5 6 2 5 5 5 2 6 7 8 8 6 9 9 12 25 35 36 35 32 23 19 30 39 38 40 40 41 34 24 20 18 18 19
15 4 11 21 17 20 13 11 9 5 5 2 5 5 8 10 10 8 10 9 8 9 8 6 7 12 17 31 27 36 35 40 42 35 33 34 39 33 28 20 21 19 20 19
12 5 10 7 6 8 10 9 5 7 5 6 6 5 7 5 5 4 7 6 8 8 9 7 5 5 7 13 37 37 35 43 40 29 33 32 30 34 32 25 24 21 22 21
15 9 9 14 6 4 4 7 10 8 4 5 6 3 7 10 6 6 5 2 8 9 9 8 7 7 7 9 20 29 33 41 35 41 33 27 28 32 31 26 20 19 20 22
7 8 17 8 11 13 16 14 16 15 9 7 7 7 8 12 7 7 7 5 2 8 7 8 8 7 9 14 20 25 26 29 36 33 33 29 27 25 25 23 20 20 20 19
5 4 9 12 11 7 13 11 9 6 10 12 11 15 17 13 8 6 9 9 7 8 9 8 8 7 9 16 21 25 25 24 26 27 28 28 26 23 21 20 18 16 16 17
7 6 5 7 7 4 14 10 15 13 12 9 8 9 7 9 10 10 11 11 13 10 8 9 9 10 13 19 27 26 23 24 24 26 25 25 26 25 22 20 20 19 18 17
11 4 5 4 4 13 7 9 6 16 14 9 3 4 5 7 8 8 5 8 9 10 9 8 10 11 20 26 29 31 30 30 27 23 24 28 28 28 27 25 24 21 20 18
15 1 3 6 11 5 11 3 3 5 7 4 5 6 7 8 3 1 5 6 7 8 7 7 16 22 25 26 29 31 28 30 29 27 25 26 28 27 26 26 24 23 21 20
13 4 4 1 7 14 3 6 7 4 11 8 6 7 7 2 3 5 6 8 8 8 13 16 24 25 26 28 30 28 25 27 23 25 25 26 26 28 27 25 24 22 21 21
9 3 5 3 3 6 5 8 4 8 3 10 9 7 3 4 6 6 8 6 8 12 16 23 24 21 25 29 30 23 23 20 26 27 27 28 29 30 29 26 24 23 19 18
8 5 3 3 3 7 6 6 11 4 11 13 11 5 2 6 7 10 9 12 12 12 15 22 20 22 26 29 29 23 22 27 30 32 32 31 31 27 23 23 22 20 24 23
12 6 6 8 7 6 4 4 5 8 5 2 4 5 7 6 1 6 8 10 9 10 14 21 21 21 24 26 28 23 22 31 32 31 29 26 23 24 24 25 26 25 23 23
5 5 5 4 5 10 13 6 8 1 10 12 4 3 5 7 9 8 4 7 8 7 11 18 21 17 16 23 25 29 29 30 28 25 25 25 27 27 24 20 24 24 22 20
5 9 7 3 5 2 5 7 3 8 17 15 17 3 4 5 6 9 9 8 7 10 14 20 17 17 18 26 27 27 26 25 25 26 24 25 24 26 25 23 20 20 16 14
4 6 5 5 8 7 9 9 9 8 9 17 10 12 7 10 11 10 10 9 10 11 17 19 21 23 22 27 26 24 24 27 27 24 24 19 22 23 23 22 19 13 11 9

GFSCGP_925_spd_054.txt.gz
Wind_Speed
3 3 9 11 10 5 5 7 11 16 11 4 8 6 8 6 5 9 10 10 9 8 8 14 15 18 17 23 25 25 25 30 34 31 27 27 26 21 20 27 23 15 16 17
4 14 15 9 8 8 8 10 15 10 5 7 5 11 1 4 4 8 12 13 12 7 9 11 14 20 19 21 26 28 32 33 30 30 31 25 26 24 28 23 25 26 24 22
13 6 14 11 13 9 13 12 10 7 4 2 6 6 3 4 6 7 13 14 13 16 14 13 18 23 23 26 29 30 32 36 32 31 32 26 27 26 25 25 26 30 27 27
9 15 14 10 11 10 13 13 6 6 3 3 5 4 4 8 11 8 16 14 16 16 14 15 20 25 29 29 28 31 33 34 37 34 28 29 29 26 26 28 28 31 33 31
9 9 10 15 19 10 9 6 9 5 3 2 4 2 6 12 9 14 16 18 17 18 20 19 20 29 31 29 31 33 37 37 37 37 31 31 28 28 29 30 31 35 35 36
14 5 5 9 10 9 9 2 5 5 2 3 6 6 4 7 19 18 17 17 20 20 19 19 29 29 29 30 31 33 35 40 39 34 35 35 34 36 31 32 34 39 37 36
15 18 14 8 7 4 4 5 2 3 3 6 5 3 8 16 15 20 23 20 21 21 20 20 20 26 29 33 35 34 36 37 39 38 40 43 45 42 36 34 36 39 38 37
9 6 14 6 15 8 7 8 5 5 3 4 5 5 5 6 7 17 21 22 20 21 21 22 24 31 35 37 39 38 38 39 43 44 47 50 46 42 40 36 41 42 40 42
7 8 8 12 8 9 5 3 8 6 2 2 4 7 9 2 2 8 15 15 17 22 22 24 23 33 35 37 41 45 45 45 44 44 44 46 44 41 38 38 42 44 37 37
4 5 8 18 3 7 10 6 4 2 5 3 4 4 6 3 6 5 8 16 18 20 21 21 20 31 36 40 43 43 44 44 45 42 42 41 43 43 40 37 42 39 35 31
13 4 7 2 6 8 2 3 2 5 5 6 2 5 7 9 6 6 6 9 15 17 19 18 18 30 36 36 36 38 36 37 36 35 38 42 41 40 33 36 36 33 31 30
12 11 15 17 9 9 4 8 9 5 5 3 4 8 5 9 9 7 7 8 8 14 19 18 17 26 28 32 30 37 38 42 44 49 51 40 38 36 30 28 28 35 34 28
7 6 2 7 8 2 5 9 11 5 4 8 6 5 2 5 7 8 9 8 8 9 8 11 11 14 21 28 29 32 37 43 47 44 33 34 34 33 35 29 39 36 32 28
6 7 15 15 5 4 4 10 13 9 4 5 7 6 6 8 8 10 6 7 9 7 10 10 8 9 19 29 31 35 36 41 39 36 30 32 34 38 39 43 37 34 34 30
5 8 6 13 17 16 18 11 8 9 7 9 8 11 12 10 10 12 10 9 8 11 8 8 10 9 8 16 24 30 31 34 36 33 31 28 30 34 33 35 35 34 32 27
8 5 4 8 13 9 12 16 15 8 4 8 7 9 8 12 7 5 11 10 9 9 10 11 10 9 12 17 23 26 29 31 30 28 27 28 25 27 28 32 37 30 25 24
5 5 9 15 8 12 12 16 7 6 6 6 6 9 8 9 8 9 11 11 10 10 9 10 12 11 17 22 28 26 27 30 28 24 24 26 29 32 31 31 27 24 22 22
6 1 2 4 3 11 16 12 7 13 11 9 6 6 8 8 10 12 9 10 10 10 10 9 7 8 18 21 22 28 28 25 26 26 25 26 28 28 28 28 26 23 22 21
6 5 3 2 6 4 9 5 7 7 7 7 7 3 5 5 2 3 7 8 13 11 7 6 12 17 23 25 27 28 26 27 27 26 27 28 32 32 31 29 28 24 24 23
12 8 7 6 7 16 3 6 3 3 6 6 5 2 6 1 1 5 6 5 6 8 10 12 17 22 25 25 29 26 22 23 22 26 29 30 30 29 29 29 28 27 24 24
1 2 9 9 5 8 5 6 8 8 6 3 3 2 5 6 7 6 8 4 5 7 12 19 22 21 24 29 29 22 23 20 25 28 28 27 27 28 28 27 26 27 26 25
5 3 3 5 5 7 2 5 4 2 6 6 6 4 7 9 10 6 8 8 9 10 10 16 16 17 24 28 28 21 20 25 27 28 27 27 26 26 27 28 27 26 26 26
5 7 5 6 5 9 4 4 4 4 3 3 4 10 6 6 6 7 7 10 8 11 10 16 18 20 22 25 26 21 22 29 30 29 27 27 27 26 26 28 27 26 26 29
5 7 4 6 14 17 12 5 7 5 5 4 2 7 5 6 4 8 7 7 8 8 10 17 19 15 16 22 23 28 29 30 29 27 26 28 26 23 21 22 23 26 28 27
5 8 11 7 6 5 8 7 6 7 10 4 5 4 5 6 8 7 5 6 9 10 13 20 18 16 17 23 25 28 31 31 27 26 25 22 21 22 21 19 17 21 18 22
5 5 4 6 9 6 7 9 12 7 5 6 3 4 5 4 9 5 7 9 9 10 15 14 16 20 19 24 25 27 29 32 32 26 24 24 25 24 25 26 23 18 13 11

GFSCGP_925_spd_057.txt.gz
Wind_Speed
5 4 10 15 8 5 1 2 4 9 10 7 10 5 10 6 6 7 7 8 8 8 5 12 10 11 12 15 19 25 25 27 25 31 31 27 23 26 29 31 20 21 22 19
3 13 8 6 5 5 5 6 10 9 11 8 6 8 6 7 5 9 12 10 10 6 8 10 14 14 16 17 18 20 26 31 31 31 26 20 26 28 29 34 30 21 18 16
8 5 14 9 5 5 8 7 8 8 8 3 3 7 3 5 4 7 9 7 6 9 11 12 16 17 16 20 21 21 24 28 29 32 28 24 24 21 21 27 31 23 22 19
8 14 5 5 9 8 8 10 13 8 4 4 4 4 5 5 6 8 8 10 11 10 8 8 13 16 19 19 21 21 26 29 28 30 27 25 22 23 24 29 30 27 23 25
10 8 11 14 16 8 10 5 10 11 5 3 2 2 6 1 7 11 12 13 13 13 12 12 13 20 23 20 24 24 28 31 29 29 32 28 26 22 25 26 30 31 29 29
14 2 6 8 8 11 9 3 1 2 3 2 5 5 5 5 8 7 6 12 14 14 12 11 15 18 21 24 24 27 29 34 37 34 35 34 34 34 30 31 33 33 33 33
8 6 4 1 3 3 4 3 3 2 1 6 5 3 8 9 13 13 15 16 16 15 13 12 13 17 21 25 27 29 31 31 34 38 40 40 41 42 39 40 37 36 35 35
10 5 11 6 13 5 6 9 5 6 4 5 3 5 6 7 11 9 10 15 12 15 15 16 17 22 26 29 31 32 32 34 35 39 42 43 41 40 43 39 37 37 37 37
6 6 4 5 6 9 4 5 7 6 3 2 4 6 7 6 5 3 8 8 13 15 17 19 17 26 26 29 35 37 34 34 36 38 35 35 37 38 35 37 36 35 38 38
4 2 4 6 4 5 6 5 2 2 5 4 3 4 5 6 6 7 6 10 13 14 16 16 16 24 30 34 34 32 34 35 31 30 36 37 39 42 40 39 38 35 36 36
10 3 5 4 5 8 2 4 3 2 5 6 1 5 7 7 8 8 8 9 11 13 16 17 18 28 31 29 31 31 34 33 33 38 40 43 45 51 44 37 37 38 33 36
9 5 13 19 8 3 4 7 8 5 4 2 4 9 4 9 7 5 6 8 6 10 17 17 18 24 26 32 31 36 37 37 42 42 42 45 40 38 35 36 38 39 40 35
2 3 10 8 4 5 6 5 7 3 3 8 7 6 3 5 6 7 7 6 8 7 7 11 12 14 23 30 32 36 39 43 46 43 41 39 39 35 37 36 36 40 44 44
4 4 7 12 7 4 4 8 7 10 6 4 8 9 6 8 7 9 9 9 6 9 10 10 9 14 22 30 35 36 40 44 44 43 42 40 39 39 38 40 41 43 38 40
4 2 7 12 10 13 8 7 8 7 10 12 10 10 12 11 10 11 10 6 7 9 8 9 12 13 14 22 29 33 37 37 38 39 40 42 38 37 39 38 40 37 36 37
1 2 7 6 8 8 14 16 20 14 7 8 6 6 7 10 10 6 10 10 9 9 10 12 12 11 12 22 28 32 33 34 34 36 39 36 35 36 37 35 32 33 34 34
3 3 4 4 12 9 10 12 17 8 6 7 8 9 7 5 9 11 13 9 11 13 11 11 13 15 16 24 26 28 31 29 32 32 29 32 32 30 28 32 32 30 32 33
4 4 3 1 6 4 7 6 12 15 14 8 6 6 7 9 8 8 8 10 14 11 10 9 9 13 21 21 22 22 22 26 26 25 25 26 28 27 26 26 27 28 27 27
6 4 3 3 4 8 18 6 4 8 19 13 11 9 7 5 2 7 9 7 12 11 12 10 10 14 22 26 26 21 18 21 22 21 23 25 28 27 27 27 27 26 25 21
5 4 4 3 3 6 5 10 14 6 14 6 9 9 7 6 3 6 10 7 10 9 5 8 16 16 20 21 24 22 20 20 19 21 21 23 25 28 28 27 26 23 22 22
5 2 6 4 3 7 7 10 13 5 13 4 5 5 5 6 9 11 6 8 4 4 6 15 17 16 20 24 25 20 21 18 21 22 22 23 24 25 27 26 24 24 22 24
6 5 4 4 4 8 5 7 4 12 8 4 3 3 5 8 10 7 10 7 6 7 6 13 13 15 22 26 27 20 16 20 22 23 23 22 21 20 20 21 22 23 26 27
2 5 5 7 6 6 4 5 7 19 21 7 3 3 5 6 6 9 8 5 6 7 5 12 14 15 19 23 24 19 21 25 24 22 20 19 18 18 20 23 24 24 26 27
2 4 5 2 7 15 13 12 15 22 21 8 5 5 5 7 8 8 6 3 3 1 4 8 14 10 11 18 19 22 25 25 25 25 23 23 23 22 20 21 22 24 24 23
5 5 3 7 8 11 15 17 20 17 15 10 6 7 5 6 6 5 7 6 4 5 5 10 9 9 11 15 16 20 24 27 25 24 24 24 25 25 23 18 17 19 19 24
3 3 1 3 8 9 10 10 11 8 4 5 5 4 2 5 5 2 6 5 3 5 6 10 13 15 16 17 18 21 25 29 31 27 25 26 27 25 27 30 29 19 13 13

GFSCGP_925_spd_060.txt.gz
Wind_Speed
5 5 11 12 5 4 4 2 3 7 5 2 8 9 15 6 7 8 8 9 8 7 6 11 11 10 13 14 17 21 24 23 30 34 29 24 24 26 26 27 29 27 26 25
3 13 8 8 7 6 3 2 7 10 7 6 8 10 8 5 6 9 10 9 8 7 8 11 13 14 15 15 15 18 22 26 26 28 26 25 26 27 25 25 26 26 20 16
8 5 13 9 6 7 6 6 5 8 8 4 2 7 6 4 4 5 7 5 6 11 14 13 14 15 17 18 20 20 22 28 29 30 31 22 20 18 24 27 25 29 23 19
7 6 5 5 12 9 7 10 10 7 2 4 3 5 6 4 7 7 8 10 9 10 10 13 14 16 18 20 21 21 24 27 31 33 30 25 20 17 19 34 28 30 28 27
8 9 13 6 6 8 9 6 8 5 5 1 3 2 7 3 7 8 10 11 12 11 13 15 15 20 21 23 23 22 24 25 27 35 31 31 28 24 21 29 34 33 35 23
7 2 8 11 6 11 4 4 2 3 3 2 7 5 5 4 9 5 4 12 13 13 13 13 19 21 22 26 27 24 27 29 30 35 35 40 36 34 31 27 29 38 42 34
1 6 2 3 5 4 4 4 1 2 0 5 3 2 10 9 9 10 9 10 11 13 13 13 15 16 22 26 32 32 30 28 33 34 36 38 38 39 36 35 32 32 35 37
9 3 8 5 8 7 7 7 5 6 3 4 1 5 6 6 9 8 8 8 9 12 12 14 16 20 23 28 29 31 31 30 32 35 36 38 37 37 39 39 39 38 38 40
6 5 3 5 6 12 5 5 6 6 2 2 4 6 9 8 9 4 4 6 8 11 14 15 14 21 25 28 31 34 31 31 32 35 37 38 39 39 35 38 41 41 41 39
6 1 4 3 4 3 7 7 3 1 5 4 3 3 5 8 9 9 5 7 8 7 9 11 13 20 26 29 31 34 36 35 35 35 37 38 38 40 38 37 39 41 43 43
3 3 4 3 4 7 3 3 2 4 4 5 3 5 7 10 7 8 9 9 8 8 10 12 13 22 25 24 31 34 34 34 35 38 38 38 41 42 40 41 41 41 41 41
5 3 5 10 6 2 4 7 9 4 4 3 3 8 4 9 6 7 9 8 6 9 9 10 9 12 19 23 26 31 32 36 41 40 38 38 35 38 46 46 43 37 38 37
4 2 2 7 4 3 4 6 5 2 3 7 6 5 3 7 6 7 8 9 6 6 8 7 8 13 17 23 26 29 33 42 36 37 37 37 42 42 40 39 36 36 37 37
1 1 1 2 2 2 3 7 10 8 4 3 5 5 5 7 8 8 8 9 10 7 8 7 7 12 17 24 27 29 34 38 33 34 35 35 39 41 40 37 41 41 39 38
2 2 2 4 4 6 12 9 6 9 6 8 5 8 9 12 11 12 9 8 7 9 8 8 10 12 13 19 24 27 31 33 33 33 34 39 39 37 34 34 37 40 40 42
4 1 1 3 10 12 6 9 10 8 5 6 7 8 10 10 7 7 11 9 9 9 9 9 9 9 12 21 26 29 30 30 32 33 37 38 33 34 35 34 34 35 36 37
4 2 2 1 5 11 4 3 6 9 10 7 12 8 9 6 8 10 11 10 11 12 10 10 12 14 14 23 30 28 32 26 32 33 33 32 32 32 33 31 31 33 33 33
6 3 2 2 3 2 5 11 7 7 11 7 6 5 7 9 8 7 9 8 9 10 12 11 11 8 21 27 28 30 24 29 31 28 28 29 30 29 27 29 30 29 30 31
11 4 4 3 3 4 9 2 4 3 9 6 8 12 12 11 4 6 7 8 10 10 10 10 12 18 22 24 26 26 24 26 27 26 28 29 29 26 27 25 27 25 24 23
6 1 3 2 3 4 4 3 4 5 11 10 14 12 13 3 4 6 8 5 7 7 7 8 12 18 19 21 24 25 20 21 20 22 22 22 22 24 22 21 20 21 21 20
4 3 9 4 5 6 5 5 3 0 7 8 11 16 9 5 5 9 11 7 5 6 6 5 7 11 17 19 23 19 17 13 15 17 17 16 18 19 20 20 19 21 22 22
5 5 3 3 1 9 5 1 3 4 4 3 10 8 14 12 13 7 9 9 8 8 6 6 7 4 8 15 18 14 14 17 19 19 17 17 16 16 18 20 21 23 25 28
2 6 5 7 7 4 3 5 6 3 5 4 7 17 10 13 6 10 9 11 9 8 4 4 5 5 7 7 10 15 16 19 20 19 18 17 16 15 16 20 22 22 24 26
3 4 3 1 3 5 5 6 6 6 10 9 9 16 11 19 7 6 7 7 8 7 5 3 3 6 7 8 6 13 18 18 19 21 19 18 20 21 18 18 18 22 21 21
5 4 4 5 4 7 2 5 11 17 14 16 18 12 12 8 10 4 4 6 5 5 9 11 11 7 9 15 9 10 17 19 20 20 20 20 21 23 24 21 16 17 15 17
2 1 2 4 1 3 5 6 9 12 16 15 14 5 9 12 11 9 6 6 5 7 12 17 17 16 17 17 16 11 13 16 20 21 20 20 21 20 22 25 27 17 10 9

GFSCGP_925_spd_063.txt.gz
Wind_Speed
5 8 15 19 14 5 7 5 4 5 5 3 6 13 18 7 10 12 12 12 12 12 10 10 9 9 9 15 21 22 26 29 32 32 28 30 28 29 32 43 43 40 36 33
5 19 14 8 8 11 6 6 9 10 2 8 10 14 15 5 5 10 13 13 13 11 11 13 12 10 11 12 16 20 24 29 31 34 27 31 27 20 31 33 39 38 34 31
19 5 15 14 8 11 11 13 7 10 6 3 5 5 6 2 3 5 10 10 12 15 14 13 13 16 15 16 16 16 21 26 30 30 27 25 24 24 24 28 32 35 32 35
14 8 13 12 16 14 15 12 8 7 4 4 3 7 6 7 7 7 10 13 13 16 15 15 16 19 19 19 18 18 19 25 30 34 33 36 29 24 23 30 31 35 34 32
9 10 12 13 11 14 11 9 11 7 6 3 2 4 4 2 7 10 10 15 17 17 19 18 17 22 20 18 19 19 20 21 28 34 35 30 24 23 25 30 33 34 30 32
9 3 10 19 7 18 8 5 4 3 2 5 7 5 5 3 6 4 6 8 14 16 18 17 20 20 20 20 20 20 21 22 27 29 30 31 26 25 27 26 32 34 33 32
6 8 2 4 6 7 5 8 3 4 5 5 3 6 13 9 13 10 12 11 10 16 16 17 19 21 24 26 26 25 25 24 25 31 32 31 25 25 26 30 27 30 32 34
10 6 11 5 6 9 18 13 6 8 6 4 2 6 5 9 7 8 10 11 7 15 17 19 20 25 28 29 30 29 28 27 28 29 32 33 30 28 26 31 34 35 31 33
9 9 3 5 5 8 6 10 6 5 2 1 4 5 8 8 9 3 8 4 6 13 16 19 19 25 26 30 33 33 31 30 31 31 32 33 32 33 31 31 33 37 38 37
6 3 5 11 2 3 5 9 5 0 7 8 3 4 6 7 10 8 9 5 5 7 12 14 17 24 27 28 30 32 33 34 34 33 33 34 35 35 36 32 37 38 38 36
3 0 1 6 7 12 7 8 2 4 3 8 6 5 7 11 8 7 7 9 4 8 12 14 15 20 23 24 28 30 33 33 33 35 35 35 37 38 37 37 39 41 41 39
3 2 3 4 2 4 4 8 10 5 5 1 1 8 3 9 7 6 10 7 6 5 8 12 13 19 23 26 28 31 30 32 34 34 35 38 38 37 36 42 44 38 38 35
5 3 2 4 3 2 5 5 4 2 1 12 7 4 2 5 10 7 9 7 6 5 2 8 12 14 19 24 27 30 32 36 32 35 37 35 36 36 41 43 39 36 32 33
3 2 1 4 3 3 2 3 9 11 4 5 6 7 5 6 9 13 9 9 7 7 5 6 10 14 19 24 27 29 31 31 32 33 34 34 37 40 39 38 35 36 36 35
5 2 4 5 4 3 3 8 9 9 11 10 9 9 10 7 9 14 10 9 8 7 7 8 10 12 13 19 24 27 28 30 32 32 34 39 35 34 34 33 34 35 36 38
8 1 1 2 4 2 6 8 6 6 4 7 10 10 9 12 6 9 14 13 13 13 12 9 10 11 14 21 25 25 25 30 31 32 36 32 30 31 34 32 32 31 33 34
4 1 1 2 4 5 1 2 1 1 1 3 4 10 13 12 10 9 13 12 12 11 11 10 9 12 15 21 27 27 30 26 30 32 31 28 28 29 30 29 28 30 32 30
5 2 2 1 4 2 2 1 4 3 1 4 2 9 12 13 16 14 7 9 12 10 11 10 9 8 17 20 21 25 21 27 28 29 29 28 28 28 26 26 28 28 27 29
12 4 2 2 5 4 8 2 3 3 3 9 7 10 11 18 8 7 8 7 12 10 8 8 14 16 13 17 21 21 20 23 24 26 26 24 24 24 22 22 22 22 25 27
11 9 3 3 3 6 4 2 3 6 2 3 6 9 11 14 7 6 16 16 16 11 12 10 16 16 15 13 13 16 18 21 24 23 21 19 19 19 20 21 21 22 22 22
5 4 10 2 4 4 5 4 4 3 3 9 3 6 7 6 6 13 14 12 12 14 17 15 12 9 12 7 8 10 10 11 9 13 15 15 15 16 17 19 18 19 18 17
6 7 4 4 4 5 2 2 3 6 5 6 9 9 9 10 11 9 12 12 9 12 15 16 9 6 12 6 4 11 9 14 16 17 19 19 19 18 16 17 16 16 18 20
2 4 3 6 4 1 1 1 4 6 8 7 13 18 15 13 13 10 11 11 11 10 10 12 12 12 13 10 4 11 11 12 19 20 18 20 18 15 16 19 19 18 19 21
2 3 2 0 0 3 1 4 8 9 9 11 12 16 16 16 15 11 9 8 8 11 13 16 17 17 18 18 9 12 15 17 19 21 20 20 22 19 17 17 17 21 23 22
2 2 2 3 4 5 7 10 9 13 12 13 12 12 15 14 11 11 7 10 9 10 17 16 14 15 17 18 18 12 7 17 20 17 19 23 23 24 24 22 17 16 14 17
1 2 2 2 4 4 7 11 10 10 12 12 12 13 14 15 13 11 8 9 13 14 16 15 14 17 15 16 17 16 8 8 19 23 13 15 20 22 24 26 29 21 13 10

GFSCGP_925_spd_066.txt.gz
Wind_Speed
20 15 22 25 23 19 13 14 15 7 4 5 14 15 13 6 8 11 12 12 13 12 9 10 9 10 10 15 18 18 22 28 24 25 27 27 29 28 36 32 27 24 25 29
13 23 21 17 19 19 17 16 14 8 5 11 15 15 14 11 8 9 11 13 13 13 13 13 12 12 15 17 20 24 23 25 26 25 26 26 26 24 33 37 30 25 23 36
24 7 20 16 17 19 21 19 16 13 3 11 11 16 18 12 6 6 9 10 13 15 16 15 15 16 16 16 18 19 23 27 25 25 21 22 18 23 21 30 33 28 26 34
17 25 8 20 24 19 20 20 17 14 8 9 3 13 14 9 16 10 8 12 13 16 16 15 16 19 21 19 17 19 20 27 27 28 27 28 33 31 28 32 37 27 28 35
13 12 22 18 21 19 20 10 12 16 11 11 15 9 14 5 12 11 10 11 14 16 17 18 18 21 22 22 22 21 21 22 28 32 30 30 28 30 23 25 30 36 28 35
25 4 14 22 14 16 7 7 8 9 10 12 13 11 9 3 4 2 4 2 10 16 18 18 21 21 20 22 24 24 23 24 25 33 33 32 32 29 23 23 28 32 32 35
25 21 12 14 21 15 15 12 6 8 8 11 7 9 15 5 8 10 7 6 7 15 18 19 20 19 24 24 24 25 26 27 27 31 31 34 31 26 25 26 25 30 33 34
15 14 20 13 16 14 24 21 8 10 10 8 9 7 4 4 2 4 9 8 5 13 17 20 21 22 25 28 28 27 29 28 29 31 33 35 33 29 28 30 31 30 34 36
18 18 13 13 12 15 16 17 14 6 2 4 9 8 9 11 10 5 7 4 4 12 16 19 19 23 25 27 30 31 29 29 31 33 35 35 35 35 33 32 31 33 32 30
5 11 16 21 12 16 11 12 11 10 13 10 7 10 6 8 5 3 3 9 1 8 13 16 17 22 24 25 27 28 29 30 31 32 35 37 38 37 37 35 36 37 36 36
9 8 6 13 16 19 13 10 9 8 13 11 7 5 6 11 5 0 7 9 3 5 11 14 16 21 24 24 27 28 29 29 30 32 33 35 38 39 40 37 38 38 36 38
14 5 6 16 5 16 17 20 18 9 11 8 10 10 6 5 5 4 8 7 4 3 7 12 15 20 24 27 28 30 30 31 32 32 33 34 33 35 38 40 40 39 41 39
4 7 10 9 7 4 11 12 12 17 13 12 9 3 1 3 9 6 7 11 6 2 5 8 12 16 20 27 29 31 33 35 32 32 33 33 35 36 38 39 38 38 38 39
8 5 11 9 5 1 7 10 13 12 11 13 15 16 13 9 12 14 11 10 8 7 4 7 10 13 18 24 28 30 32 33 34 34 34 35 36 38 37 36 36 37 38 38
8 0 1 2 0 1 1 3 9 13 13 13 10 11 11 11 9 10 14 12 11 12 11 10 10 10 14 20 25 27 30 32 33 34 35 39 37 35 34 34 35 35 36 38
5 3 4 1 1 5 7 7 6 10 9 7 8 10 8 10 13 12 14 15 16 13 12 12 14 14 13 18 24 26 29 31 32 35 39 35 34 34 36 35 34 33 34 35
3 2 3 2 2 4 7 13 5 5 4 4 5 4 7 8 10 13 14 10 16 15 15 14 11 11 11 17 22 25 29 26 30 33 32 32 31 32 33 32 32 34 34 31
4 2 4 2 6 3 3 4 0 7 8 6 6 6 7 10 13 9 13 12 13 16 15 13 9 8 10 15 19 22 22 28 30 30 29 29 30 30 28 29 30 30 29 30
13 5 3 4 6 7 5 4 2 2 5 6 6 7 8 11 10 6 13 16 15 15 14 12 15 17 17 12 14 18 20 24 26 29 31 29 28 27 27 28 26 25 23 23
12 11 6 2 4 6 3 6 2 2 4 7 6 9 10 12 7 5 15 15 17 18 18 17 17 13 14 15 14 14 17 20 24 24 24 24 25 26 25 25 23 18 19 19
8 8 12 9 6 4 2 1 1 6 2 9 9 10 11 9 10 15 13 14 14 14 19 20 16 13 14 16 14 12 11 14 17 17 16 17 20 21 19 17 15 20 22 19
8 9 7 10 7 6 5 2 4 6 6 9 11 13 13 15 17 15 15 14 13 14 14 16 15 15 19 20 14 7 6 6 3 7 11 13 13 16 18 20 20 17 17 18
4 3 3 7 7 5 6 5 7 7 6 8 10 12 13 15 15 14 12 12 10 10 14 14 11 12 17 19 19 9 7 4 7 11 13 16 17 16 16 19 19 19 17 16
5 2 2 1 3 2 4 5 10 10 8 8 10 12 13 14 13 13 12 10 9 10 14 16 13 13 14 17 18 20 17 8 9 16 16 16 20 19 15 14 13 15 17 16
3 1 2 4 5 3 5 8 11 12 11 12 12 12 13 13 12 13 10 10 9 10 14 18 17 17 17 16 16 18 18 12 12 10 13 19 22 22 23 22 15 14 10 14
2 3 4 4 5 3 5 10 11 11 13 13 12 12 12 12 11 10 9 12 14 14 16 16 19 21 23 20 19 18 17 15 17 17 15 14 17 21 22 25 31 28 20 15

GFSCGP_925_spd_069.txt.gz
Wind_Speed
21 17 22 25 24 22 22 18 16 11 12 10 15 17 15 13 13 11 12 11 12 12 10 12 11 10 10 10 13 18 19 23 21 23 22 26 25 29 29 35 26 25 26 27
22 25 23 23 23 25 25 23 18 17 6 8 15 17 18 16 15 12 13 12 10 13 12 12 14 13 13 15 17 19 20 25 26 21 20 21 29 30 35 38 33 28 28 28
24 22 23 22 22 26 23 23 20 19 7 10 15 18 18 16 18 8 10 11 11 14 15 15 14 16 16 18 20 19 20 23 25 21 22 21 23 24 27 30 32 24 21 24
18 29 11 22 27 22 22 20 20 18 14 13 13 14 14 17 20 17 16 13 12 13 16 16 16 18 20 20 18 20 21 23 26 23 26 23 30 26 32 34 24 29 22 21
9 17 20 23 24 23 21 17 16 18 16 16 18 10 14 14 14 10 13 16 14 13 17 18 17 20 21 23 22 21 21 22 24 26 26 27 24 27 25 32 27 23 27 25
23 27 16 19 23 17 17 18 17 11 14 15 18 15 11 10 7 2 7 7 15 14 16 17 20 20 20 23 23 24 25 23 24 27 27 30 29 26 27 27 32 28 27 27
19 23 23 25 18 21 25 14 9 11 13 14 16 12 14 6 8 5 7 9 11 14 17 18 19 17 22 23 25 25 27 26 26 29 28 30 29 30 35 27 28 30 28 29
9 13 20 17 19 18 20 21 12 11 11 13 17 7 8 5 3 6 4 7 5 13 17 19 20 18 22 25 25 25 27 27 28 30 31 31 31 31 33 34 29 30 31 34
8 12 16 20 13 17 21 21 20 14 6 9 9 10 3 7 8 8 6 3 6 12 18 19 19 21 23 24 26 26 25 26 28 29 30 32 33 32 31 31 32 29 32 34
16 18 13 18 15 18 20 15 20 15 9 8 9 15 6 6 9 8 6 5 1 7 16 18 19 19 24 25 25 26 26 26 27 29 31 32 32 34 32 33 34 33 33 35
22 17 8 22 15 21 17 18 14 14 13 8 7 5 1 11 7 4 6 5 3 5 10 15 17 22 24 25 26 27 27 27 28 29 30 33 34 35 34 33 34 34 33 34
15 6 13 15 25 23 21 19 17 10 16 15 10 5 1 4 5 3 5 1 6 2 9 12 15 18 24 25 27 29 29 29 29 29 30 31 33 34 36 37 35 34 35 35
9 8 13 6 9 18 24 23 20 14 10 9 8 7 13 6 3 7 4 5 4 4 4 7 12 15 17 25 27 28 30 31 30 30 31 31 32 34 36 36 36 34 35 34
12 11 13 13 7 12 17 18 19 18 12 15 14 11 11 5 5 7 13 10 9 4 4 3 7 11 15 22 26 28 29 30 31 32 33 34 34 37 36 35 35 37 36 37
10 6 10 15 8 5 8 10 14 16 15 13 13 15 14 6 5 6 6 9 12 11 6 7 7 9 11 17 23 27 28 30 31 32 34 36 35 34 34 34 36 37 38 38
6 3 10 13 10 5 8 10 11 13 10 10 13 11 7 7 6 6 9 11 10 12 10 10 15 11 12 16 20 24 28 29 31 33 36 33 32 34 35 35 35 35 37 38
4 3 6 2 1 4 8 12 8 10 14 13 11 5 2 2 7 7 9 11 14 14 13 13 12 11 9 12 11 19 24 25 29 32 34 34 33 34 35 34 34 37 38 35
5 7 3 4 6 5 5 2 16 11 3 4 10 4 5 6 6 9 10 11 11 12 15 14 12 12 14 14 12 13 17 23 28 31 30 31 32 34 33 34 36 35 35 37
14 6 3 2 3 6 9 3 4 13 8 6 4 4 7 8 7 11 11 12 12 13 12 13 18 17 16 14 15 13 13 17 22 26 29 30 31 32 32 34 36 35 33 32
16 12 7 6 3 4 4 12 7 9 5 7 6 6 9 11 6 6 16 12 13 14 16 18 20 16 16 17 18 16 13 13 18 20 24 26 27 29 29 30 29 28 28 27
12 11 13 9 5 4 10 3 1 10 4 6 8 10 11 10 11 15 16 13 12 10 13 18 18 18 20 22 21 13 12 13 17 16 14 15 19 24 26 24 23 24 20 18
11 9 7 10 9 11 5 3 4 6 7 9 9 10 10 11 14 16 17 15 13 11 13 15 15 18 22 25 22 19 18 20 16 12 9 8 7 5 4 7 11 10 12 15
6 7 5 9 7 8 11 14 10 8 8 9 10 11 12 13 14 15 15 13 13 13 14 17 15 16 21 24 24 20 20 19 19 17 15 10 8 9 7 9 10 10 9 14
8 4 1 4 9 7 10 12 11 10 10 10 10 11 12 13 13 13 12 12 11 14 16 18 16 17 20 23 22 23 21 17 19 24 24 22 22 19 18 15 11 15 12 14
5 1 5 4 7 8 11 12 10 10 11 12 11 11 11 11 11 13 11 13 12 15 17 17 17 16 18 19 21 22 21 14 18 23 23 22 22 23 27 31 21 20 12 12
3 3 3 2 8 7 8 10 11 11 12 12 11 11 11 12 12 12 11 14 15 15 16 15 17 17 18 18 20 23 22 14 13 18 21 22 20 21 22 24 32 36 29 23

GFSCGP_925_spd_072.txt.gz
Wind_Speed
8 12 18 23 21 22 20 22 23 21 20 18 18 16 16 16 15 14 12 11 11 14 11 17 17 14 14 12 21 21 18 16 18 22 23 24 25 30 35 36 36 38 30 32
9 21 19 21 21 22 22 24 25 23 12 8 11 13 15 16 15 14 15 13 13 15 14 14 17 17 16 16 20 23 19 19 20 21 23 20 25 27 36 40 32 32 33 32
19 16 17 22 28 24 22 23 22 24 20 18 9 16 17 20 18 16 13 10 12 16 16 15 14 17 18 17 20 24 23 23 24 22 23 23 23 24 27 31 33 32 29 31
8 15 18 18 29 23 22 21 25 24 18 14 15 13 16 19 18 16 15 12 9 9 16 16 15 17 20 20 20 21 23 25 24 23 23 27 21 24 28 37 32 34 30 29
4 10 21 24 25 21 23 15 23 21 18 17 19 11 13 13 14 17 18 15 15 10 17 16 16 19 21 22 22 23 22 23 22 22 25 27 25 27 28 31 28 26 24 30
15 12 9 13 22 20 17 18 23 21 15 16 18 16 14 14 13 15 13 9 16 13 16 15 19 21 22 24 22 22 23 24 25 24 26 28 28 29 29 31 29 27 29 29
14 25 18 18 20 16 22 10 8 8 13 12 15 13 14 16 6 7 4 5 12 13 15 15 17 16 22 26 24 23 24 23 23 28 26 27 25 29 32 37 35 29 28 28
5 4 18 11 19 11 17 20 9 7 8 12 18 10 18 18 13 9 4 5 11 10 13 16 17 16 21 27 28 26 26 24 27 26 28 28 28 28 28 34 37 36 31 32
4 5 6 17 10 8 12 19 25 13 9 6 9 17 3 6 6 8 9 10 10 10 15 16 16 16 22 26 28 30 29 28 28 29 26 27 29 30 28 29 32 36 33 30
4 8 12 17 14 19 23 19 15 10 7 6 5 16 8 15 12 11 5 4 2 6 14 14 15 14 22 26 26 28 29 30 32 33 31 29 28 29 28 29 32 30 33 32
7 7 3 7 7 18 11 15 14 12 13 6 4 6 8 11 7 11 9 7 4 3 6 14 13 19 21 23 25 26 26 26 30 35 32 33 32 30 31 32 33 37 30 32
5 5 9 19 16 20 17 20 18 9 19 12 6 1 8 5 6 9 8 6 7 3 3 11 12 13 20 21 24 27 27 26 26 31 32 32 33 34 34 34 34 34 36 34
6 5 6 9 10 16 16 19 19 12 10 8 4 5 4 7 6 4 2 7 3 7 7 8 9 10 13 19 22 23 25 25 25 26 30 32 34 35 36 37 36 35 36 38
5 6 9 10 9 8 14 22 22 17 4 7 7 7 5 9 2 0 1 8 11 9 4 3 8 9 10 19 21 23 24 27 27 27 29 31 33 37 37 35 36 37 36 37
3 5 8 13 16 16 14 16 21 22 19 15 11 16 12 15 14 5 10 9 8 10 15 9 8 1 10 14 19 23 25 28 28 27 29 31 32 32 33 35 37 37 40 38
3 4 11 10 15 15 16 12 14 11 15 15 11 6 8 5 7 12 15 15 15 15 16 14 14 14 11 2 17 23 25 27 29 30 31 27 29 31 34 35 36 38 39 40
3 1 4 4 13 7 9 12 10 10 10 8 9 4 7 4 6 13 13 13 12 12 14 14 15 15 16 20 19 17 17 25 29 30 29 29 29 31 33 33 33 37 39 38
7 5 2 4 10 4 9 12 12 4 8 8 7 4 6 4 13 13 13 11 10 9 11 12 11 13 22 27 29 27 25 19 24 27 27 29 29 29 28 30 34 35 34 36
12 6 2 3 4 6 4 2 9 12 5 5 3 10 4 6 13 12 14 9 7 8 8 9 16 19 20 23 25 24 21 23 20 11 17 25 28 29 30 31 35 34 30 31
16 11 6 4 4 1 3 6 14 9 3 6 6 14 15 12 7 9 13 10 6 8 15 13 17 18 21 24 24 22 24 25 27 28 26 30 19 28 28 31 32 31 31 32
14 12 11 7 4 5 6 14 17 2 3 5 10 13 12 10 9 11 12 13 14 14 20 20 21 20 23 25 23 21 21 23 23 22 23 27 27 24 15 21 26 29 28 27
12 10 7 9 7 6 4 7 2 7 6 7 13 13 11 11 11 12 13 16 17 17 23 25 19 20 23 24 22 20 21 19 18 19 24 26 27 27 24 13 9 8 15 18
8 8 5 8 6 11 14 15 12 11 12 12 12 12 11 11 11 13 13 15 15 18 20 22 21 20 23 24 22 20 23 19 16 22 25 26 27 28 27 28 18 11 7 9
3 8 1 3 11 15 16 16 15 14 13 11 11 11 11 11 13 12 14 13 13 19 20 21 20 20 21 24 24 23 23 20 14 16 21 23 30 33 38 33 29 21 14 13
1 4 6 8 10 15 14 15 13 13 13 11 11 12 14 13 13 12 12 13 13 16 19 19 19 19 21 23 24 25 25 19 15 15 16 20 24 28 31 39 40 30 24 13
7 9 5 4 10 10 13 14 12 12 12 11 12 12 13 13 12 12 11 14 14 15 16 17 18 19 21 22 24 26 25 20 13 13 17 18 19 21 24 30 37 43 38 34

GFSCGP_925_spd_075.txt.gz
Wind_Speed
6 5 8 8 10 14 13 15 19 18 17 16 21 21 19 10 7 10 10 10 10 15 10 25 27 31 25 22 20 20 20 20 18 19 21 25 24 27 35 41 42 42 40 39
4 6 7 11 15 14 13 18 23 23 20 16 14 25 10 9 8 11 15 11 11 11 15 16 24 25 27 24 23 23 22 23 24 22 20 18 25 23 31 35 43 45 39 38
10 7 5 12 18 15 14 17 19 19 20 24 18 17 5 7 6 9 12 16 10 19 20 17 17 24 28 25 25 24 24 24 26 24 22 21 22 23 21 27 33 37 42 36
3 4 10 15 17 13 11 11 23 17 12 9 19 13 7 10 16 15 13 13 12 18 18 17 15 19 25 25 25 25 25 25 24 27 25 26 20 21 23 27 29 32 36 33
6 4 5 14 17 16 9 15 22 7 9 13 22 12 8 9 10 13 16 13 13 21 22 20 19 25 27 29 26 27 28 28 26 25 27 27 20 24 26 27 27 29 33 33
11 7 5 2 11 8 8 15 6 7 4 8 18 14 8 10 9 9 16 16 14 19 19 18 20 26 27 30 25 26 27 26 27 27 29 29 27 23 25 27 27 27 30 29
6 13 12 7 7 8 9 9 1 3 4 6 9 14 14 9 17 13 4 12 12 19 18 18 19 17 25 29 27 27 28 27 27 27 29 29 29 32 30 31 31 28 29 25
2 5 5 11 11 5 12 6 4 5 3 3 13 7 12 13 19 10 7 10 15 19 18 20 20 18 26 29 29 27 28 28 29 30 29 29 28 31 31 34 34 31 31 34
3 3 2 5 9 14 5 8 5 8 5 4 4 6 12 14 19 7 8 9 10 16 17 20 18 19 27 29 29 31 28 26 28 30 30 29 27 30 29 33 33 31 29 28
0 5 5 1 11 10 8 3 3 3 3 3 6 7 6 6 8 8 6 6 6 11 16 17 17 15 26 30 30 30 31 29 27 29 29 30 30 31 27 31 37 36 35 30
5 2 1 3 6 6 7 4 6 2 4 3 3 4 4 5 5 9 9 8 8 10 14 16 16 21 27 30 30 31 30 29 30 33 29 28 29 32 32 31 35 37 37 38
1 3 5 11 11 14 13 11 11 4 4 5 4 6 15 4 8 9 9 8 7 7 10 12 16 15 22 26 28 30 29 30 31 34 34 35 33 30 32 31 35 38 36 38
3 3 4 6 5 9 4 12 15 9 4 6 2 4 11 5 7 10 13 10 8 7 6 9 12 13 13 22 26 28 30 29 28 35 34 34 35 36 33 32 33 37 40 38
2 4 6 6 11 3 4 8 16 17 3 5 10 5 6 16 14 16 12 14 16 15 19 9 7 6 14 22 26 27 29 33 34 31 33 33 35 35 37 35 34 36 37 39
3 4 6 11 14 11 12 14 15 22 17 5 6 7 6 7 18 10 12 15 17 16 17 17 14 13 14 3 15 26 31 33 36 32 32 34 34 35 35 37 35 34 35 38
4 3 3 8 9 7 15 17 15 17 20 17 18 18 2 5 5 6 12 15 16 15 15 16 17 17 15 20 19 18 7 24 34 32 32 30 32 35 36 35 35 37 38 37
3 2 3 3 7 12 8 7 12 10 9 14 10 7 5 7 7 8 9 12 13 13 12 15 15 15 19 22 19 19 21 22 12 26 29 31 34 35 35 36 37 38 37 36
5 4 1 4 6 4 4 3 3 8 5 5 5 2 9 14 12 13 10 9 9 11 13 14 13 19 24 25 29 23 26 26 25 24 13 9 14 28 31 34 36 36 35 37
11 4 1 2 5 9 4 6 3 6 8 12 13 6 10 9 11 15 19 17 15 13 15 16 23 25 28 31 28 23 24 24 24 23 21 23 19 18 21 28 33 37 34 34
9 7 4 2 4 3 4 7 5 3 4 8 13 7 7 12 10 6 15 19 20 21 23 21 24 25 28 31 27 24 25 23 23 22 20 18 20 23 13 9 13 23 30 32
10 8 10 4 2 7 4 7 1 4 4 8 12 10 11 15 8 9 15 18 19 22 26 23 26 25 25 27 24 23 25 27 24 20 15 17 21 18 20 15 13 17 9 21
9 7 5 3 4 6 12 8 3 8 9 13 12 12 12 10 11 14 16 17 18 17 24 24 21 22 24 26 25 23 24 26 24 21 20 21 21 19 20 20 23 21 20 14
4 6 5 6 3 10 14 14 13 13 14 13 14 11 12 11 13 14 14 15 15 20 21 21 19 19 23 24 25 22 24 23 22 22 22 22 22 23 25 25 24 26 25 22
4 9 2 5 10 15 16 16 17 14 15 14 14 13 12 11 12 13 13 13 12 18 18 18 18 19 20 21 20 21 22 19 19 20 21 23 24 29 30 28 27 24 22 21
3 5 5 4 2 16 17 16 14 14 14 15 15 15 14 13 13 13 12 12 14 15 16 18 18 18 19 19 21 23 22 17 16 17 18 19 20 23 30 38 31 28 28 19
7 7 1 2 10 12 9 13 15 12 13 14 13 14 15 12 12 12 11 15 15 15 16 18 19 19 20 20 21 23 22 19 17 17 18 19 17 18 21 26 34 42 40 39

GFSCGP_925_spd_078.txt.gz
Wind_Speed
3 2 7 7 8 6 8 12 14 11 11 6 17 19 18 20 12 17 15 10 13 18 9 20 23 29 29 25 22 18 17 13 13 17 21 20 21 27 34 36 40 44 42 41
2 6 10 8 6 8 12 15 17 12 12 13 15 20 18 21 13 18 19 11 15 9 13 13 20 23 24 25 25 21 19 17 16 18 18 17 22 24 31 36 37 39 41 41
8 5 5 5 4 9 13 12 8 8 15 21 16 20 9 17 17 9 10 9 11 19 18 15 16 22 22 24 28 24 23 22 18 19 18 18 21 19 20 29 31 35 37 36
5 3 1 2 5 9 14 8 8 10 12 9 3 7 12 15 19 14 7 9 11 18 18 18 17 19 24 25 30 27 25 23 20 21 19 23 15 15 14 26 29 30 33 34
5 2 2 4 6 8 11 7 8 8 10 5 10 3 11 6 16 17 9 9 13 20 21 20 20 23 23 29 29 29 28 26 24 23 23 22 18 16 20 22 25 29 33 33
6 3 5 7 2 7 8 4 12 6 3 7 13 5 12 8 10 14 10 5 14 20 20 16 17 23 22 27 28 28 28 27 26 28 24 23 22 22 22 22 23 26 29 31
3 6 4 4 2 4 3 4 4 4 5 9 3 9 16 10 14 14 17 19 16 20 19 18 19 16 23 26 27 27 27 27 28 27 28 28 27 25 27 25 24 24 25 28
4 4 4 3 7 3 11 7 3 5 4 7 11 8 10 13 19 16 15 5 15 21 19 20 20 18 25 27 27 27 27 25 27 27 29 29 27 27 26 30 27 28 29 32
4 4 1 6 4 8 4 7 3 3 3 3 4 6 9 11 17 13 9 11 15 17 18 19 17 18 25 29 31 31 27 25 27 27 29 28 28 27 30 29 32 33 30 28
2 2 2 5 4 6 9 3 4 3 3 3 4 4 4 7 12 15 7 12 16 17 17 15 16 15 25 28 29 31 31 28 28 28 29 28 27 29 32 33 33 33 36 35
3 2 2 1 7 9 5 4 4 1 3 2 3 3 10 18 21 10 7 9 13 15 16 16 15 19 24 25 27 29 30 29 28 29 28 28 27 29 29 32 35 36 35 36
3 3 4 9 7 10 5 2 6 3 4 4 1 5 15 18 16 18 7 6 4 16 14 14 15 16 21 24 25 28 29 30 31 34 31 30 29 29 31 28 31 36 37 38
4 1 3 6 2 7 3 8 9 4 0 5 4 2 9 15 19 20 13 13 10 8 8 7 10 13 14 22 24 26 29 32 32 33 34 33 32 31 30 30 29 32 36 38
4 1 4 3 4 2 4 5 5 8 4 7 7 4 4 12 15 17 14 15 19 18 17 15 11 6 7 5 5 11 16 24 29 31 31 32 33 32 31 32 30 32 35 35
3 2 2 7 12 14 15 16 14 10 12 7 7 5 4 4 10 10 9 14 20 19 19 16 14 13 13 18 15 5 12 18 21 24 27 32 35 36 36 35 34 34 32 36
1 3 2 5 7 7 14 16 17 17 19 14 20 7 3 5 1 9 4 13 19 17 18 17 16 16 15 17 18 19 17 6 22 22 22 18 20 23 29 33 36 36 35 33
4 1 1 4 7 12 11 10 14 13 15 18 17 13 1 9 8 9 9 13 17 16 16 16 16 14 18 20 20 22 21 22 13 4 1 4 18 26 29 32 32 33 35 35
6 4 3 4 6 4 2 11 4 6 9 13 5 10 15 14 13 15 14 15 16 15 16 15 12 18 20 19 24 22 24 25 24 22 19 16 12 7 5 24 29 31 32 35
8 4 1 2 2 10 4 5 4 3 6 6 14 19 16 9 18 16 16 16 15 15 13 15 20 18 21 23 23 24 26 24 24 23 20 18 16 16 12 8 5 12 27 30
8 5 4 2 3 4 1 10 5 2 3 9 12 11 1 7 9 8 14 14 16 17 19 18 18 20 22 22 23 26 25 24 24 21 19 18 17 16 15 14 12 11 13 13
3 3 11 6 4 7 8 3 5 0 5 12 14 14 14 11 7 10 13 16 19 19 20 20 24 24 24 24 22 22 21 22 19 17 18 21 20 17 18 16 15 13 9 5
6 6 5 3 5 8 4 6 1 7 11 13 12 10 14 13 13 14 15 16 16 15 22 22 19 21 23 24 20 19 21 17 17 21 24 26 26 23 25 23 21 19 14 15
5 7 5 6 3 9 13 14 13 12 12 11 11 9 12 12 14 14 13 13 12 16 16 17 17 18 22 23 23 19 18 15 15 23 23 24 27 28 27 29 28 25 21 16
3 8 2 5 7 13 15 14 15 16 15 14 14 13 12 14 12 13 11 11 10 15 15 16 18 20 21 22 22 19 17 14 15 18 19 21 26 29 30 28 28 25 22 18
4 7 5 5 4 4 14 14 12 16 15 16 16 15 13 12 12 12 11 11 14 16 18 18 18 19 20 19 21 21 19 14 14 17 17 18 20 22 27 35 31 28 33 24
7 5 1 3 6 7 8 13 14 18 12 15 13 14 14 13 12 12 12 15 16 16 16 17 19 19 20 21 22 22 20 18 15 16 16 17 18 19 20 21 28 38 38 38

GFSCGP_925_spd_081.txt.gz
Wind_Speed
2 3 6 8 6 4 5 9 16 8 8 9 13 16 15 12 7 10 17 16 13 12 6 15 22 26 28 26 24 21 18 17 19 19 19 18 19 26 31 36 39 41 37 39
1 6 8 6 6 7 7 9 11 11 9 8 6 19 18 16 14 13 12 14 15 6 8 11 20 22 25 28 26 22 19 19 19 17 17 11 19 19 26 29 38 38 38 35
6 4 3 5 6 7 10 8 10 13 6 10 12 23 15 17 9 8 10 10 9 15 15 14 18 23 23 22 22 22 22 21 19 21 16 18 19 18 16 31 31 36 39 34
5 3 3 3 4 5 9 6 11 11 5 6 4 12 14 10 14 12 12 7 9 11 13 13 18 19 24 23 21 20 24 21 20 21 21 20 14 13 12 21 29 32 36 35
5 5 3 4 5 4 5 9 13 3 4 7 6 7 3 9 10 13 7 10 7 13 17 18 19 23 24 23 22 21 27 24 20 21 21 20 16 14 19 22 26 29 32 34
4 2 5 6 4 4 4 7 4 2 2 7 9 9 4 7 13 15 10 6 9 13 14 10 13 22 21 21 22 26 27 22 23 23 20 20 19 18 20 22 23 28 31 31
2 4 2 3 1 4 4 3 2 2 3 7 0 10 14 10 6 9 11 15 8 11 12 15 19 19 22 24 24 26 28 22 24 23 21 20 18 18 21 21 24 26 27 27
5 2 7 4 6 4 6 5 3 5 3 3 12 7 6 8 12 15 13 14 5 11 16 19 20 18 23 25 25 26 27 24 24 25 22 21 17 18 19 22 22 24 24 26
4 3 2 5 5 5 3 8 3 6 3 3 4 7 6 17 7 10 12 11 10 10 16 18 17 15 23 26 27 28 27 25 25 25 23 22 24 22 21 22 24 24 26 26
3 1 1 2 3 5 5 5 2 4 4 3 4 5 4 16 17 18 15 12 10 11 13 13 14 16 22 24 25 26 26 24 26 25 26 25 24 26 24 24 28 29 29 28
3 2 1 1 6 6 4 3 4 4 3 2 4 2 4 7 13 18 19 21 8 14 15 15 13 15 20 22 24 25 25 24 25 25 25 24 23 23 24 25 25 27 28 28
3 3 4 9 3 5 3 2 5 3 3 4 3 5 4 5 16 20 22 21 3 5 9 10 12 13 20 21 22 24 26 26 25 25 24 25 26 24 25 25 26 26 28 30
3 3 3 6 4 2 1 1 5 6 3 6 3 5 8 11 16 22 22 21 7 12 12 10 10 8 7 11 12 13 13 16 17 21 24 25 24 25 25 26 25 25 28 30
3 3 4 3 4 1 6 8 7 5 4 4 8 10 5 4 15 20 21 15 15 15 15 14 11 10 11 13 12 12 14 17 18 21 22 22 23 25 27 26 26 27 28 29
3 3 3 6 10 11 14 15 14 15 14 7 12 12 7 5 4 11 17 12 14 15 18 15 14 12 12 16 11 9 14 18 21 21 19 22 26 27 28 28 28 28 31 32
0 1 1 4 7 7 12 18 15 14 18 16 16 18 6 2 8 5 12 12 15 14 15 16 17 15 14 18 17 17 16 5 18 21 21 22 23 24 28 29 31 31 31 33
2 2 2 4 6 11 8 4 6 9 17 15 16 16 8 2 7 6 4 14 13 13 15 16 15 15 19 19 17 18 19 22 23 19 13 7 10 20 22 26 27 27 28 31
6 3 2 3 5 3 4 6 8 12 7 10 17 15 13 14 13 14 12 13 11 10 12 15 13 18 20 19 20 19 21 22 22 21 17 14 14 9 3 3 19 24 28 31
7 4 1 2 3 8 8 3 6 7 5 11 6 19 19 19 19 12 10 13 11 10 12 16 18 18 20 22 20 20 23 21 21 19 17 15 14 14 14 12 9 5 6 10
5 2 3 1 2 4 3 0 2 8 6 16 22 18 17 12 7 2 9 11 13 16 19 18 18 19 20 19 18 21 21 22 23 19 17 16 15 15 14 13 15 12 7 6
3 2 11 7 4 6 5 8 4 4 5 11 15 15 14 10 9 9 10 11 16 18 18 16 19 22 21 20 20 21 20 21 18 17 18 20 18 16 17 16 18 17 17 14
5 5 4 3 3 8 11 6 3 4 9 11 13 15 20 14 14 13 11 12 13 14 18 17 18 18 18 17 15 16 19 15 20 22 24 25 25 24 21 20 21 23 21 22
3 3 3 4 1 8 11 13 12 8 12 11 11 11 14 14 14 12 11 11 12 16 16 16 15 16 18 19 18 18 18 14 14 18 20 20 22 22 25 26 24 23 23 21
7 6 2 4 6 10 12 14 14 15 14 14 13 12 13 15 13 12 10 10 10 16 16 16 17 19 21 22 23 20 16 12 12 15 16 18 23 24 24 26 27 25 21 20
3 11 6 5 4 5 10 12 11 15 15 15 15 14 13 13 13 12 11 11 13 15 17 18 19 19 21 21 22 22 19 13 14 15 15 16 19 22 29 34 28 29 34 24
8 5 3 3 4 7 5 9 11 16 14 13 12 14 15 13 13 12 11 15 15 15 15 17 18 20 20 20 21 23 20 18 15 16 16 16 16 16 18 21 28 35 34 33

GFSCGP_925_spd_084.txt.gz
Wind_Speed
4 4 7 9 5 2 3 4 7 4 5 9 17 25 24 10 8 10 10 9 10 11 12 15 21 26 27 30 30 28 23 20 21 23 21 20 23 27 29 32 31 37 44 34
1 8 7 7 5 5 5 7 8 7 5 6 10 21 20 10 14 14 12 12 11 6 6 6 16 23 29 27 27 26 21 21 21 21 20 16 16 22 27 30 30 33 36 43
6 4 5 7 5 5 5 5 4 8 8 9 9 22 15 14 14 13 10 12 8 11 11 9 13 21 25 25 28 25 23 21 23 19 19 12 18 10 21 26 33 34 35 39
7 5 6 4 4 7 3 5 4 7 7 2 4 9 17 8 12 10 9 8 12 11 8 10 14 16 25 25 27 25 22 20 21 21 20 18 10 9 4 16 27 33 36 34
5 5 4 3 5 6 5 2 3 4 4 6 7 4 7 6 14 12 11 11 11 10 11 14 16 15 21 23 25 23 23 21 20 20 18 16 14 12 15 23 28 32 33 34
5 1 4 6 3 5 3 1 4 4 2 5 10 11 4 4 6 6 7 8 9 7 9 9 11 20 19 20 22 24 24 22 21 20 18 18 16 16 18 20 24 28 30 32
2 4 3 3 1 1 2 2 2 3 3 5 6 7 12 19 20 14 11 9 7 6 9 12 15 16 21 24 24 24 25 22 23 22 19 16 17 17 18 22 20 26 28 28
6 2 7 4 4 3 4 4 2 4 3 4 5 5 5 7 13 14 15 13 4 8 11 12 15 16 21 25 25 24 25 23 24 23 21 18 14 16 19 21 23 22 27 30
4 1 2 2 3 5 3 4 2 4 3 5 4 7 4 14 17 19 20 21 17 11 9 13 13 15 22 26 27 24 25 23 24 22 21 19 18 16 16 19 21 25 27 28
4 4 2 1 3 1 3 3 1 3 3 4 4 4 3 10 16 19 24 23 22 18 9 12 14 16 22 23 24 21 24 25 21 22 22 18 18 17 16 17 19 20 23 24
3 3 1 1 3 5 2 1 2 1 3 2 3 4 4 2 5 15 20 21 22 11 7 9 9 14 22 21 20 19 22 23 22 19 21 17 17 17 18 20 20 19 19 20
1 4 2 6 2 3 1 4 4 3 2 4 2 5 3 6 3 10 18 23 22 5 6 9 9 9 16 18 17 18 20 22 21 21 19 19 19 17 18 18 19 19 21 21
4 2 1 2 2 3 2 2 3 2 4 5 4 4 4 13 13 7 16 18 18 12 10 10 11 11 12 15 14 14 19 19 19 20 20 17 16 19 20 18 17 17 18 19
2 2 3 3 2 2 3 3 5 5 3 5 8 13 15 11 12 12 15 13 14 13 10 10 10 11 11 13 12 13 15 17 18 19 19 20 20 17 16 15 16 17 18 21
3 3 1 3 5 2 6 9 11 10 13 9 16 14 16 11 10 4 13 13 13 14 16 14 12 12 12 14 10 9 9 13 16 17 18 20 20 21 19 18 18 17 17 18
2 3 3 3 4 2 4 15 14 12 14 15 19 22 17 10 3 6 13 13 13 14 15 16 16 16 13 16 16 16 11 4 13 14 15 13 16 17 18 19 20 21 22 22
2 3 2 3 4 6 5 5 4 6 8 14 13 17 4 4 3 7 12 13 12 13 15 16 15 13 17 17 18 20 16 20 21 20 15 13 6 8 12 16 19 21 23 26
6 4 1 2 4 2 5 0 4 7 13 9 16 10 10 10 12 17 15 13 11 12 13 14 13 16 18 19 23 21 19 23 23 21 16 15 12 10 8 6 4 5 11 17
3 4 2 1 1 6 9 2 2 2 18 11 11 19 11 17 16 13 13 14 13 12 11 15 19 20 21 23 22 20 23 24 23 20 18 17 15 13 13 12 10 8 6 5
5 4 3 2 1 3 4 3 6 7 5 17 22 10 22 16 5 3 11 13 12 13 15 18 20 23 23 19 21 25 22 24 23 19 16 16 17 17 17 16 15 13 11 11
3 1 7 6 5 5 4 11 9 5 7 11 14 17 16 9 9 9 11 10 13 14 15 18 22 20 19 20 21 23 22 23 18 19 20 23 20 20 18 20 20 18 19 19
4 4 3 3 3 6 15 8 3 4 9 7 11 12 17 15 15 12 12 13 13 14 18 18 19 21 22 22 18 20 20 16 18 22 24 23 25 23 23 23 22 22 20 22
1 3 2 4 1 7 11 11 12 11 8 10 10 10 11 13 13 12 12 13 14 18 18 19 19 19 22 22 19 19 17 17 18 21 22 21 21 24 27 26 23 23 22 19
6 6 4 4 5 9 11 11 13 13 14 13 13 12 11 14 13 13 13 13 12 18 18 19 20 21 22 24 25 24 19 18 20 20 21 22 26 26 26 29 28 24 21 18
2 8 9 3 6 8 12 10 9 13 13 15 16 15 14 14 14 12 12 12 15 16 18 19 19 19 20 21 24 24 18 14 16 18 17 18 19 23 29 33 29 30 30 23
6 4 3 3 6 7 7 9 10 13 14 14 14 16 17 15 13 13 12 16 16 16 16 17 19 21 21 23 24 23 19 18 16 15 15 16 16 17 18 22 28 31 30 31

GFSCGP_925_spd_087.txt.gz
Wind_Speed
5 7 14 18 16 13 3 4 8 6 8 12 18 25 16 15 17 19 19 19 17 18 18 19 15 12 16 21 26 29 29 29 26 24 22 24 23 26 28 29 30 30 33 34
4 16 11 9 10 11 13 14 14 8 9 7 14 29 22 22 24 23 22 23 21 20 18 15 10 12 19 22 24 26 27 28 25 21 22 17 20 24 26 29 32 33 35 34
13 5 10 11 7 10 11 13 8 9 8 11 14 18 7 6 12 19 22 25 23 22 19 15 11 15 18 22 27 27 27 24 21 19 20 17 16 13 21 26 25 37 36 39
11 7 5 9 11 12 13 9 9 6 4 4 6 10 8 2 8 12 15 15 18 21 19 15 13 15 21 21 22 24 24 23 19 18 19 18 15 15 14 19 21 34 39 39
6 7 8 12 8 9 4 4 4 4 5 4 4 5 4 12 8 10 15 14 17 19 19 16 13 16 20 21 24 23 21 19 18 21 21 18 14 12 19 14 27 33 32 32
6 2 4 4 4 7 5 2 3 3 4 5 9 9 3 5 9 22 18 17 14 14 15 9 11 18 21 22 22 23 23 20 19 22 20 18 14 12 13 16 23 25 30 30
3 3 2 2 5 2 4 3 2 2 4 5 4 9 12 15 8 12 15 17 16 16 8 9 14 14 22 24 25 24 23 22 20 21 20 18 15 13 13 18 21 27 27 27
10 5 9 5 4 5 9 5 3 3 3 2 3 7 2 3 5 8 13 15 16 15 14 7 12 16 21 24 24 25 25 23 20 20 20 18 16 14 14 18 20 23 28 28
7 2 2 3 3 5 5 4 0 2 4 4 4 5 5 6 9 12 13 17 21 20 16 12 14 15 22 26 25 24 24 22 22 21 20 18 16 15 14 15 19 22 27 30
5 6 0 3 3 2 2 4 3 2 2 3 4 6 6 7 13 16 19 19 19 22 20 9 12 15 20 22 22 22 23 22 22 21 21 19 16 14 13 14 17 20 22 30
4 3 4 5 4 7 4 2 2 1 2 2 2 2 2 8 13 13 16 18 17 20 14 2 6 14 18 19 20 20 22 22 23 23 20 20 17 16 14 14 13 17 22 26
2 3 4 3 1 4 2 4 4 2 2 2 4 6 4 12 14 12 14 14 15 20 12 5 6 10 15 17 19 19 21 22 22 20 18 19 18 18 17 14 15 16 16 17
4 1 5 3 3 2 3 4 2 3 2 5 4 3 3 17 16 16 13 13 13 18 13 4 6 7 9 13 17 19 20 21 19 18 18 17 18 17 18 17 17 17 16 15
2 3 1 3 5 3 2 3 2 3 3 5 10 17 21 17 19 16 11 12 13 15 17 14 5 7 10 13 14 15 17 19 19 17 16 15 17 15 16 16 17 18 19 17
3 4 4 2 4 3 3 6 6 7 12 7 16 16 22 19 18 7 7 10 14 17 17 16 14 11 9 11 12 11 12 14 15 14 14 14 13 13 12 12 13 14 16 18
4 2 2 2 1 4 6 11 10 10 10 13 17 20 14 11 12 6 8 11 13 14 14 14 15 15 13 17 15 16 13 10 11 9 6 7 8 9 10 10 10 10 11 11
2 3 2 3 2 7 4 1 4 7 8 9 13 14 16 9 12 9 9 11 13 13 12 14 14 13 16 17 17 18 20 23 22 19 15 14 10 9 5 8 9 11 12 14
3 3 1 2 4 1 2 8 3 5 12 11 13 17 13 4 12 12 10 10 14 12 11 12 11 17 19 17 20 20 22 24 21 22 18 15 13 13 11 10 9 8 5 5
2 3 2 1 1 4 2 4 5 9 15 14 13 18 18 15 16 13 11 11 11 13 8 12 15 18 20 23 22 29 23 23 19 24 20 15 15 16 16 15 12 11 11 14
4 2 2 1 2 2 2 10 11 8 3 15 14 18 16 18 5 4 11 9 12 12 18 14 16 20 23 22 25 28 28 25 28 24 17 17 19 21 20 18 18 15 17 20
2 1 3 2 2 5 10 15 10 3 5 9 15 13 22 11 9 10 10 12 15 18 17 16 23 24 22 21 26 33 24 23 23 19 18 19 21 22 19 22 22 22 24 25
1 2 2 2 3 3 14 5 5 3 2 8 11 14 15 15 13 12 13 14 15 16 19 20 24 23 26 28 25 24 24 17 19 20 21 21 23 21 19 22 24 22 21 22
2 4 3 4 3 6 8 9 9 11 7 10 10 11 11 13 13 12 13 14 15 19 20 22 22 22 28 30 27 24 20 16 18 21 20 22 23 22 21 23 22 22 21 21
7 8 2 2 6 10 12 11 12 11 11 13 12 11 10 13 11 12 12 12 13 22 23 23 25 26 26 27 27 24 16 15 17 20 21 21 24 23 24 27 25 22 21 20
3 7 7 2 8 7 13 12 10 11 10 13 13 13 13 12 14 12 13 13 18 20 22 22 22 22 23 22 22 18 17 13 15 16 17 16 20 25 28 32 26 27 29 21
5 4 3 3 4 9 8 10 11 11 12 12 12 15 17 16 14 15 14 18 19 20 19 20 20 19 18 18 20 18 14 12 13 15 15 15 16 17 18 21 27 32 31 30

GFSCGP_925_spd_090.txt.gz
Wind_Speed
16 14 19 22 20 17 12 14 15 9 8 17 21 21 19 16 21 20 21 21 22 23 20 23 22 16 15 15 19 25 28 27 29 27 23 21 21 20 25 28 31 33 31 35
11 22 20 15 14 17 20 21 20 17 13 14 19 21 21 23 20 24 23 22 22 22 21 20 25 19 15 16 20 24 28 27 30 26 24 19 20 18 20 26 30 31 31 34
19 4 17 17 16 17 18 18 14 15 14 19 21 22 14 4 11 12 14 15 18 21 20 20 20 22 18 18 20 24 28 27 28 24 21 16 14 13 17 23 27 30 32 33
18 20 7 15 19 16 17 14 14 14 10 7 1 6 11 6 5 7 3 9 12 17 17 19 19 20 19 20 19 23 27 28 27 24 21 21 18 15 14 20 26 27 32 35
17 10 18 16 13 14 13 5 10 9 10 12 16 8 5 7 9 6 11 11 13 14 11 16 18 20 19 18 21 23 27 27 25 24 20 19 17 16 15 18 19 25 27 36
21 3 10 14 14 12 5 7 8 8 8 10 17 13 4 2 8 11 12 13 13 13 11 11 14 16 15 18 21 25 28 27 24 23 19 18 16 14 13 13 16 22 28 35
19 13 5 8 11 9 14 11 5 7 5 6 4 8 9 8 4 8 12 15 15 14 12 10 7 9 15 19 22 26 28 27 24 21 19 17 15 13 13 13 19 20 21 27
17 15 14 10 12 8 16 13 6 8 6 3 8 7 3 3 1 7 12 16 17 19 12 9 6 8 14 17 21 22 26 25 22 20 18 16 14 11 10 15 20 23 23 28
16 17 10 11 10 11 9 9 5 4 5 5 7 8 7 4 5 10 14 17 19 20 16 13 6 8 12 17 19 21 24 23 21 20 18 16 14 10 8 13 18 23 25 30
6 11 12 10 11 6 7 9 4 5 5 6 5 8 3 6 11 15 17 18 19 19 18 14 7 9 12 15 19 20 23 21 20 21 18 16 13 10 9 10 15 21 27 30
9 8 12 12 11 15 7 7 5 2 3 3 2 3 7 8 12 15 16 16 17 18 17 14 8 3 11 14 18 20 21 21 21 21 19 17 14 11 10 9 12 19 26 30
11 4 10 12 5 6 6 7 9 5 5 1 3 5 6 7 14 15 14 14 14 15 15 11 7 2 8 13 16 18 18 20 20 21 19 17 14 13 11 11 11 17 22 25
6 6 8 8 5 4 7 3 5 4 0 7 3 1 2 15 17 16 13 13 11 13 15 16 6 3 6 12 15 17 18 18 19 19 20 17 15 15 14 12 12 13 15 20
15 2 4 7 7 8 6 9 8 6 4 4 8 14 14 17 18 15 11 9 8 10 12 13 14 10 7 9 12 15 17 17 19 17 20 18 16 14 13 12 13 14 14 15
2 9 10 9 8 5 5 7 9 9 7 5 9 13 15 15 16 20 8 6 7 10 14 15 15 16 15 5 10 13 15 19 20 19 17 16 15 14 13 12 12 12 14 13
11 5 5 6 4 3 3 5 8 8 8 8 13 12 11 18 16 9 7 8 7 8 12 15 17 14 14 18 13 14 8 12 14 13 11 14 14 14 14 14 13 11 11 11
5 1 2 3 2 5 4 2 1 1 5 9 13 15 16 15 7 9 7 7 7 8 10 13 14 13 15 17 16 16 15 17 18 18 16 15 13 12 10 8 8 9 11 12
3 5 3 2 4 2 7 6 5 7 10 12 14 16 17 17 8 11 12 9 9 9 11 13 12 16 16 16 17 16 18 18 19 19 18 16 15 14 12 13 12 11 11 13
2 1 2 1 2 2 7 8 8 10 4 11 14 18 18 2 12 11 13 12 10 9 8 14 18 18 17 18 16 18 21 22 23 22 21 18 16 16 14 15 14 14 16 18
1 2 3 0 1 1 7 13 14 10 2 12 15 17 20 15 4 5 11 13 13 16 15 17 19 19 22 20 17 21 21 25 24 24 22 20 23 24 19 17 18 18 22 26
2 2 2 2 2 4 11 18 22 3 6 9 12 14 17 11 9 10 11 12 16 19 21 19 22 20 24 21 19 19 20 23 25 28 22 20 26 28 20 22 23 23 25 28
3 3 2 2 3 2 19 5 6 6 6 7 10 10 13 13 13 12 12 12 13 16 19 21 20 21 24 24 18 18 22 23 29 31 23 29 28 22 19 20 21 22 22 23
2 5 4 5 3 6 8 10 8 10 9 9 8 10 10 12 13 12 11 12 13 16 16 17 19 21 25 26 26 25 25 25 24 30 27 29 25 21 20 18 18 19 19 17
3 10 2 4 7 9 10 10 12 12 11 10 10 11 11 12 11 11 10 11 13 18 19 19 20 21 22 24 24 22 22 20 23 26 26 26 26 22 21 22 22 20 18 16
4 7 5 5 9 5 11 11 9 11 10 11 11 11 12 11 11 10 11 11 16 18 20 22 22 24 26 25 25 25 22 19 21 22 22 22 21 24 27 31 26 27 30 20
5 4 4 3 3 7 7 9 9 10 10 10 10 12 13 13 11 13 10 16 17 19 21 23 24 24 25 27 27 25 22 19 19 20 19 16 15 17 16 18 25 30 28 28

GFSCGP_925_spd_093.txt.gz
Wind_Speed
16 17 24 26 24 24 18 21 17 17 16 11 15 21 23 22 22 22 22 20 20 20 20 22 23 24 24 22 20 22 26 27 28 26 26 25 24 22 23 24 26 28 29 32
19 24 23 22 22 20 21 23 23 21 20 19 20 24 24 22 19 23 22 20 19 18 17 17 22 25 26 23 21 23 26 28 29 26 26 24 21 20 21 21 25 27 30 31
25 23 21 26 20 20 21 23 19 20 17 17 20 25 27 27 21 23 19 16 13 13 15 16 17 22 26 23 23 24 26 28 28 28 25 22 17 13 17 20 22 26 28 29
25 23 24 16 26 22 22 20 20 18 16 11 6 9 14 5 9 8 5 4 7 10 13 15 17 17 25 25 23 23 24 27 27 30 28 26 18 15 17 18 19 24 27 29
25 29 23 20 18 20 20 15 16 16 13 16 18 10 16 13 10 11 2 5 8 8 10 13 14 16 25 27 23 21 23 27 25 31 27 24 23 20 16 19 18 20 25 31
24 25 20 20 23 16 14 11 12 11 11 14 17 15 10 11 7 5 6 6 7 9 9 10 12 18 22 23 21 20 22 26 26 28 27 23 20 16 16 16 16 19 24 31
20 27 10 12 16 20 16 14 9 10 11 13 12 11 14 12 8 3 5 9 11 12 11 8 9 9 15 16 17 18 22 25 26 27 26 21 18 18 15 15 14 13 21 23
16 17 23 14 14 13 20 17 9 11 10 13 14 7 7 14 6 1 7 8 11 15 15 11 8 5 7 11 15 16 23 25 25 24 21 18 15 14 14 12 12 13 21 25
16 23 26 19 17 14 13 18 20 13 13 6 6 10 7 9 10 5 10 11 13 16 18 16 13 3 8 14 13 16 20 24 23 21 19 17 15 13 11 9 12 16 18 22
9 11 8 19 15 18 12 12 9 8 5 8 11 14 9 10 5 8 10 12 14 17 18 20 16 2 5 16 15 13 17 20 20 19 17 16 15 12 9 10 15 17 18 22
18 12 21 17 16 19 12 12 8 6 9 6 7 6 14 9 10 11 12 12 15 16 16 16 16 15 4 16 14 15 21 19 18 17 16 15 15 13 11 10 13 19 22 26
15 7 11 21 20 21 19 16 16 6 10 5 4 2 4 13 13 13 13 13 13 15 14 15 17 14 13 11 11 13 17 19 16 15 16 16 15 15 12 10 13 20 25 28
8 5 10 9 9 12 19 12 11 3 1 8 4 1 9 12 14 12 16 12 13 14 16 16 16 14 9 6 7 10 8 14 15 14 15 16 15 15 12 12 13 20 23 26
11 9 5 3 13 12 10 11 10 7 5 6 8 11 12 16 13 16 16 13 13 13 14 14 14 15 16 14 9 10 8 12 14 16 15 15 15 16 14 13 15 16 19 23
5 4 9 12 10 13 10 10 9 7 6 5 9 10 12 14 16 18 13 14 13 13 14 14 14 14 16 19 22 7 11 11 13 11 13 14 13 13 12 12 11 12 16 17
7 4 11 13 11 10 9 4 2 4 5 10 9 9 18 15 15 13 14 13 13 14 13 13 15 15 14 19 20 21 15 8 14 13 10 13 11 11 10 11 12 10 9 8
8 4 7 9 8 4 5 4 1 1 8 13 9 16 19 19 14 11 12 12 13 14 13 13 13 13 17 18 18 18 17 15 19 17 14 15 15 17 15 11 13 11 12 10
8 10 6 3 3 4 8 8 7 10 12 14 14 17 18 13 11 14 14 13 13 14 13 13 12 16 18 17 18 18 15 19 17 17 16 14 14 15 14 15 16 16 18 17
6 6 4 2 1 11 9 10 8 9 7 16 17 19 18 2 10 14 15 14 13 14 13 15 16 16 21 22 19 17 18 22 24 20 18 17 16 17 16 18 16 14 17 19
5 5 3 2 3 3 9 15 14 13 4 13 14 17 17 11 2 5 11 12 13 18 20 21 20 20 26 26 22 24 24 24 24 21 19 23 24 25 25 23 23 20 22 24
2 3 3 4 2 6 15 20 21 3 4 10 12 12 15 8 7 6 8 11 15 17 20 22 23 21 26 24 21 29 26 27 24 23 20 25 27 32 30 28 29 28 26 28
6 5 3 2 3 4 21 7 7 7 5 7 10 10 10 10 10 10 10 12 14 16 19 22 21 25 24 24 27 27 28 26 23 27 22 27 25 30 30 25 31 32 22 25
3 6 4 5 4 6 10 10 9 9 8 10 10 9 8 9 11 11 11 13 15 18 17 19 21 20 28 29 27 25 22 22 29 27 23 26 27 38 32 27 24 31 15 23
4 11 4 5 7 8 9 10 11 10 10 11 11 10 9 10 10 11 11 11 14 17 19 18 19 22 23 26 28 26 23 20 28 23 26 29 30 30 29 32 31 31 24 24
4 7 5 6 8 8 12 10 8 9 10 11 11 11 10 9 10 10 10 11 15 15 17 17 18 20 20 21 25 26 22 17 21 19 22 20 22 25 33 37 31 30 34 27
6 5 4 4 4 9 8 8 9 10 11 10 10 10 11 11 10 12 10 15 16 17 18 19 21 22 23 25 25 25 26 23 20 20 21 17 16 16 24 25 29 32 30 29

GFSCGP_925_spd_096.txt.gz
Wind_Speed
16 13 22 23 23 27 24 26 25 23 18 19 18 21 23 16 17 19 16 13 15 15 15 20 20 19 24 23 24 29 31 34 32 27 27 25 26 24 25 26 23 25 26 27
18 23 24 22 25 26 27 27 27 22 22 17 20 25 18 18 21 21 22 17 15 17 17 18 22 22 21 21 22 22 29 35 31 28 27 23 22 23 22 25 28 28 27 28
21 27 24 26 24 26 26 26 21 20 19 18 21 24 22 27 25 21 22 15 17 17 13 8 7 11 25 25 22 21 23 33 30 26 23 21 23 20 22 23 24 27 27 29
23 21 26 28 26 24 25 23 18 19 16 16 18 15 22 17 14 23 23 22 12 3 6 7 8 8 15 24 27 24 23 23 32 29 26 28 24 19 16 20 21 23 26 29
25 25 24 27 30 24 19 22 16 18 18 17 20 12 17 17 18 11 9 5 2 3 4 6 7 10 20 18 25 28 26 24 32 32 28 29 24 20 16 19 22 23 23 26
26 28 28 26 27 26 12 16 15 17 13 15 19 17 14 15 14 13 11 4 7 9 9 7 8 10 16 19 19 30 26 22 30 29 32 28 26 20 20 23 21 23 24 26
26 25 27 27 26 11 14 10 8 7 10 13 18 16 12 13 6 10 8 9 11 11 12 16 9 8 8 15 18 26 24 20 29 28 28 24 28 23 18 25 23 20 21 25
16 21 15 19 18 9 23 18 7 7 7 13 19 9 10 11 16 9 10 11 13 14 15 17 21 20 8 7 22 19 19 18 25 27 25 23 20 16 15 15 16 19 20 22
9 14 17 22 8 6 17 23 20 12 14 6 6 11 17 18 6 12 10 13 15 15 14 17 18 21 12 16 15 10 11 17 22 25 22 20 19 15 11 13 14 14 17 17
4 11 17 9 14 20 12 12 13 7 4 4 2 5 7 9 10 9 10 13 16 16 14 16 17 19 28 17 10 3 8 12 21 23 19 17 14 13 12 12 13 13 14 12
13 7 13 12 7 15 11 4 4 7 10 2 2 4 10 13 8 9 12 14 16 14 14 15 16 24 32 13 6 3 5 6 22 20 15 16 14 13 12 11 13 14 11 12
9 5 7 15 19 28 19 14 17 4 5 7 2 3 6 11 9 16 16 17 16 16 15 15 15 19 25 25 6 5 5 15 18 17 14 15 15 13 13 12 12 13 12 15
6 4 5 4 13 21 19 16 11 14 2 6 5 4 6 13 19 18 18 17 17 16 17 16 16 15 19 25 28 7 6 3 12 19 15 14 15 14 12 11 12 13 15 20
11 6 10 10 10 12 16 15 3 2 4 4 6 13 7 16 16 16 17 17 17 16 17 16 15 15 20 25 26 28 8 0 6 13 12 13 16 14 13 12 13 15 17 21
3 7 9 23 29 13 10 11 7 7 5 3 4 15 17 18 16 17 16 16 17 18 19 17 15 15 19 24 28 29 29 8 8 10 11 11 14 18 15 17 15 16 18 20
3 3 10 9 4 21 12 8 16 9 9 9 11 7 21 19 17 17 17 17 16 17 18 18 18 17 17 22 24 27 28 28 9 4 7 9 11 14 15 14 15 16 18 19
4 1 2 11 15 19 15 10 11 19 20 15 12 18 21 17 16 16 15 15 15 16 16 18 17 17 21 22 22 24 26 26 16 16 14 15 13 14 13 13 15 13 13 18
6 11 1 3 4 9 11 17 19 21 18 18 16 20 18 11 14 15 15 14 14 14 15 16 16 21 23 23 24 25 27 26 21 20 19 15 16 17 16 17 17 16 17 17
6 8 3 3 9 9 14 18 15 11 11 17 16 17 16 10 8 16 14 12 12 11 13 17 21 23 23 26 25 25 28 27 25 24 25 20 14 16 18 21 19 18 21 22
7 6 3 2 6 3 9 18 16 8 4 14 14 15 15 10 4 6 11 11 12 16 17 20 23 25 28 30 25 27 28 29 26 23 26 27 24 21 22 21 23 23 26 27
5 6 7 5 5 6 17 22 15 2 5 10 11 12 14 10 6 6 9 12 15 17 21 21 24 26 29 29 27 27 28 28 24 25 35 36 31 30 26 25 24 28 30 33
8 6 6 7 5 4 23 9 7 5 7 9 10 10 10 10 10 10 11 12 16 18 22 24 23 25 28 31 25 27 29 27 23 31 36 38 39 35 28 27 25 23 26 26
5 5 3 6 4 8 11 11 10 10 9 11 10 9 9 10 11 11 12 13 16 19 20 22 22 22 28 30 29 25 24 24 27 33 31 35 38 34 33 35 30 25 21 26
4 12 3 6 8 10 11 11 11 10 10 11 11 10 11 11 11 11 11 11 15 18 19 20 22 24 25 29 31 29 25 25 25 29 31 32 33 34 33 34 35 26 24 31
4 8 7 7 9 10 12 10 9 9 9 11 11 12 12 11 12 10 10 12 15 15 16 19 20 21 24 26 28 32 26 26 27 25 23 26 26 29 28 36 31 27 35 27
5 4 4 4 5 9 7 8 8 9 10 12 11 12 14 13 11 13 12 15 17 18 19 20 21 22 22 24 27 27 25 26 23 23 23 22 17 22 25 24 28 31 31 31

GFSCGP_925_spd_099.txt.gz
Wind_Speed
8 10 14 9 14 19 17 19 21 19 13 13 18 11 16 12 15 18 13 9 9 11 8 11 13 27 34 40 40 31 40 40 38 36 34 32 34 30 27 30 33 28 28 30
6 20 14 12 17 19 22 25 25 22 21 17 14 12 9 9 9 14 11 10 11 9 10 9 17 20 21 31 33 29 44 44 41 38 34 27 29 29 30 24 30 34 32 30
13 11 12 16 20 23 22 20 19 19 16 8 8 15 9 16 15 24 20 17 21 18 13 9 12 19 24 25 24 28 39 42 37 33 29 21 24 20 25 31 28 32 33 30
13 12 17 20 21 19 21 17 21 21 19 8 3 15 14 11 21 24 24 28 19 11 8 7 7 2 5 16 27 30 40 40 38 38 32 33 28 21 24 23 29 33 30 30
20 15 19 23 23 20 23 19 19 21 17 3 9 6 16 11 19 22 20 11 18 8 4 11 15 10 13 13 14 29 43 41 39 39 37 34 25 23 23 24 26 31 31 29
19 17 6 10 20 24 23 18 7 15 3 9 14 9 13 15 14 13 6 12 13 13 13 15 16 26 27 31 15 30 36 35 41 39 37 35 30 26 23 26 28 28 28 28
11 13 14 18 23 22 16 16 4 4 3 11 9 11 19 13 20 1 3 16 15 16 17 17 18 17 25 30 19 30 31 33 37 37 35 31 30 30 29 31 28 26 26 26
5 11 2 9 13 15 18 10 5 5 5 8 12 9 10 11 5 16 10 17 18 18 16 17 17 17 23 28 6 26 25 27 31 32 32 29 30 31 29 31 31 29 26 24
4 10 19 20 15 17 6 6 18 11 7 3 4 7 7 21 15 16 17 18 16 16 16 19 18 21 29 27 25 22 15 15 26 29 27 26 27 27 24 27 28 27 25 21
4 14 7 12 14 7 1 3 2 6 2 4 1 3 4 12 17 6 17 17 17 18 20 19 18 22 30 32 31 26 24 16 14 26 26 23 25 22 19 20 21 18 15 15
6 6 13 13 4 7 2 1 6 8 4 2 2 4 3 9 12 16 18 18 17 17 18 17 17 23 25 28 30 31 24 21 6 25 22 22 19 18 16 15 12 11 13 14
6 5 7 17 18 7 13 10 12 3 2 4 5 2 7 8 6 17 19 18 16 18 18 17 17 24 26 29 31 29 31 18 9 18 24 19 17 13 11 8 7 9 11 13
3 3 5 9 2 3 4 9 6 4 6 3 2 2 8 11 19 19 19 17 19 19 19 18 18 18 24 27 28 28 29 31 7 14 17 18 17 14 13 13 8 10 12 13
2 6 10 7 6 8 6 17 11 5 4 1 4 9 16 17 18 20 20 18 16 16 18 17 17 17 24 27 28 29 30 30 26 10 14 15 14 13 13 11 10 13 14 13
3 7 12 19 21 15 15 20 15 10 4 3 11 20 13 16 16 17 15 16 18 19 19 17 17 16 23 26 27 27 27 29 28 6 10 13 14 13 13 12 12 14 15 14
3 5 7 20 18 15 6 12 19 12 15 10 12 15 11 14 14 16 16 17 18 17 18 18 18 16 21 25 25 24 25 29 28 25 9 6 10 13 11 13 12 15 14 14
4 3 4 8 20 15 11 17 20 19 20 13 14 8 8 12 15 16 16 16 16 16 17 17 17 17 22 24 25 23 22 28 30 30 26 13 15 14 15 17 17 16 15 14
4 4 2 3 3 7 7 18 23 25 17 15 12 12 10 14 15 16 15 15 15 15 15 15 17 21 25 26 27 23 23 29 32 30 29 25 16 16 15 19 19 19 19 20
10 2 4 3 4 6 12 13 10 10 10 16 15 15 11 7 5 17 16 14 14 14 16 17 21 22 24 28 28 25 26 27 32 32 29 28 24 21 21 22 21 18 20 22
2 6 3 2 5 4 3 21 17 8 6 15 15 15 13 11 7 7 13 13 13 20 21 20 21 23 29 30 28 29 29 30 29 27 31 30 29 25 30 28 27 24 26 27
5 5 7 5 4 4 16 22 15 6 3 11 12 12 12 10 6 6 9 12 18 18 22 22 24 26 28 26 27 29 30 32 28 29 27 36 34 26 27 32 32 32 31 31
7 5 5 4 5 2 21 6 6 5 11 10 11 9 10 9 9 9 10 11 16 17 21 24 22 24 27 31 26 28 30 27 31 34 34 37 35 29 27 32 32 31 28 28
5 5 3 5 4 6 10 12 11 10 9 11 10 10 8 9 8 9 9 10 15 18 18 20 22 24 28 32 30 28 27 30 31 33 33 36 37 32 33 30 27 31 28 26
7 10 4 2 7 10 10 11 11 9 10 10 10 9 9 10 8 9 9 10 13 18 20 21 22 25 28 33 31 31 28 28 24 29 31 30 32 32 36 33 33 28 23 22
3 6 6 6 9 10 9 8 8 9 10 11 9 10 10 10 11 9 9 12 15 16 17 20 21 23 26 28 32 32 29 26 26 26 22 27 27 29 30 34 32 29 31 28
4 3 3 2 5 7 5 6 7 8 10 9 8 10 13 13 10 12 12 15 16 17 19 20 21 21 23 25 27 28 27 26 24 22 22 23 19 24 23 23 28 31 30 30

GFSCGP_925_spd_102.txt.gz
Wind_Speed
4 3 5 6 9 13 13 16 19 24 25 19 21 24 20 21 10 14 16 13 11 12 14 21 27 27 31 35 33 35 38 41 37 32 33 32 35 38 32 35 36 35 36 36
3 8 10 10 8 12 15 18 23 21 22 20 22 25 23 14 13 13 11 10 10 8 10 10 15 24 23 29 37 32 38 41 41 38 39 30 34 33 36 34 28 34 35 34
8 4 8 8 9 9 13 19 20 22 24 22 16 22 18 18 7 11 14 13 11 14 15 12 9 14 20 23 29 31 39 41 44 39 31 24 28 21 25 31 35 34 33 31
12 7 8 10 15 11 16 13 13 18 18 16 6 18 22 10 14 17 17 15 19 17 17 2 6 6 14 15 13 28 36 40 40 36 34 35 32 26 27 30 32 37 36 34
14 15 12 16 16 17 20 10 15 19 19 8 20 12 18 8 16 14 11 14 18 8 9 7 7 7 13 18 16 15 30 30 38 41 37 35 28 28 24 27 29 34 34 35
17 5 6 9 8 9 11 12 15 14 2 8 15 15 25 15 16 16 6 16 17 12 11 12 12 19 24 26 22 12 27 31 33 39 36 37 34 29 26 27 27 28 31 33
10 7 6 7 5 5 2 4 7 4 5 12 12 12 15 13 17 12 12 19 16 12 15 17 20 18 24 30 32 7 25 27 31 34 35 38 36 36 34 30 28 27 25 28
4 7 4 6 1 7 11 5 5 8 4 5 9 5 2 12 15 16 15 16 17 18 17 17 18 16 24 29 33 30 7 26 31 31 31 31 32 32 32 35 32 29 28 32
4 5 15 17 16 3 2 9 15 10 8 7 5 5 5 12 19 20 19 18 17 16 17 22 19 22 26 27 28 28 23 6 19 24 24 27 32 31 31 31 30 31 32 29
3 12 8 12 9 10 10 5 3 1 4 7 7 2 3 13 15 13 17 18 16 17 21 17 17 22 26 27 27 28 30 26 6 21 29 30 31 28 27 25 27 26 27 25
3 5 8 9 6 4 3 1 4 3 3 4 3 3 5 6 14 14 17 17 17 18 16 15 17 26 27 29 31 31 32 31 28 9 20 23 25 24 23 23 20 20 19 18
1 4 7 14 23 16 13 6 4 3 4 6 2 4 6 14 15 14 16 18 15 14 15 16 17 24 28 30 33 31 32 32 31 18 13 23 26 25 22 20 17 14 13 13
2 3 6 12 2 8 4 2 2 6 2 2 2 4 10 12 15 16 18 16 14 16 19 17 18 17 23 26 30 30 32 33 33 22 8 19 20 22 17 16 10 5 6 10
6 6 10 10 10 7 6 12 11 4 2 5 5 6 14 16 17 19 19 18 17 18 19 19 18 17 24 27 29 30 30 30 32 25 1 14 14 15 15 10 9 5 10 11
4 7 12 19 21 15 14 13 13 16 7 5 4 10 13 14 15 17 16 17 19 20 19 18 18 17 24 26 28 29 29 30 30 26 22 16 8 11 13 12 10 10 11 10
4 5 9 19 20 11 5 12 9 18 15 10 9 10 13 14 15 17 17 18 18 19 19 19 19 17 22 27 28 28 28 27 25 28 28 23 17 5 8 8 8 8 9 8
5 4 5 13 14 11 11 11 14 22 20 7 8 6 11 13 16 16 16 16 17 17 17 18 17 18 24 27 27 27 27 26 27 30 31 30 24 15 9 13 16 13 11 10
8 8 2 2 2 6 6 8 18 24 17 13 11 9 11 13 13 12 12 14 15 16 16 15 18 23 25 28 29 27 29 29 27 28 33 33 28 22 16 12 18 18 16 15
11 4 4 2 6 10 3 10 9 7 10 12 10 8 8 9 5 12 13 12 12 12 15 18 21 23 25 28 28 27 30 30 31 31 30 33 31 27 24 22 19 23 24 22
6 7 2 2 4 4 5 18 13 6 5 11 10 10 9 7 4 5 10 12 12 18 20 21 23 25 29 29 27 28 30 31 31 31 29 28 33 32 27 23 22 23 28 29
4 3 7 5 4 4 13 17 5 5 1 8 9 9 11 6 5 4 7 11 16 16 21 22 24 25 28 29 28 32 30 31 29 32 34 35 31 32 28 27 27 27 23 30
6 4 4 3 4 3 18 5 5 5 7 8 9 7 8 7 7 6 8 10 16 18 21 24 24 26 30 32 30 30 30 31 32 33 35 35 36 34 30 29 30 30 24 25
5 5 2 5 3 4 7 10 9 7 8 7 9 8 6 6 7 7 9 11 16 19 20 23 23 23 30 33 32 27 27 27 33 33 34 32 35 34 35 32 31 31 27 23
6 9 4 3 4 8 8 9 8 8 8 8 8 8 8 8 7 9 9 10 14 18 20 20 21 25 27 29 30 28 28 27 25 28 29 30 30 32 34 34 31 30 30 23
2 5 3 5 7 8 8 6 8 9 8 9 9 10 10 8 9 8 8 12 15 16 18 21 21 22 23 26 29 29 27 24 24 24 20 24 26 27 27 33 31 29 33 29
3 1 1 2 4 4 5 5 8 8 9 8 9 10 14 12 9 13 12 14 15 16 17 19 19 19 21 25 28 27 26 25 24 21 20 20 17 20 22 22 24 30 29 30

GFSCGP_925_spd_105.txt.gz
Wind_Speed
2 2 5 8 8 7 5 9 17 17 14 14 14 20 20 25 22 21 16 17 18 16 19 22 28 35 31 29 33 40 38 41 39 34 32 28 29 36 37 37 37 37 37 38
2 5 10 6 5 7 9 12 14 17 10 10 19 24 23 20 19 23 22 19 17 12 11 14 22 30 27 27 22 33 37 41 40 36 37 29 35 33 41 40 40 40 38 39
6 4 2 5 5 5 7 6 7 11 17 13 15 21 19 17 15 15 22 13 9 10 16 13 13 14 16 18 18 19 32 35 40 38 30 23 24 18 21 29 34 39 40 40
4 3 2 5 5 4 16 5 10 13 9 15 1 22 18 19 22 19 21 5 8 13 18 16 12 7 12 15 14 11 27 37 39 38 34 33 33 25 27 35 37 35 39 42
5 5 6 7 7 8 18 8 8 8 13 16 20 13 23 15 19 18 1 7 9 12 16 17 15 16 17 20 19 15 18 34 32 37 36 35 28 29 24 27 32 34 37 39
3 3 2 4 4 5 9 8 14 10 9 14 21 10 26 9 14 9 7 10 10 14 17 17 21 19 18 21 23 21 9 27 32 36 35 34 34 29 26 26 27 29 30 35
6 3 4 2 4 4 2 3 3 3 6 14 11 10 18 14 9 10 10 9 9 15 16 16 16 15 20 23 28 25 16 13 24 29 33 32 29 31 34 33 30 26 26 27
4 6 1 5 2 6 11 6 4 7 5 6 5 5 4 13 13 15 15 14 15 16 16 16 17 16 20 24 27 27 26 20 15 22 24 27 29 31 27 28 26 27 29 29
4 4 13 13 13 4 3 5 8 9 13 8 5 10 1 17 15 18 19 19 18 18 19 19 16 19 24 25 26 26 27 25 18 19 23 24 28 30 31 30 26 26 29 31
4 13 8 11 3 7 12 6 1 4 3 4 4 6 9 14 17 16 16 13 15 16 17 17 16 20 25 27 27 28 27 25 23 6 18 22 27 29 27 26 27 28 28 29
2 4 6 6 7 7 2 5 7 4 3 2 1 4 4 8 12 15 15 16 14 17 17 15 14 24 27 27 28 27 28 25 26 19 2 18 24 22 22 22 24 25 26 25
3 2 6 11 18 16 11 8 6 3 4 4 1 3 5 8 13 14 16 17 17 16 17 16 18 24 23 26 29 29 29 29 28 27 15 9 17 20 21 22 22 20 19 18
3 2 5 10 5 7 3 2 11 3 2 3 3 3 7 10 13 14 14 15 15 18 18 20 19 18 24 27 28 29 31 29 29 31 26 4 14 19 21 21 20 17 14 12
4 4 8 9 12 9 9 14 19 11 3 5 4 3 11 13 14 14 16 16 17 17 18 18 18 17 25 28 28 29 30 31 32 30 27 21 8 15 18 17 17 13 9 10
5 7 11 17 19 18 13 11 14 5 5 4 5 6 8 12 12 13 13 15 16 19 19 17 17 17 25 27 28 30 31 32 31 29 28 26 21 5 9 10 11 9 7 5
2 4 6 18 15 2 14 19 17 11 12 10 12 8 8 10 12 16 16 16 17 17 18 18 18 18 23 28 28 28 30 30 30 28 26 28 26 20 16 8 6 7 10 9
4 3 3 5 14 11 10 10 14 11 16 9 5 6 7 12 15 15 15 15 15 15 15 17 18 19 24 27 28 28 29 28 27 26 34 31 33 30 26 16 10 8 7 9
7 4 3 4 8 4 6 6 12 17 13 12 11 9 9 11 10 11 11 12 15 16 17 16 19 23 26 29 28 26 28 30 30 32 32 34 31 33 32 30 27 19 11 12
10 4 2 2 7 7 2 7 6 5 6 11 8 5 3 7 2 9 13 11 11 13 15 18 22 24 27 28 29 27 30 30 31 32 33 32 30 30 32 32 31 29 24 21
6 3 2 2 4 3 3 13 10 5 3 9 9 8 8 5 4 3 10 11 12 17 20 21 24 25 29 29 28 30 30 31 32 31 31 34 33 30 29 29 32 29 28 27
4 3 6 4 4 5 10 15 5 3 1 7 8 9 11 5 4 3 7 11 16 17 20 23 24 26 27 29 27 30 31 32 29 30 33 36 35 35 32 30 32 28 33 28
5 4 4 3 3 4 15 3 3 5 7 7 6 6 7 5 5 5 8 9 14 17 20 23 21 24 27 30 28 28 31 29 31 33 34 36 35 34 36 36 34 33 33 26
4 4 2 5 3 4 6 9 9 6 8 5 8 6 6 6 7 7 8 9 14 17 19 21 21 21 27 31 29 27 28 26 29 33 34 33 34 34 35 35 32 30 30 26
4 6 3 1 4 7 7 7 9 8 8 8 7 7 6 7 5 6 7 9 12 18 20 21 22 24 25 28 30 29 29 28 25 27 29 30 30 31 32 33 33 32 30 24
2 5 4 5 5 6 7 6 7 9 9 10 10 8 6 6 7 5 4 9 13 15 18 20 18 19 22 27 31 31 30 27 24 23 24 24 24 28 27 31 32 29 33 31
2 1 2 2 6 4 3 5 6 7 7 7 8 9 11 8 5 9 8 11 13 14 15 17 19 21 24 28 30 29 29 27 24 22 22 23 22 23 23 22 22 25 30 29

GFSCGP_925_spd_108.txt.gz
Wind_Speed
2 3 5 9 8 5 4 5 11 6 6 6 8 18 27 13 8 14 14 15 14 14 20 21 25 30 30 27 29 31 33 34 39 33 33 32 32 35 33 38 40 37 37 36
3 4 9 3 3 5 6 8 8 8 5 4 8 21 22 20 7 9 17 18 15 13 7 10 18 21 21 27 25 26 29 33 38 34 34 34 36 33 38 33 31 39 39 39
5 4 4 4 2 4 4 5 5 14 5 8 10 17 9 12 19 13 14 18 6 3 4 7 11 17 21 22 21 18 23 27 35 36 30 27 25 20 23 26 30 40 39 39
4 1 2 3 4 5 7 8 9 10 8 9 5 14 32 9 15 17 24 21 5 6 6 6 10 15 20 22 27 24 21 23 34 39 33 34 32 26 29 32 37 36 41 42
3 3 5 3 4 2 4 6 8 7 6 8 15 8 12 19 23 13 10 10 10 12 11 10 11 17 20 23 25 26 23 26 31 34 36 37 33 31 28 28 29 33 37 41
3 2 4 7 5 5 8 5 7 7 2 9 18 10 15 6 11 18 11 13 14 15 15 15 19 20 22 25 26 26 25 23 25 34 38 38 37 30 25 28 29 30 32 34
4 4 1 4 2 4 5 6 3 4 1 6 6 7 5 9 10 12 16 19 17 16 15 16 18 17 23 26 27 25 25 21 12 27 30 31 31 29 34 30 27 28 29 29
1 3 1 3 3 4 2 6 3 5 2 5 11 6 2 8 11 13 13 13 16 18 17 16 17 19 22 26 27 27 25 22 18 17 25 26 27 26 25 26 26 27 26 26
3 4 5 13 12 6 1 5 7 6 10 6 4 3 7 9 13 17 15 15 15 18 18 18 18 20 24 25 25 27 27 24 21 14 15 23 25 28 27 27 27 27 27 27
2 6 8 9 2 5 8 3 2 2 3 5 5 2 4 12 16 16 16 15 17 18 18 17 17 23 23 22 27 26 27 25 23 18 9 19 23 25 28 28 30 29 29 28
1 3 5 3 6 5 2 3 5 4 4 3 2 1 5 9 12 13 14 15 14 16 16 15 16 24 22 25 29 30 30 30 29 27 14 9 20 24 25 26 28 26 24 24
2 2 5 7 10 12 7 4 3 1 2 4 2 2 6 8 10 13 15 17 17 14 16 14 14 20 26 25 26 27 29 30 30 27 23 4 14 18 21 23 23 22 22 17
3 0 4 7 4 0 3 1 3 5 6 5 3 1 7 10 12 13 15 16 16 17 19 18 17 18 26 30 31 32 33 32 30 28 25 25 18 10 16 18 17 17 15 15
1 5 7 6 9 9 8 12 12 14 4 3 2 4 10 11 13 15 16 15 15 16 18 17 18 18 27 30 30 31 31 32 32 30 27 29 27 16 10 13 16 16 15 13
7 6 8 15 17 13 5 6 14 5 4 3 6 6 8 8 11 13 12 15 17 18 18 19 19 18 28 30 31 32 32 33 31 30 35 32 31 25 22 17 14 10 8 8
4 2 1 13 12 4 4 10 8 11 9 10 12 7 6 8 9 12 15 16 17 17 18 18 20 21 25 29 30 31 32 32 32 32 31 30 34 30 28 22 22 17 16 14
3 3 2 2 18 8 5 6 9 9 15 5 4 5 5 8 12 14 14 15 16 16 17 18 18 21 25 29 29 29 30 31 32 30 33 34 38 32 30 30 28 26 22 17
5 4 3 4 6 3 3 5 11 15 11 10 9 7 6 8 8 12 12 12 15 16 17 17 20 24 28 29 32 29 31 32 32 33 34 35 35 28 32 34 35 33 30 29
11 6 3 3 3 4 6 4 3 5 6 8 4 3 2 7 2 8 13 12 12 12 16 18 21 24 27 31 29 28 30 30 30 32 32 30 27 34 30 29 30 33 33 34
4 3 1 3 3 3 2 8 5 6 2 5 5 5 6 5 3 3 10 10 12 17 20 21 24 24 29 32 29 29 31 31 33 33 30 30 31 30 32 32 29 29 29 32
4 3 3 3 4 4 6 11 6 2 3 5 7 7 6 5 3 3 7 10 15 17 20 22 23 25 29 30 28 29 31 34 30 30 33 36 36 34 32 33 33 33 31 31
4 3 3 3 3 3 11 1 1 5 6 8 8 6 9 7 6 5 7 8 15 17 19 24 20 23 26 29 26 28 30 28 32 34 36 36 34 34 34 31 31 31 29 31
2 2 1 4 3 3 5 9 7 6 7 5 8 7 6 5 5 6 7 8 13 17 19 21 23 22 27 29 28 28 28 27 26 32 33 33 35 35 33 33 31 29 29 26
2 2 3 2 3 6 6 8 7 8 9 9 9 8 7 7 6 6 6 9 12 17 19 20 20 22 26 31 33 30 30 24 27 27 26 29 29 31 32 32 31 33 29 26
2 3 5 4 6 7 7 5 9 10 9 10 10 9 6 8 7 5 3 10 14 16 19 20 19 20 24 28 31 31 31 28 23 25 27 28 29 29 27 28 31 30 34 32
2 2 3 3 5 4 6 5 8 9 7 7 9 9 10 9 6 10 9 11 12 13 15 17 18 20 23 26 29 30 29 29 28 24 25 28 27 26 26 24 23 23 25 28

GFSCGP_925_spd_111.txt.gz
Wind_Speed
1 3 8 11 11 3 3 5 10 9 12 10 11 27 22 12 14 15 15 17 19 20 20 19 11 15 17 17 20 21 23 30 24 24 27 28 30 31 32 36 38 33 33 36
2 9 10 4 4 5 5 7 8 8 4 9 16 30 27 13 7 14 17 17 21 24 19 13 18 17 16 18 16 17 16 20 22 27 28 30 32 33 35 35 33 34 36 38
8 2 4 6 3 4 4 5 6 11 8 11 16 22 6 9 10 9 12 14 16 16 18 18 20 22 23 21 21 22 21 20 19 24 27 26 26 27 28 29 33 42 41 38
5 1 4 5 4 5 7 9 10 7 7 7 4 12 21 2 11 14 14 15 15 17 18 19 20 25 27 27 24 26 25 25 23 19 27 31 31 29 33 35 35 37 42 38
2 6 3 4 4 4 5 5 8 8 9 10 12 6 13 18 7 12 13 15 16 17 17 19 19 26 26 26 29 26 27 27 25 22 26 32 34 32 32 32 32 34 37 40
0 2 3 3 2 2 3 5 7 8 5 7 6 9 11 5 5 8 13 14 15 17 18 18 25 26 26 27 29 29 27 26 23 20 27 36 36 33 30 32 30 30 31 35
2 3 1 1 3 3 3 4 3 4 5 6 2 8 6 3 7 9 12 14 16 18 18 17 20 23 28 29 30 29 27 26 22 21 23 36 36 33 32 31 30 29 29 31
3 3 5 1 2 1 3 3 4 5 3 4 12 8 2 5 7 11 13 14 16 18 18 17 18 24 26 28 29 30 27 25 22 19 12 28 31 31 30 29 26 27 28 30
4 5 3 6 2 4 3 7 6 12 13 9 6 2 5 7 11 14 15 17 18 19 20 19 21 25 28 29 30 30 27 25 22 21 14 14 25 28 26 24 25 26 27 29
1 4 7 6 3 6 13 1 3 4 3 5 5 9 3 13 16 16 17 17 18 18 19 18 18 25 28 28 29 26 25 24 23 23 19 9 22 26 25 26 25 26 25 30
3 4 2 4 6 4 3 4 6 4 6 4 4 1 6 8 10 13 14 15 16 17 17 16 18 26 26 26 27 24 24 25 28 30 27 18 10 20 23 24 22 22 25 28
2 2 4 8 8 7 9 4 3 2 2 3 5 3 8 8 9 11 13 14 16 14 16 15 18 24 25 26 26 25 33 32 30 29 27 24 12 13 16 18 21 23 22 22
5 2 4 2 4 2 3 4 4 6 7 12 5 2 7 8 10 12 14 16 16 17 18 15 15 17 22 25 26 32 31 31 32 30 30 29 27 19 10 14 15 16 17 19
3 4 5 6 6 5 5 7 11 8 6 8 2 4 8 11 13 14 15 16 16 17 19 18 18 18 25 29 34 32 33 35 34 30 32 31 30 27 25 18 16 13 12 15
6 6 9 14 16 12 8 4 3 7 16 7 6 5 7 9 10 12 13 15 18 19 20 19 19 19 29 32 32 33 33 37 36 35 35 32 32 31 30 28 26 25 23 21
5 3 1 5 11 6 7 7 2 8 7 10 12 8 5 6 8 13 15 16 17 18 18 19 20 23 28 33 35 35 35 34 35 30 32 33 33 37 37 30 28 28 27 25
3 2 1 4 14 10 4 5 4 3 11 2 2 6 5 8 12 13 14 14 15 16 18 19 19 24 28 31 32 31 32 34 35 37 36 38 36 30 41 32 34 35 30 31
3 5 2 2 5 2 4 8 9 11 8 8 10 8 7 10 10 12 12 13 14 15 16 16 23 27 30 33 33 32 34 34 35 35 36 39 34 32 40 39 39 37 33 37
11 5 3 3 2 3 4 1 1 3 4 5 2 5 7 8 5 11 13 12 12 12 17 18 21 24 28 32 31 31 34 35 37 38 38 37 38 38 35 32 34 27 26 31
2 10 5 3 3 5 3 2 2 3 1 3 1 3 2 8 3 3 10 11 14 17 20 21 23 24 29 30 29 29 32 34 35 34 33 33 34 34 34 31 30 28 30 31
1 2 6 3 2 2 3 6 2 3 3 5 6 4 6 5 5 4 7 12 14 16 19 21 21 24 26 28 28 30 31 33 30 30 32 35 36 35 33 31 32 28 29 28
2 1 1 1 2 4 7 2 3 7 9 10 10 11 14 12 9 7 8 10 15 16 19 23 21 23 27 28 27 27 29 28 29 30 31 32 32 32 31 31 29 31 28 29
1 2 2 3 2 4 5 9 6 7 12 9 11 9 11 11 8 7 7 11 13 14 15 18 19 22 29 30 27 27 26 28 29 30 31 30 30 29 31 32 31 30 29 28
2 0 3 4 3 5 6 8 8 8 11 11 10 10 10 11 9 8 7 10 12 14 16 15 18 22 24 28 31 28 28 28 30 31 30 28 28 28 30 30 30 31 30 27
0 0 6 4 6 8 5 7 10 12 12 12 11 10 10 11 9 9 7 10 10 11 13 15 17 19 21 22 28 30 29 28 25 25 27 26 25 24 22 25 29 27 30 30
1 3 3 2 9 4 6 8 10 12 11 12 13 12 12 12 10 11 11 10 10 11 11 14 15 17 18 19 21 23 23 23 23 24 24 24 22 21 20 18 17 21 23 25

GFSCGP_925_spd_114.txt.gz
Wind_Speed
10 10 14 14 11 12 11 13 16 14 12 15 16 19 18 18 18 20 17 14 13 14 16 16 17 16 19 19 21 19 21 16 16 20 25 26 28 29 32 32 32 32 32 33
8 16 14 8 10 12 13 15 16 12 6 12 20 30 21 20 10 7 11 10 11 13 14 15 18 19 19 20 21 21 21 20 18 18 23 26 27 30 32 33 33 32 32 32
18 9 1 9 11 12 13 14 13 14 15 17 21 27 8 12 3 3 5 9 11 13 16 17 19 20 21 22 22 23 24 23 23 21 21 25 28 28 29 30 30 33 35 36
13 13 11 12 13 10 15 9 10 11 11 12 9 15 19 12 8 2 8 11 14 16 17 16 19 23 22 23 23 24 25 26 24 23 23 25 29 30 31 30 32 35 37 36
4 7 9 12 12 7 11 5 10 12 15 16 19 10 17 12 7 7 9 13 15 16 18 18 18 24 27 24 24 24 25 27 25 24 25 27 30 31 30 30 31 34 34 38
9 1 6 9 4 8 8 12 16 14 12 12 21 16 16 4 4 5 10 13 16 18 18 18 23 24 24 25 26 27 27 26 27 24 25 29 32 35 31 31 30 31 33 35
9 13 4 6 9 7 10 8 6 8 8 10 3 6 14 10 3 5 9 12 13 16 18 19 20 23 25 27 28 28 28 29 27 27 26 27 33 39 37 33 31 28 29 31
9 8 10 6 10 5 8 7 7 10 9 10 8 8 0 6 7 8 9 13 15 16 16 18 20 25 26 28 27 27 28 29 30 30 28 27 29 34 38 34 31 30 27 30
4 6 4 4 4 3 5 9 11 16 16 13 11 10 6 5 8 14 15 16 16 18 19 20 22 26 27 29 29 29 29 30 31 32 30 25 23 29 34 33 29 26 27 28
1 5 7 5 6 12 13 2 4 8 5 8 7 11 3 9 13 14 15 16 18 18 20 19 20 27 28 29 30 29 29 30 31 31 26 22 20 23 29 25 24 25 24 27
4 4 3 3 8 10 7 11 10 7 8 4 5 2 6 8 9 13 14 15 14 17 17 16 19 28 29 30 30 30 29 29 29 26 23 18 13 17 22 24 23 24 23 24
5 4 7 9 4 9 12 10 12 9 6 7 6 6 7 7 8 11 13 15 16 16 17 17 22 26 28 30 32 30 31 27 26 25 20 20 19 11 14 17 21 20 20 20
7 6 4 6 4 7 4 9 10 7 8 14 9 1 6 7 9 10 13 15 16 18 18 17 20 21 26 28 28 28 28 28 28 27 26 28 31 29 26 9 12 15 17 17
4 6 9 8 7 3 5 6 9 10 7 12 9 5 6 9 9 12 14 15 15 16 16 16 16 19 24 25 27 29 32 34 31 34 35 34 35 31 29 28 24 22 22 21
3 7 9 14 16 13 12 12 11 7 9 9 3 6 6 5 7 10 11 13 15 16 18 18 19 16 25 27 30 32 34 36 39 32 38 35 33 35 34 35 31 30 32 30
7 7 2 10 14 15 5 4 8 4 3 5 12 8 4 5 6 10 12 14 15 16 18 19 19 24 26 32 32 33 35 37 37 39 38 38 35 39 38 41 34 36 35 34
5 6 3 2 1 9 6 2 3 4 5 1 3 7 6 7 10 11 12 13 14 16 16 17 18 24 29 30 30 31 32 34 37 38 38 36 38 40 35 39 41 41 35 35
3 6 3 2 7 5 5 5 8 8 6 8 12 10 10 10 10 11 12 12 14 15 17 17 23 26 29 31 33 32 34 36 37 36 38 39 40 40 39 43 38 40 30 37
10 6 3 4 9 4 8 6 4 1 4 1 6 8 9 8 7 12 12 12 12 13 17 18 20 22 25 29 30 31 35 35 36 38 38 37 38 37 37 41 36 36 34 39
9 12 6 6 4 4 6 5 2 1 4 3 4 6 8 8 3 4 9 11 13 16 18 18 20 20 25 28 28 29 31 33 34 33 33 35 36 34 36 33 28 31 34 34
4 5 13 10 4 4 4 1 4 4 4 5 5 6 9 4 6 7 6 9 12 13 18 17 20 22 24 24 24 27 29 31 28 28 31 32 33 33 33 31 32 29 30 33
3 3 4 3 3 4 4 5 4 7 9 9 10 10 14 13 11 9 7 8 11 13 17 19 20 22 23 26 25 26 29 26 25 27 29 31 32 33 32 31 30 31 29 28
3 2 1 4 4 4 6 10 11 9 13 12 12 11 11 12 10 9 7 8 10 12 13 15 18 20 24 26 27 26 25 25 25 25 27 27 28 31 30 32 31 31 29 27
3 3 1 5 4 7 8 8 10 11 12 11 11 11 10 11 9 8 7 8 9 12 13 14 17 20 21 23 25 24 24 22 24 24 23 23 25 24 27 26 27 29 29 26
2 6 6 4 6 8 6 8 12 13 13 13 11 11 11 11 9 8 6 8 9 11 12 14 15 17 20 20 22 23 23 22 21 22 23 23 22 22 20 22 26 24 28 26
4 3 3 2 12 1 13 11 14 14 13 12 13 12 12 11 9 10 9 8 10 11 11 13 15 16 17 18 19 21 22 21 20 20 20 21 20 20 20 19 16 20 22 24

GFSCGP_925_spd_117.txt.gz
Wind_Speed
15 14 15 17 17 17 16 18 21 21 17 20 19 22 21 18 21 21 19 18 13 7 11 14 16 17 18 18 20 20 18 16 16 16 17 23 26 28 28 32 30 31 33 33
15 17 17 18 14 13 16 20 22 22 20 12 19 24 23 24 26 20 10 3 9 9 11 13 16 18 19 20 21 21 21 19 17 17 19 20 24 28 30 30 33 34 33 34
20 16 7 7 15 15 18 19 20 21 19 21 22 30 23 15 5 7 7 4 5 10 13 14 17 20 20 21 21 22 23 22 20 18 21 23 26 29 26 32 32 34 36 35
18 17 16 19 16 15 20 14 17 14 15 17 20 21 26 22 24 12 7 6 9 12 14 16 18 23 23 24 22 21 23 24 22 20 20 22 25 26 27 28 31 33 36 38
17 11 11 15 17 14 16 12 10 16 18 20 30 14 26 19 13 14 6 8 11 13 15 17 19 26 28 26 25 25 24 24 23 22 22 23 25 27 30 31 33 35 32 38
16 2 8 12 11 8 12 11 16 18 17 17 25 20 22 5 9 7 7 9 12 15 18 18 24 27 28 28 27 28 27 25 23 22 22 23 26 28 29 30 29 32 34 34
18 17 13 4 14 12 11 13 11 13 12 16 20 12 8 9 10 11 13 16 16 17 18 19 21 26 29 31 31 29 27 28 26 26 24 24 26 28 31 33 34 28 30 33
10 12 15 11 14 15 15 14 12 19 15 17 21 9 4 11 10 11 11 12 14 16 17 19 21 25 27 29 30 30 30 29 27 26 26 26 27 27 30 33 35 36 32 33
8 12 3 3 8 6 7 14 12 17 18 16 17 20 12 9 11 13 13 13 15 16 17 18 22 25 28 28 30 29 29 28 27 27 27 28 29 29 31 35 35 36 40 33
4 8 11 8 5 13 14 10 6 7 6 12 11 14 3 9 11 13 13 14 15 16 17 17 21 26 28 30 29 28 27 26 28 27 26 27 30 30 33 37 36 34 37 27
7 7 6 4 10 15 12 12 13 13 11 9 10 2 4 6 8 11 13 16 14 15 16 13 18 25 26 27 29 30 29 29 29 27 29 30 25 25 29 36 34 32 34 28
9 5 11 16 11 9 14 16 15 11 13 7 13 7 5 5 6 9 12 13 14 15 16 14 20 24 25 29 30 31 32 33 31 29 32 24 20 17 16 10 25 26 26 26
6 7 7 8 7 10 9 14 14 9 9 15 9 2 5 5 8 10 11 13 14 16 18 19 20 22 26 29 31 33 34 35 35 33 28 22 21 26 35 33 30 17 6 9
2 8 9 11 10 5 5 7 9 12 11 14 12 2 5 7 8 10 11 12 14 15 17 17 18 21 27 28 29 31 34 36 35 28 29 26 34 38 38 38 39 36 31 29
8 10 10 15 16 15 13 12 12 11 15 10 7 2 4 6 7 9 10 12 14 16 17 17 17 19 27 30 30 30 32 35 34 33 36 36 38 40 41 41 40 39 40 36
12 7 7 11 16 15 15 15 13 9 8 5 2 4 5 7 6 8 10 12 14 16 16 17 18 24 27 29 29 29 33 34 34 38 39 40 39 42 40 42 41 43 42 39
10 5 6 7 3 4 7 9 8 3 3 5 9 8 8 7 8 9 10 11 13 14 15 17 19 24 28 28 30 30 31 34 36 37 39 40 39 44 42 40 40 43 41 37
6 7 6 5 4 8 4 4 4 5 4 7 11 10 9 10 9 9 10 10 12 13 14 15 21 24 26 28 30 29 32 35 37 38 39 41 44 40 39 38 38 40 37 34
9 5 4 4 9 6 8 7 7 7 6 6 11 12 12 12 13 12 10 10 10 11 15 17 19 21 24 28 29 27 31 33 35 36 37 37 37 38 36 35 33 36 30 37
12 12 9 5 7 3 9 11 5 6 6 10 9 12 12 10 3 5 7 8 11 13 14 16 18 20 24 27 26 28 29 31 32 32 31 32 33 34 33 32 33 33 33 34
4 4 14 12 8 4 6 6 5 5 5 9 9 9 10 5 5 10 7 8 10 11 14 14 16 18 22 25 24 26 28 30 27 28 30 33 33 33 33 33 36 33 33 34
8 5 7 10 6 5 2 7 4 6 8 10 12 12 15 14 12 10 8 7 8 10 13 15 16 19 21 24 24 25 27 25 24 25 28 29 32 30 31 33 32 33 33 31
4 3 4 5 4 4 3 7 10 9 12 12 14 13 14 14 11 9 8 7 8 10 11 12 14 16 19 22 24 24 25 23 25 25 27 28 26 31 31 31 33 31 29 28
3 2 1 6 6 6 6 6 9 12 13 14 14 14 13 13 10 9 7 7 8 9 10 10 13 15 18 20 21 21 24 21 22 24 24 23 26 24 27 29 28 31 31 28
2 6 5 4 7 8 6 8 11 13 14 14 13 13 13 13 11 10 7 7 7 7 8 10 12 14 16 17 20 22 23 23 20 19 21 21 22 23 21 20 24 24 27 28
6 3 4 1 14 4 14 12 14 15 13 13 14 13 13 14 11 12 10 8 8 8 9 11 12 14 15 16 18 22 22 22 22 21 22 24 23 22 23 22 18 19 20 23